Wetterdaten: Mittwoch, 25.09.2019
Datum Zeit Temp. A. Feuchte A. Luftdruck Regen Wind Richtung Richtung Sonnenschein ET UV Solar Taupunkt Windchill Windböen
25.09.2019 00:00 11,2 °C 92 % 1009,8 hPa 0,0 mm 0,0 km/h (0 Bft) W-SW 244 ° 0 min 0,000 mm 0,0 UV-I 0 W/m² 9,9 °C 11,2 °C 0,0 km/h (0 Bft)
25.09.2019 00:01 11,2 °C 92 % 1009,7 hPa 0,0 mm 0,1 km/h (0 Bft) W-SW 244 ° 0 min 0,000 mm 0,0 UV-I 0 W/m² 9,9 °C 11,2 °C 1,6 km/h (1 Bft)
25.09.2019 00:02 11,3 °C 92 % 1009,7 hPa 0,0 mm 0,6 km/h (0 Bft) W-SW 244 ° 0 min 0,000 mm 0,0 UV-I 0 W/m² 10,0 °C 11,3 °C 3,2 km/h (1 Bft)
25.09.2019 00:03 11,3 °C 92 % 1009,7 hPa 0,0 mm 0,9 km/h (0 Bft) W-SW 244 ° 0 min 0,000 mm 0,0 UV-I 0 W/m² 10,0 °C 11,3 °C 3,2 km/h (1 Bft)
25.09.2019 00:04 11,3 °C 91 % 1009,8 hPa 0,0 mm 1,0 km/h (0 Bft) W-SW 244 ° 0 min 0,000 mm 0,0 UV-I 0 W/m² 9,9 °C 11,3 °C 3,2 km/h (1 Bft)
25.09.2019 00:05 11,4 °C 91 % 1009,8 hPa 0,0 mm 1,5 km/h (1 Bft) W-SW 244 ° 0 min 0,000 mm 0,0 UV-I 0 W/m² 10,0 °C 11,4 °C 3,2 km/h (1 Bft)
25.09.2019 00:06 11,4 °C 91 % 1009,7 hPa 0,0 mm 0,1 km/h (0 Bft) W-SW 244 ° 0 min 0,000 mm 0,0 UV-I 0 W/m² 10,0 °C 11,4 °C 1,6 km/h (1 Bft)
25.09.2019 00:07 11,4 °C 91 % 1009,8 hPa 0,0 mm 2,8 km/h (1 Bft) W-SW 244 ° 0 min 0,000 mm 0,0 UV-I 0 W/m² 10,0 °C 11,4 °C 4,8 km/h (1 Bft)
25.09.2019 00:08 11,4 °C 91 % 1009,7 hPa 0,0 mm 4,0 km/h (1 Bft) S-SW 205 ° 0 min 0,000 mm 0,0 UV-I 0 W/m² 10,0 °C 11,4 °C 6,4 km/h (2 Bft)
25.09.2019 00:09 11,4 °C 91 % 1009,7 hPa 0,0 mm 0,0 km/h (0 Bft) S-SW 205 ° 0 min 0,000 mm 0,0 UV-I 0 W/m² 10,0 °C 11,4 °C 0,0 km/h (0 Bft)
25.09.2019 00:10 11,3 °C 91 % 1009,7 hPa 0,0 mm 0,0 km/h (0 Bft) S-SW 205 ° 0 min 0,000 mm 0,0 UV-I 0 W/m² 9,9 °C 11,3 °C 0,0 km/h (0 Bft)
25.09.2019 00:11 11,3 °C 91 % 1009,7 hPa 0,0 mm 1,8 km/h (1 Bft) S-SW 207 ° 0 min 0,000 mm 0,0 UV-I 0 W/m² 9,9 °C 11,3 °C 4,8 km/h (1 Bft)
25.09.2019 00:12 11,3 °C 91 % 1009,7 hPa 0,0 mm 3,0 km/h (1 Bft) W-SW 256 ° 0 min 0,000 mm 0,0 UV-I 0 W/m² 9,9 °C 11,3 °C 4,8 km/h (1 Bft)
25.09.2019 00:13 11,3 °C 91 % 1009,7 hPa 0,0 mm 2,3 km/h (1 Bft) W-SW 256 ° 0 min 0,000 mm 0,0 UV-I 0 W/m² 9,9 °C 11,3 °C 3,2 km/h (1 Bft)
25.09.2019 00:14 11,3 °C 91 % 1009,7 hPa 0,0 mm 2,9 km/h (1 Bft) S-SW 213 ° 0 min 0,000 mm 0,0 UV-I 0 W/m² 9,9 °C 11,3 °C 4,8 km/h (1 Bft)
25.09.2019 00:15 11,3 °C 91 % 1009,7 hPa 0,0 mm 0,0 km/h (0 Bft) S-SW 213 ° 0 min 0,000 mm 0,0 UV-I 0 W/m² 9,9 °C 11,3 °C 0,0 km/h (0 Bft)
25.09.2019 00:16 11,3 °C 91 % 1009,6 hPa 0,0 mm 0,0 km/h (0 Bft) S-SW 213 ° 0 min 0,000 mm 0,0 UV-I 0 W/m² 9,9 °C 11,3 °C 0,0 km/h (0 Bft)
25.09.2019 00:17 11,3 °C 91 % 1009,5 hPa 0,0 mm 0,0 km/h (0 Bft) S-SW 213 ° 0 min 0,000 mm 0,0 UV-I 0 W/m² 9,9 °C 11,3 °C 0,0 km/h (0 Bft)
25.09.2019 00:18 11,3 °C 91 % 1009,5 hPa 0,0 mm 0,3 km/h (0 Bft) SW 214 ° 0 min 0,000 mm 0,0 UV-I 0 W/m² 9,9 °C 11,3 °C 1,6 km/h (1 Bft)
25.09.2019 00:19 11,2 °C 91 % 1009,5 hPa 0,0 mm 1,0 km/h (0 Bft) S-SW 192 ° 0 min 0,000 mm 0,0 UV-I 0 W/m² 9,8 °C 11,2 °C 3,2 km/h (1 Bft)
25.09.2019 00:20 11,2 °C 91 % 1009,5 hPa 0,0 mm 0,5 km/h (0 Bft) S-SW 192 ° 0 min 0,000 mm 0,0 UV-I 0 W/m² 9,8 °C 11,2 °C 1,6 km/h (1 Bft)
25.09.2019 00:21 11,2 °C 91 % 1009,5 hPa 0,0 mm 0,0 km/h (0 Bft) S-SW 192 ° 0 min 0,000 mm 0,0 UV-I 0 W/m² 9,8 °C 11,2 °C 0,0 km/h (0 Bft)
25.09.2019 00:22 11,2 °C 91 % 1009,5 hPa 0,0 mm 0,0 km/h (0 Bft) S-SW 192 ° 0 min 0,000 mm 0,0 UV-I 0 W/m² 9,8 °C 11,2 °C 0,0 km/h (0 Bft)
25.09.2019 00:23 11,2 °C 91 % 1009,5 hPa 0,0 mm 0,0 km/h (0 Bft) S-SW 192 ° 0 min 0,000 mm 0,0 UV-I 0 W/m² 9,8 °C 11,2 °C 0,0 km/h (0 Bft)
25.09.2019 00:24 11,2 °C 91 % 1009,5 hPa 0,0 mm 0,0 km/h (0 Bft) S-SW 192 ° 0 min 0,000 mm 0,0 UV-I 0 W/m² 9,8 °C 11,2 °C 0,0 km/h (0 Bft)
25.09.2019 00:25 11,2 °C 91 % 1009,5 hPa 0,0 mm 0,0 km/h (0 Bft) S-SW 192 ° 0 min 0,000 mm 0,0 UV-I 0 W/m² 9,8 °C 11,2 °C 0,0 km/h (0 Bft)
25.09.2019 00:26 11,2 °C 91 % 1009,5 hPa 0,0 mm 0,0 km/h (0 Bft) S-SW 192 ° 0 min 0,000 mm 0,0 UV-I 0 W/m² 9,8 °C 11,2 °C 0,0 km/h (0 Bft)
25.09.2019 00:27 11,1 °C 91 % 1009,5 hPa 0,0 mm 0,0 km/h (0 Bft) S-SW 192 ° 0 min 0,000 mm 0,0 UV-I 0 W/m² 9,7 °C 11,1 °C 0,0 km/h (0 Bft)
25.09.2019 00:28 11,2 °C 92 % 1009,5 hPa 0,0 mm 0,0 km/h (0 Bft) S-SW 192 ° 0 min 0,000 mm 0,0 UV-I 0 W/m² 9,9 °C 11,2 °C 0,0 km/h (0 Bft)
25.09.2019 00:29 11,2 °C 91 % 1009,5 hPa 0,0 mm 0,0 km/h (0 Bft) S-SW 192 ° 0 min 0,000 mm 0,0 UV-I 0 W/m² 9,8 °C 11,2 °C 0,0 km/h (0 Bft)
25.09.2019 00:30 11,2 °C 92 % 1009,5 hPa 0,0 mm 0,0 km/h (0 Bft) S-SW 192 ° 0 min 0,000 mm 0,0 UV-I 0 W/m² 9,9 °C 11,2 °C 0,0 km/h (0 Bft)
25.09.2019 00:31 11,2 °C 91 % 1009,5 hPa 0,0 mm 0,0 km/h (0 Bft) S-SW 192 ° 0 min 0,000 mm 0,0 UV-I 0 W/m² 9,8 °C 11,2 °C 0,0 km/h (0 Bft)
25.09.2019 00:32 11,2 °C 91 % 1009,5 hPa 0,0 mm 0,1 km/h (0 Bft) S-SW 192 ° 0 min 0,000 mm 0,0 UV-I 0 W/m² 9,8 °C 11,2 °C 1,6 km/h (1 Bft)
25.09.2019 00:33 11,2 °C 91 % 1009,5 hPa 0,0 mm 0,0 km/h (0 Bft) S-SW 192 ° 0 min 0,000 mm 0,0 UV-I 0 W/m² 9,8 °C 11,2 °C 0,0 km/h (0 Bft)
25.09.2019 00:34 11,2 °C 91 % 1009,4 hPa 0,0 mm 0,0 km/h (0 Bft) S-SW 192 ° 0 min 0,000 mm 0,0 UV-I 0 W/m² 9,8 °C 11,2 °C 0,0 km/h (0 Bft)
25.09.2019 00:35 11,2 °C 91 % 1009,4 hPa 0,0 mm 0,0 km/h (0 Bft) S-SW 192 ° 0 min 0,000 mm 0,0 UV-I 0 W/m² 9,8 °C 11,2 °C 0,0 km/h (0 Bft)
25.09.2019 00:36 11,2 °C 91 % 1009,4 hPa 0,0 mm 0,0 km/h (0 Bft) S-SW 192 ° 0 min 0,000 mm 0,0 UV-I 0 W/m² 9,8 °C 11,2 °C 0,0 km/h (0 Bft)
25.09.2019 00:37 11,2 °C 91 % 1009,4 hPa 0,0 mm 0,0 km/h (0 Bft) S-SW 192 ° 0 min 0,000 mm 0,0 UV-I 0 W/m² 9,8 °C 11,2 °C 0,0 km/h (0 Bft)
25.09.2019 00:38 11,2 °C 91 % 1009,4 hPa 0,0 mm 0,0 km/h (0 Bft) S-SW 192 ° 0 min 0,000 mm 0,0 UV-I 0 W/m² 9,8 °C 11,2 °C 0,0 km/h (0 Bft)
25.09.2019 00:39 11,1 °C 91 % 1009,4 hPa 0,0 mm 0,2 km/h (0 Bft) S-SW 192 ° 0 min 0,000 mm 0,0 UV-I 0 W/m² 9,7 °C 11,1 °C 1,6 km/h (1 Bft)
25.09.2019 00:40 11,1 °C 92 % 1009,3 hPa 0,0 mm 1,5 km/h (1 Bft) W 261 ° 0 min 0,000 mm 0,0 UV-I 0 W/m² 9,8 °C 11,1 °C 4,8 km/h (1 Bft)
25.09.2019 00:41 11,1 °C 92 % 1009,3 hPa 0,0 mm 0,0 km/h (0 Bft) W 261 ° 0 min 0,000 mm 0,0 UV-I 0 W/m² 9,8 °C 11,1 °C 0,0 km/h (0 Bft)
25.09.2019 00:42 11,1 °C 91 % 1009,2 hPa 0,0 mm 1,4 km/h (1 Bft) W-NW 288 ° 0 min 0,000 mm 0,0 UV-I 0 W/m² 9,7 °C 11,1 °C 4,8 km/h (1 Bft)
25.09.2019 00:43 11,2 °C 91 % 1009,3 hPa 0,0 mm 3,0 km/h (1 Bft) W-NW 288 ° 0 min 0,000 mm 0,0 UV-I 0 W/m² 9,8 °C 11,2 °C 4,8 km/h (1 Bft)
25.09.2019 00:44 11,2 °C 92 % 1009,2 hPa 0,0 mm 3,5 km/h (1 Bft) W-NW 288 ° 0 min 0,000 mm 0,0 UV-I 0 W/m² 9,9 °C 11,2 °C 4,8 km/h (1 Bft)
25.09.2019 00:45 11,2 °C 91 % 1009,2 hPa 0,0 mm 4,2 km/h (1 Bft) O-NO 59 ° 0 min 0,000 mm 0,0 UV-I 0 W/m² 9,8 °C 11,2 °C 6,4 km/h (2 Bft)
25.09.2019 00:46 11,2 °C 92 % 1009,2 hPa 0,0 mm 5,2 km/h (1 Bft) O-SO 113 ° 0 min 0,000 mm 0,0 UV-I 0 W/m² 9,9 °C 11,2 °C 8,0 km/h (2 Bft)
25.09.2019 00:47 11,2 °C 92 % 1009,2 hPa 0,0 mm 2,7 km/h (1 Bft) S-SW 195 ° 0 min 0,000 mm 0,0 UV-I 0 W/m² 9,9 °C 11,2 °C 6,4 km/h (2 Bft)
25.09.2019 00:48 11,2 °C 92 % 1009,2 hPa 0,0 mm 0,0 km/h (0 Bft) SW 216 ° 0 min 0,000 mm 0,0 UV-I 0 W/m² 9,9 °C 11,2 °C 0,0 km/h (0 Bft)
25.09.2019 00:49 11,2 °C 92 % 1009,2 hPa 0,0 mm 0,0 km/h (0 Bft) SW 215 ° 0 min 0,000 mm 0,0 UV-I 0 W/m² 9,9 °C 11,2 °C 0,0 km/h (0 Bft)
25.09.2019 00:50 11,2 °C 92 % 1009,1 hPa 0,0 mm 0,0 km/h (0 Bft) SW 215 ° 0 min 0,000 mm 0,0 UV-I 0 W/m² 9,9 °C 11,2 °C 0,0 km/h (0 Bft)
25.09.2019 00:51 11,2 °C 92 % 1009,1 hPa 0,0 mm 0,0 km/h (0 Bft) SW 215 ° 0 min 0,000 mm 0,0 UV-I 0 W/m² 9,9 °C 11,2 °C 0,0 km/h (0 Bft)
25.09.2019 00:52 11,2 °C 92 % 1009,1 hPa 0,0 mm 0,0 km/h (0 Bft) SW 215 ° 0 min 0,000 mm 0,0 UV-I 0 W/m² 9,9 °C 11,2 °C 0,0 km/h (0 Bft)
25.09.2019 00:53 11,2 °C 92 % 1009,1 hPa 0,0 mm 0,0 km/h (0 Bft) SW 215 ° 0 min 0,000 mm 0,0 UV-I 0 W/m² 9,9 °C 11,2 °C 0,0 km/h (0 Bft)
25.09.2019 00:54 11,2 °C 92 % 1009,1 hPa 0,0 mm 0,0 km/h (0 Bft) SW 215 ° 0 min 0,000 mm 0,0 UV-I 0 W/m² 9,9 °C 11,2 °C 0,0 km/h (0 Bft)
25.09.2019 00:55 11,3 °C 92 % 1009,1 hPa 0,0 mm 0,0 km/h (0 Bft) SW 215 ° 0 min 0,000 mm 0,0 UV-I 0 W/m² 10,0 °C 11,3 °C 0,0 km/h (0 Bft)
25.09.2019 00:56 11,3 °C 92 % 1009,1 hPa 0,0 mm 0,0 km/h (0 Bft) SW 215 ° 0 min 0,000 mm 0,0 UV-I 0 W/m² 10,0 °C 11,3 °C 0,0 km/h (0 Bft)
25.09.2019 00:57 11,3 °C 92 % 1009,1 hPa 0,0 mm 0,0 km/h (0 Bft) SW 215 ° 0 min 0,000 mm 0,0 UV-I 0 W/m² 10,0 °C 11,3 °C 0,0 km/h (0 Bft)
25.09.2019 00:58 11,2 °C 92 % 1009,1 hPa 0,0 mm 0,0 km/h (0 Bft) SW 215 ° 0 min 0,000 mm 0,0 UV-I 0 W/m² 9,9 °C 11,2 °C 0,0 km/h (0 Bft)
25.09.2019 00:59 11,3 °C 92 % 1009,1 hPa 0,0 mm 0,0 km/h (0 Bft) SW 215 ° 0 min 0,000 mm 0,0 UV-I 0 W/m² 10,0 °C 11,3 °C 0,0 km/h (0 Bft)
25.09.2019 01:00 11,2 °C 91 % 1009,1 hPa 0,0 mm 0,0 km/h (0 Bft) SW 215 ° 0 min 0,000 mm 0,0 UV-I 0 W/m² 9,8 °C 11,2 °C 0,0 km/h (0 Bft)
25.09.2019 01:01 11,2 °C 91 % 1009,1 hPa 0,0 mm 0,0 km/h (0 Bft) SW 215 ° 0 min 0,000 mm 0,0 UV-I 0 W/m² 9,8 °C 11,2 °C 0,0 km/h (0 Bft)
25.09.2019 01:02 11,2 °C 91 % 1009,1 hPa 0,0 mm 0,0 km/h (0 Bft) SW 215 ° 0 min 0,000 mm 0,0 UV-I 0 W/m² 9,8 °C 11,2 °C 0,0 km/h (0 Bft)
25.09.2019 01:03 11,2 °C 91 % 1009,1 hPa 0,0 mm 0,0 km/h (0 Bft) SW 215 ° 0 min 0,000 mm 0,0 UV-I 0 W/m² 9,8 °C 11,2 °C 0,0 km/h (0 Bft)
25.09.2019 01:04 11,2 °C 91 % 1009,1 hPa 0,0 mm 0,0 km/h (0 Bft) SW 215 ° 0 min 0,000 mm 0,0 UV-I 0 W/m² 9,8 °C 11,2 °C 0,0 km/h (0 Bft)
25.09.2019 01:05 11,2 °C 91 % 1009,1 hPa 0,0 mm 0,0 km/h (0 Bft) SW 215 ° 0 min 0,000 mm 0,0 UV-I 0 W/m² 9,8 °C 11,2 °C 0,0 km/h (0 Bft)
25.09.2019 01:06 11,2 °C 91 % 1009,1 hPa 0,0 mm 0,0 km/h (0 Bft) SW 215 ° 0 min 0,000 mm 0,0 UV-I 0 W/m² 9,8 °C 11,2 °C 0,0 km/h (0 Bft)
25.09.2019 01:07 11,2 °C 91 % 1009,1 hPa 0,0 mm 0,0 km/h (0 Bft) SW 215 ° 0 min 0,000 mm 0,0 UV-I 0 W/m² 9,8 °C 11,2 °C 0,0 km/h (0 Bft)
25.09.2019 01:08 11,2 °C 91 % 1009,2 hPa 0,0 mm 0,0 km/h (0 Bft) SW 215 ° 0 min 0,000 mm 0,0 UV-I 0 W/m² 9,8 °C 11,2 °C 0,0 km/h (0 Bft)
25.09.2019 01:09 11,2 °C 91 % 1009,2 hPa 0,0 mm 0,0 km/h (0 Bft) SW 215 ° 0 min 0,000 mm 0,0 UV-I 0 W/m² 9,8 °C 11,2 °C 0,0 km/h (0 Bft)
25.09.2019 01:10 11,1 °C 91 % 1009,2 hPa 0,0 mm 0,0 km/h (0 Bft) SW 215 ° 0 min 0,000 mm 0,0 UV-I 0 W/m² 9,7 °C 11,1 °C 0,0 km/h (0 Bft)
25.09.2019 01:11 11,2 °C 92 % 1009,2 hPa 0,0 mm 0,0 km/h (0 Bft) SW 215 ° 0 min 0,000 mm 0,0 UV-I 0 W/m² 9,9 °C 11,2 °C 0,0 km/h (0 Bft)
25.09.2019 01:12 11,1 °C 91 % 1009,3 hPa 0,0 mm 0,0 km/h (0 Bft) SW 215 ° 0 min 0,000 mm 0,0 UV-I 0 W/m² 9,7 °C 11,1 °C 0,0 km/h (0 Bft)
25.09.2019 01:13 11,1 °C 91 % 1009,2 hPa 0,0 mm 0,0 km/h (0 Bft) SW 215 ° 0 min 0,000 mm 0,0 UV-I 0 W/m² 9,7 °C 11,1 °C 0,0 km/h (0 Bft)
25.09.2019 01:14 11,1 °C 92 % 1009,3 hPa 0,0 mm 0,0 km/h (0 Bft) SW 215 ° 0 min 0,000 mm 0,0 UV-I 0 W/m² 9,8 °C 11,1 °C 0,0 km/h (0 Bft)
25.09.2019 01:15 11,1 °C 92 % 1009,3 hPa 0,0 mm 0,0 km/h (0 Bft) SW 215 ° 0 min 0,000 mm 0,0 UV-I 0 W/m² 9,8 °C 11,1 °C 0,0 km/h (0 Bft)
25.09.2019 01:16 11,1 °C 92 % 1009,5 hPa 0,0 mm 0,0 km/h (0 Bft) SW 215 ° 0 min 0,000 mm 0,0 UV-I 0 W/m² 9,8 °C 11,1 °C 0,0 km/h (0 Bft)
25.09.2019 01:17 11,1 °C 92 % 1009,4 hPa 0,0 mm 0,0 km/h (0 Bft) SW 215 ° 0 min 0,000 mm 0,0 UV-I 0 W/m² 9,8 °C 11,1 °C 0,0 km/h (0 Bft)
25.09.2019 01:18 11,1 °C 92 % 1009,5 hPa 0,0 mm 0,0 km/h (0 Bft) SW 215 ° 0 min 0,000 mm 0,0 UV-I 0 W/m² 9,8 °C 11,1 °C 0,0 km/h (0 Bft)
25.09.2019 01:19 11,1 °C 92 % 1009,5 hPa 0,0 mm 0,0 km/h (0 Bft) SW 215 ° 0 min 0,000 mm 0,0 UV-I 0 W/m² 9,8 °C 11,1 °C 0,0 km/h (0 Bft)
25.09.2019 01:20 11,1 °C 92 % 1009,5 hPa 0,0 mm 0,0 km/h (0 Bft) SW 215 ° 0 min 0,000 mm 0,0 UV-I 0 W/m² 9,8 °C 11,1 °C 0,0 km/h (0 Bft)
25.09.2019 01:21 11,1 °C 92 % 1009,5 hPa 0,0 mm 0,0 km/h (0 Bft) SW 215 ° 0 min 0,000 mm 0,0 UV-I 0 W/m² 9,8 °C 11,1 °C 0,0 km/h (0 Bft)
25.09.2019 01:22 11,2 °C 92 % 1009,7 hPa 0,0 mm 0,6 km/h (0 Bft) SW 216 ° 0 min 0,000 mm 0,0 UV-I 0 W/m² 9,9 °C 11,2 °C 3,2 km/h (1 Bft)
25.09.2019 01:23 11,2 °C 92 % 1009,7 hPa 0,0 mm 4,3 km/h (1 Bft) S 188 ° 0 min 0,000 mm 0,0 UV-I 0 W/m² 9,9 °C 11,2 °C 6,4 km/h (2 Bft)
25.09.2019 01:24 11,2 °C 92 % 1009,7 hPa 0,0 mm 2,6 km/h (1 Bft) S 190 ° 0 min 0,000 mm 0,0 UV-I 0 W/m² 9,9 °C 11,2 °C 4,8 km/h (1 Bft)
25.09.2019 01:25 11,2 °C 92 % 1009,7 hPa 0,0 mm 2,2 km/h (1 Bft) S 190 ° 0 min 0,000 mm 0,0 UV-I 0 W/m² 9,9 °C 11,2 °C 4,8 km/h (1 Bft)
25.09.2019 01:26 11,3 °C 92 % 1009,7 hPa 0,0 mm 2,5 km/h (1 Bft) S 180 ° 0 min 0,000 mm 0,0 UV-I 0 W/m² 10,0 °C 11,3 °C 6,4 km/h (2 Bft)
25.09.2019 01:27 11,3 °C 92 % 1009,7 hPa 0,0 mm 5,6 km/h (1 Bft) S-SW 195 ° 0 min 0,000 mm 0,0 UV-I 0 W/m² 10,0 °C 11,3 °C 6,4 km/h (2 Bft)
25.09.2019 01:28 11,3 °C 92 % 1009,7 hPa 0,0 mm 5,0 km/h (1 Bft) W 271 ° 0 min 0,000 mm 0,0 UV-I 0 W/m² 10,0 °C 11,3 °C 8,0 km/h (2 Bft)
25.09.2019 01:29 11,3 °C 92 % 1009,7 hPa 0,0 mm 4,8 km/h (1 Bft) S-SO 155 ° 0 min 0,000 mm 0,0 UV-I 0 W/m² 10,0 °C 11,3 °C 8,0 km/h (2 Bft)
25.09.2019 01:30 11,3 °C 92 % 1009,7 hPa 0,0 mm 3,5 km/h (1 Bft) SW 226 ° 0 min 0,000 mm 0,0 UV-I 0 W/m² 10,0 °C 11,3 °C 6,4 km/h (2 Bft)
25.09.2019 01:31 11,3 °C 92 % 1009,7 hPa 0,2 mm 5,9 km/h (2 Bft) W-SW 242 ° 0 min 0,000 mm 0,0 UV-I 0 W/m² 10,0 °C 11,3 °C 11,3 km/h (2 Bft)
25.09.2019 01:32 11,4 °C 92 % 1009,6 hPa 0,0 mm 2,0 km/h (1 Bft) S-SW 205 ° 0 min 0,000 mm 0,0 UV-I 0 W/m² 10,1 °C 11,4 °C 3,2 km/h (1 Bft)
25.09.2019 01:33 11,4 °C 92 % 1009,5 hPa 0,0 mm 0,7 km/h (0 Bft) S 180 ° 0 min 0,000 mm 0,0 UV-I 0 W/m² 10,1 °C 11,4 °C 3,2 km/h (1 Bft)
25.09.2019 01:34 11,4 °C 92 % 1009,6 hPa 0,0 mm 1,1 km/h (1 Bft) S 182 ° 0 min 0,000 mm 0,0 UV-I 0 W/m² 10,1 °C 11,4 °C 4,8 km/h (1 Bft)
25.09.2019 01:35 11,4 °C 92 % 1009,6 hPa 0,0 mm 1,0 km/h (0 Bft) S 182 ° 0 min 0,000 mm 0,0 UV-I 0 W/m² 10,1 °C 11,4 °C 3,2 km/h (1 Bft)
25.09.2019 01:36 11,4 °C 92 % 1009,6 hPa 0,0 mm 2,3 km/h (1 Bft) W-SW 244 ° 0 min 0,000 mm 0,0 UV-I 0 W/m² 10,1 °C 11,4 °C 8,0 km/h (2 Bft)
25.09.2019 01:37 11,5 °C 92 % 1009,5 hPa 0,0 mm 2,2 km/h (1 Bft) S 180 ° 0 min 0,000 mm 0,0 UV-I 0 W/m² 10,2 °C 11,5 °C 8,0 km/h (2 Bft)
25.09.2019 01:38 11,6 °C 92 % 1009,6 hPa 0,0 mm 2,9 km/h (1 Bft) SW 215 ° 0 min 0,000 mm 0,0 UV-I 0 W/m² 10,3 °C 11,6 °C 9,7 km/h (2 Bft)
25.09.2019 01:39 11,6 °C 92 % 1009,6 hPa 0,0 mm 2,5 km/h (1 Bft) SW 229 ° 0 min 0,000 mm 0,0 UV-I 0 W/m² 10,3 °C 11,6 °C 6,4 km/h (2 Bft)
25.09.2019 01:40 11,6 °C 92 % 1009,6 hPa 0,0 mm 0,2 km/h (0 Bft) SW 229 ° 0 min 0,000 mm 0,0 UV-I 0 W/m² 10,3 °C 11,6 °C 1,6 km/h (1 Bft)
25.09.2019 01:41 11,6 °C 92 % 1009,6 hPa 0,0 mm 0,0 km/h (0 Bft) SW 229 ° 0 min 0,000 mm 0,0 UV-I 0 W/m² 10,3 °C 11,6 °C 0,0 km/h (0 Bft)
25.09.2019 01:42 11,6 °C 92 % 1009,5 hPa 0,0 mm 0,0 km/h (0 Bft) SW 229 ° 0 min 0,000 mm 0,0 UV-I 0 W/m² 10,3 °C 11,6 °C 0,0 km/h (0 Bft)
25.09.2019 01:43 11,6 °C 92 % 1009,5 hPa 0,0 mm 0,0 km/h (0 Bft) SW 229 ° 0 min 0,000 mm 0,0 UV-I 0 W/m² 10,3 °C 11,6 °C 0,0 km/h (0 Bft)
25.09.2019 01:44 11,5 °C 92 % 1009,5 hPa 0,0 mm 0,0 km/h (0 Bft) SW 229 ° 0 min 0,000 mm 0,0 UV-I 0 W/m² 10,2 °C 11,5 °C 0,0 km/h (0 Bft)
25.09.2019 01:45 11,5 °C 93 % 1009,5 hPa 0,2 mm 0,4 km/h (0 Bft) SW 229 ° 0 min 0,000 mm 0,0 UV-I 0 W/m² 10,4 °C 11,5 °C 1,6 km/h (1 Bft)
25.09.2019 01:46 11,5 °C 93 % 1009,6 hPa 0,0 mm 0,0 km/h (0 Bft) SW 229 ° 0 min 0,000 mm 0,0 UV-I 0 W/m² 10,4 °C 11,5 °C 0,0 km/h (0 Bft)
25.09.2019 01:47 11,4 °C 93 % 1009,7 hPa 0,0 mm 0,1 km/h (0 Bft) SW 227 ° 0 min 0,000 mm 0,0 UV-I 0 W/m² 10,3 °C 11,4 °C 1,6 km/h (1 Bft)
25.09.2019 01:48 11,4 °C 93 % 1009,7 hPa 0,0 mm 0,0 km/h (0 Bft) SW 227 ° 0 min 0,000 mm 0,0 UV-I 0 W/m² 10,3 °C 11,4 °C 0,0 km/h (0 Bft)
25.09.2019 01:49 11,4 °C 93 % 1009,6 hPa 0,0 mm 0,0 km/h (0 Bft) SW 227 ° 0 min 0,000 mm 0,0 UV-I 0 W/m² 10,3 °C 11,4 °C 0,0 km/h (0 Bft)
25.09.2019 01:50 11,4 °C 93 % 1009,6 hPa 0,0 mm 0,0 km/h (0 Bft) SW 227 ° 0 min 0,000 mm 0,0 UV-I 0 W/m² 10,3 °C 11,4 °C 0,0 km/h (0 Bft)
25.09.2019 01:51 11,4 °C 93 % 1009,7 hPa 0,0 mm 0,0 km/h (0 Bft) SW 227 ° 0 min 0,000 mm 0,0 UV-I 0 W/m² 10,3 °C 11,4 °C 0,0 km/h (0 Bft)
25.09.2019 01:52 11,4 °C 93 % 1009,7 hPa 0,0 mm 0,1 km/h (0 Bft) SW 227 ° 0 min 0,000 mm 0,0 UV-I 0 W/m² 10,3 °C 11,4 °C 1,6 km/h (1 Bft)
25.09.2019 01:53 11,4 °C 93 % 1009,6 hPa 0,0 mm 0,0 km/h (0 Bft) SW 227 ° 0 min 0,000 mm 0,0 UV-I 0 W/m² 10,3 °C 11,4 °C 0,0 km/h (0 Bft)
25.09.2019 01:54 11,4 °C 93 % 1009,6 hPa 0,0 mm 0,0 km/h (0 Bft) SW 227 ° 0 min 0,000 mm 0,0 UV-I 0 W/m² 10,3 °C 11,4 °C 0,0 km/h (0 Bft)
25.09.2019 01:55 11,4 °C 93 % 1009,6 hPa 0,0 mm 0,0 km/h (0 Bft) SW 227 ° 0 min 0,000 mm 0,0 UV-I 0 W/m² 10,3 °C 11,4 °C 0,0 km/h (0 Bft)
25.09.2019 01:56 11,4 °C 93 % 1009,5 hPa 0,0 mm 0,0 km/h (0 Bft) SW 227 ° 0 min 0,000 mm 0,0 UV-I 0 W/m² 10,3 °C 11,4 °C 0,0 km/h (0 Bft)
25.09.2019 01:57 11,3 °C 93 % 1009,5 hPa 0,2 mm 0,0 km/h (0 Bft) SW 227 ° 0 min 0,000 mm 0,0 UV-I 0 W/m² 10,2 °C 11,3 °C 0,0 km/h (0 Bft)
25.09.2019 01:58 11,3 °C 93 % 1009,5 hPa 0,0 mm 0,0 km/h (0 Bft) SW 227 ° 0 min 0,000 mm 0,0 UV-I 0 W/m² 10,2 °C 11,3 °C 0,0 km/h (0 Bft)
25.09.2019 01:59 11,3 °C 93 % 1009,5 hPa 0,0 mm 0,0 km/h (0 Bft) SW 227 ° 0 min 0,000 mm 0,0 UV-I 0 W/m² 10,2 °C 11,3 °C 0,0 km/h (0 Bft)
25.09.2019 02:00 11,3 °C 93 % 1009,5 hPa 0,0 mm 0,0 km/h (0 Bft) SW 227 ° 0 min 0,000 mm 0,0 UV-I 0 W/m² 10,2 °C 11,3 °C 0,0 km/h (0 Bft)
25.09.2019 02:01 11,3 °C 93 % 1009,5 hPa 0,0 mm 0,0 km/h (0 Bft) SW 227 ° 0 min 0,000 mm 0,0 UV-I 0 W/m² 10,2 °C 11,3 °C 0,0 km/h (0 Bft)
25.09.2019 02:02 11,2 °C 93 % 1009,5 hPa 0,0 mm 0,0 km/h (0 Bft) SW 227 ° 0 min 0,000 mm 0,0 UV-I 0 W/m² 10,1 °C 11,2 °C 0,0 km/h (0 Bft)
25.09.2019 02:03 11,2 °C 94 % 1009,5 hPa 0,0 mm 0,0 km/h (0 Bft) SW 227 ° 0 min 0,000 mm 0,0 UV-I 0 W/m² 10,3 °C 11,2 °C 0,0 km/h (0 Bft)
25.09.2019 02:04 11,2 °C 94 % 1009,5 hPa 0,0 mm 0,0 km/h (0 Bft) SW 227 ° 0 min 0,000 mm 0,0 UV-I 0 W/m² 10,3 °C 11,2 °C 0,0 km/h (0 Bft)
25.09.2019 02:05 11,2 °C 94 % 1009,5 hPa 0,0 mm 0,0 km/h (0 Bft) SW 227 ° 0 min 0,000 mm 0,0 UV-I 0 W/m² 10,3 °C 11,2 °C 0,0 km/h (0 Bft)
25.09.2019 02:06 11,2 °C 94 % 1009,5 hPa 0,0 mm 0,0 km/h (0 Bft) SW 227 ° 0 min 0,000 mm 0,0 UV-I 0 W/m² 10,3 °C 11,2 °C 0,0 km/h (0 Bft)
25.09.2019 02:07 11,2 °C 94 % 1009,5 hPa 0,0 mm 0,0 km/h (0 Bft) SW 227 ° 0 min 0,000 mm 0,0 UV-I 0 W/m² 10,3 °C 11,2 °C 0,0 km/h (0 Bft)
25.09.2019 02:08 11,1 °C 94 % 1009,5 hPa 0,0 mm 0,0 km/h (0 Bft) SW 227 ° 0 min 0,000 mm 0,0 UV-I 0 W/m² 10,2 °C 11,1 °C 0,0 km/h (0 Bft)
25.09.2019 02:09 11,1 °C 94 % 1009,6 hPa 0,0 mm 0,0 km/h (0 Bft) SW 227 ° 0 min 0,000 mm 0,0 UV-I 0 W/m² 10,2 °C 11,1 °C 0,0 km/h (0 Bft)
25.09.2019 02:10 11,1 °C 94 % 1009,5 hPa 0,0 mm 0,0 km/h (0 Bft) SW 227 ° 0 min 0,000 mm 0,0 UV-I 0 W/m² 10,2 °C 11,1 °C 0,0 km/h (0 Bft)
25.09.2019 02:11 11,1 °C 94 % 1009,5 hPa 0,0 mm 0,0 km/h (0 Bft) SW 227 ° 0 min 0,000 mm 0,0 UV-I 0 W/m² 10,2 °C 11,1 °C 0,0 km/h (0 Bft)
25.09.2019 02:12 11,1 °C 94 % 1009,5 hPa 0,0 mm 0,0 km/h (0 Bft) SW 227 ° 0 min 0,000 mm 0,0 UV-I 0 W/m² 10,2 °C 11,1 °C 0,0 km/h (0 Bft)
25.09.2019 02:13 11,1 °C 94 % 1009,4 hPa 0,0 mm 0,0 km/h (0 Bft) SW 227 ° 0 min 0,000 mm 0,0 UV-I 0 W/m² 10,2 °C 11,1 °C 0,0 km/h (0 Bft)
25.09.2019 02:14 11,0 °C 94 % 1009,5 hPa 0,0 mm 0,0 km/h (0 Bft) SW 227 ° 0 min 0,000 mm 0,0 UV-I 0 W/m² 10,1 °C 11,0 °C 0,0 km/h (0 Bft)
25.09.2019 02:15 11,0 °C 94 % 1009,5 hPa 0,2 mm 0,0 km/h (0 Bft) SW 227 ° 0 min 0,000 mm 0,0 UV-I 0 W/m² 10,1 °C 11,0 °C 0,0 km/h (0 Bft)
25.09.2019 02:16 11,0 °C 94 % 1009,5 hPa 0,0 mm 0,0 km/h (0 Bft) SW 227 ° 0 min 0,000 mm 0,0 UV-I 0 W/m² 10,1 °C 11,0 °C 0,0 km/h (0 Bft)
25.09.2019 02:17 10,9 °C 94 % 1009,5 hPa 0,0 mm 0,0 km/h (0 Bft) SW 227 ° 0 min 0,000 mm 0,0 UV-I 0 W/m² 10,0 °C 10,9 °C 0,0 km/h (0 Bft)
25.09.2019 02:18 10,9 °C 94 % 1009,4 hPa 0,0 mm 0,0 km/h (0 Bft) SW 227 ° 0 min 0,000 mm 0,0 UV-I 0 W/m² 10,0 °C 10,9 °C 0,0 km/h (0 Bft)
25.09.2019 02:19 10,9 °C 94 % 1009,4 hPa 0,0 mm 0,0 km/h (0 Bft) SW 227 ° 0 min 0,000 mm 0,0 UV-I 0 W/m² 10,0 °C 10,9 °C 0,0 km/h (0 Bft)
25.09.2019 02:20 10,9 °C 94 % 1009,4 hPa 0,0 mm 0,0 km/h (0 Bft) SW 227 ° 0 min 0,000 mm 0,0 UV-I 0 W/m² 10,0 °C 10,9 °C 0,0 km/h (0 Bft)
25.09.2019 02:21 10,9 °C 94 % 1009,3 hPa 0,0 mm 0,0 km/h (0 Bft) SW 227 ° 0 min 0,000 mm 0,0 UV-I 0 W/m² 10,0 °C 10,9 °C 0,0 km/h (0 Bft)
25.09.2019 02:22 10,9 °C 94 % 1009,4 hPa 0,0 mm 0,0 km/h (0 Bft) SW 227 ° 0 min 0,000 mm 0,0 UV-I 0 W/m² 10,0 °C 10,9 °C 0,0 km/h (0 Bft)
25.09.2019 02:23 10,9 °C 94 % 1009,4 hPa 0,0 mm 0,0 km/h (0 Bft) SW 227 ° 0 min 0,000 mm 0,0 UV-I 0 W/m² 10,0 °C 10,9 °C 0,0 km/h (0 Bft)
25.09.2019 02:24 10,9 °C 94 % 1009,3 hPa 0,0 mm 0,0 km/h (0 Bft) SW 227 ° 0 min 0,000 mm 0,0 UV-I 0 W/m² 10,0 °C 10,9 °C 0,0 km/h (0 Bft)
25.09.2019 02:25 10,9 °C 94 % 1009,3 hPa 0,0 mm 0,0 km/h (0 Bft) SW 227 ° 0 min 0,000 mm 0,0 UV-I 0 W/m² 10,0 °C 10,9 °C 0,0 km/h (0 Bft)
25.09.2019 02:26 10,9 °C 94 % 1009,3 hPa 0,0 mm 0,0 km/h (0 Bft) SW 227 ° 0 min 0,000 mm 0,0 UV-I 0 W/m² 10,0 °C 10,9 °C 0,0 km/h (0 Bft)
25.09.2019 02:27 10,9 °C 94 % 1009,3 hPa 0,2 mm 0,0 km/h (0 Bft) SW 227 ° 0 min 0,000 mm 0,0 UV-I 0 W/m² 10,0 °C 10,9 °C 0,0 km/h (0 Bft)
25.09.2019 02:28 10,9 °C 94 % 1009,3 hPa 0,0 mm 0,0 km/h (0 Bft) SW 227 ° 0 min 0,000 mm 0,0 UV-I 0 W/m² 10,0 °C 10,9 °C 0,0 km/h (0 Bft)
25.09.2019 02:29 10,8 °C 94 % 1009,3 hPa 0,0 mm 0,0 km/h (0 Bft) SW 227 ° 0 min 0,000 mm 0,0 UV-I 0 W/m² 9,9 °C 10,8 °C 0,0 km/h (0 Bft)
25.09.2019 02:30 10,8 °C 94 % 1009,3 hPa 0,0 mm 0,0 km/h (0 Bft) SW 227 ° 0 min 0,000 mm 0,0 UV-I 0 W/m² 9,9 °C 10,8 °C 0,0 km/h (0 Bft)
25.09.2019 02:31 10,8 °C 94 % 1009,4 hPa 0,0 mm 0,0 km/h (0 Bft) SW 227 ° 0 min 0,000 mm 0,0 UV-I 0 W/m² 9,9 °C 10,8 °C 0,0 km/h (0 Bft)
25.09.2019 02:32 10,8 °C 94 % 1009,4 hPa 0,0 mm 0,0 km/h (0 Bft) SW 227 ° 0 min 0,000 mm 0,0 UV-I 0 W/m² 9,9 °C 10,8 °C 0,0 km/h (0 Bft)
25.09.2019 02:33 10,8 °C 94 % 1009,3 hPa 0,0 mm 0,0 km/h (0 Bft) SW 227 ° 0 min 0,000 mm 0,0 UV-I 0 W/m² 9,9 °C 10,8 °C 0,0 km/h (0 Bft)
25.09.2019 02:34 10,8 °C 94 % 1009,3 hPa 0,0 mm 0,0 km/h (0 Bft) SW 227 ° 0 min 0,000 mm 0,0 UV-I 0 W/m² 9,9 °C 10,8 °C 0,0 km/h (0 Bft)
25.09.2019 02:35 10,8 °C 94 % 1009,3 hPa 0,0 mm 0,0 km/h (0 Bft) SW 227 ° 0 min 0,000 mm 0,0 UV-I 0 W/m² 9,9 °C 10,8 °C 0,0 km/h (0 Bft)
25.09.2019 02:36 10,7 °C 94 % 1009,3 hPa 0,0 mm 0,0 km/h (0 Bft) SW 227 ° 0 min 0,000 mm 0,0 UV-I 0 W/m² 9,8 °C 10,7 °C 0,0 km/h (0 Bft)
25.09.2019 02:37 10,7 °C 94 % 1009,3 hPa 0,0 mm 0,0 km/h (0 Bft) SW 227 ° 0 min 0,000 mm 0,0 UV-I 0 W/m² 9,8 °C 10,7 °C 0,0 km/h (0 Bft)
25.09.2019 02:38 10,7 °C 94 % 1009,3 hPa 0,0 mm 0,0 km/h (0 Bft) SW 227 ° 0 min 0,000 mm 0,0 UV-I 0 W/m² 9,8 °C 10,7 °C 0,0 km/h (0 Bft)
25.09.2019 02:39 10,7 °C 94 % 1009,3 hPa 0,0 mm 0,0 km/h (0 Bft) SW 227 ° 0 min 0,000 mm 0,0 UV-I 0 W/m² 9,8 °C 10,7 °C 0,0 km/h (0 Bft)
25.09.2019 02:40 10,6 °C 94 % 1009,3 hPa 0,0 mm 0,0 km/h (0 Bft) SW 227 ° 0 min 0,000 mm 0,0 UV-I 0 W/m² 9,7 °C 10,6 °C 0,0 km/h (0 Bft)
25.09.2019 02:41 10,6 °C 94 % 1009,3 hPa 0,0 mm 0,0 km/h (0 Bft) SW 227 ° 0 min 0,000 mm 0,0 UV-I 0 W/m² 9,7 °C 10,6 °C 0,0 km/h (0 Bft)
25.09.2019 02:42 10,6 °C 94 % 1009,3 hPa 0,0 mm 0,0 km/h (0 Bft) SW 227 ° 0 min 0,000 mm 0,0 UV-I 0 W/m² 9,7 °C 10,6 °C 0,0 km/h (0 Bft)
25.09.2019 02:43 10,6 °C 94 % 1009,3 hPa 0,0 mm 0,0 km/h (0 Bft) SW 227 ° 0 min 0,000 mm 0,0 UV-I 0 W/m² 9,7 °C 10,6 °C 0,0 km/h (0 Bft)
25.09.2019 02:44 10,6 °C 94 % 1009,3 hPa 0,0 mm 0,0 km/h (0 Bft) SW 227 ° 0 min 0,000 mm 0,0 UV-I 0 W/m² 9,7 °C 10,6 °C 0,0 km/h (0 Bft)
25.09.2019 02:45 10,6 °C 94 % 1009,3 hPa 0,0 mm 0,0 km/h (0 Bft) SW 227 ° 0 min 0,000 mm 0,0 UV-I 0 W/m² 9,7 °C 10,6 °C 0,0 km/h (0 Bft)
25.09.2019 02:46 10,6 °C 94 % 1009,2 hPa 0,0 mm 0,0 km/h (0 Bft) SW 227 ° 0 min 0,000 mm 0,0 UV-I 0 W/m² 9,7 °C 10,6 °C 0,0 km/h (0 Bft)
25.09.2019 02:47 10,6 °C 94 % 1009,2 hPa 0,2 mm 0,0 km/h (0 Bft) SW 227 ° 0 min 0,000 mm 0,0 UV-I 0 W/m² 9,7 °C 10,6 °C 0,0 km/h (0 Bft)
25.09.2019 02:48 10,6 °C 94 % 1009,2 hPa 0,0 mm 0,0 km/h (0 Bft) SW 227 ° 0 min 0,000 mm 0,0 UV-I 0 W/m² 9,7 °C 10,6 °C 0,0 km/h (0 Bft)
25.09.2019 02:49 10,6 °C 94 % 1009,2 hPa 0,0 mm 0,0 km/h (0 Bft) SW 227 ° 0 min 0,000 mm 0,0 UV-I 0 W/m² 9,7 °C 10,6 °C 0,0 km/h (0 Bft)
25.09.2019 02:50 10,6 °C 94 % 1009,2 hPa 0,0 mm 0,0 km/h (0 Bft) SW 227 ° 0 min 0,000 mm 0,0 UV-I 0 W/m² 9,7 °C 10,6 °C 0,0 km/h (0 Bft)
25.09.2019 02:51 10,6 °C 94 % 1009,2 hPa 0,0 mm 0,0 km/h (0 Bft) SW 227 ° 0 min 0,000 mm 0,0 UV-I 0 W/m² 9,7 °C 10,6 °C 0,0 km/h (0 Bft)
25.09.2019 02:52 10,6 °C 94 % 1009,3 hPa 0,0 mm 0,0 km/h (0 Bft) SW 227 ° 0 min 0,000 mm 0,0 UV-I 0 W/m² 9,7 °C 10,6 °C 0,0 km/h (0 Bft)
25.09.2019 02:53 10,6 °C 94 % 1009,2 hPa 0,0 mm 0,0 km/h (0 Bft) SW 227 ° 0 min 0,000 mm 0,0 UV-I 0 W/m² 9,7 °C 10,6 °C 0,0 km/h (0 Bft)
25.09.2019 02:54 10,6 °C 94 % 1009,3 hPa 0,0 mm 0,0 km/h (0 Bft) SW 227 ° 0 min 0,000 mm 0,0 UV-I 0 W/m² 9,7 °C 10,6 °C 0,0 km/h (0 Bft)
25.09.2019 02:55 10,5 °C 94 % 1009,2 hPa 0,0 mm 0,0 km/h (0 Bft) SW 227 ° 0 min 0,000 mm 0,0 UV-I 0 W/m² 9,6 °C 10,5 °C 0,0 km/h (0 Bft)
25.09.2019 02:56 10,5 °C 94 % 1009,3 hPa 0,0 mm 0,0 km/h (0 Bft) SW 227 ° 0 min 0,000 mm 0,0 UV-I 0 W/m² 9,6 °C 10,5 °C 0,0 km/h (0 Bft)
25.09.2019 02:57 10,5 °C 94 % 1009,3 hPa 0,0 mm 0,0 km/h (0 Bft) SW 227 ° 0 min 0,000 mm 0,0 UV-I 0 W/m² 9,6 °C 10,5 °C 0,0 km/h (0 Bft)
25.09.2019 02:58 10,4 °C 94 % 1009,2 hPa 0,0 mm 0,0 km/h (0 Bft) SW 227 ° 0 min 0,000 mm 0,0 UV-I 0 W/m² 9,5 °C 10,4 °C 0,0 km/h (0 Bft)
25.09.2019 02:59 10,4 °C 94 % 1009,2 hPa 0,0 mm 0,0 km/h (0 Bft) SW 227 ° 0 min 0,000 mm 0,0 UV-I 0 W/m² 9,5 °C 10,4 °C 0,0 km/h (0 Bft)
25.09.2019 03:00 10,4 °C 94 % 1009,3 hPa 0,0 mm 0,0 km/h (0 Bft) SW 227 ° 0 min 0,000 mm 0,0 UV-I 0 W/m² 9,5 °C 10,4 °C 0,0 km/h (0 Bft)
25.09.2019 03:01 10,4 °C 95 % 1009,3 hPa 0,0 mm 0,0 km/h (0 Bft) SW 227 ° 0 min 0,000 mm 0,0 UV-I 0 W/m² 9,6 °C 10,4 °C 0,0 km/h (0 Bft)
25.09.2019 03:02 10,4 °C 94 % 1009,3 hPa 0,0 mm 0,0 km/h (0 Bft) SW 227 ° 0 min 0,000 mm 0,0 UV-I 0 W/m² 9,5 °C 10,4 °C 0,0 km/h (0 Bft)
25.09.2019 03:03 10,5 °C 95 % 1009,2 hPa 0,0 mm 0,0 km/h (0 Bft) SW 227 ° 0 min 0,000 mm 0,0 UV-I 0 W/m² 9,7 °C 10,5 °C 0,0 km/h (0 Bft)
25.09.2019 03:04 10,5 °C 95 % 1009,2 hPa 0,0 mm 0,0 km/h (0 Bft) SW 227 ° 0 min 0,000 mm 0,0 UV-I 0 W/m² 9,7 °C 10,5 °C 0,0 km/h (0 Bft)
25.09.2019 03:05 10,5 °C 95 % 1009,3 hPa 0,0 mm 0,0 km/h (0 Bft) SW 227 ° 0 min 0,000 mm 0,0 UV-I 0 W/m² 9,7 °C 10,5 °C 0,0 km/h (0 Bft)
25.09.2019 03:06 10,6 °C 95 % 1009,3 hPa 0,2 mm 0,0 km/h (0 Bft) SW 227 ° 0 min 0,000 mm 0,0 UV-I 0 W/m² 9,8 °C 10,6 °C 0,0 km/h (0 Bft)
25.09.2019 03:07 10,6 °C 95 % 1009,3 hPa 0,0 mm 0,0 km/h (0 Bft) SW 227 ° 0 min 0,000 mm 0,0 UV-I 0 W/m² 9,8 °C 10,6 °C 0,0 km/h (0 Bft)
25.09.2019 03:08 10,6 °C 95 % 1009,4 hPa 0,0 mm 0,0 km/h (0 Bft) SW 227 ° 0 min 0,000 mm 0,0 UV-I 0 W/m² 9,8 °C 10,6 °C 0,0 km/h (0 Bft)
25.09.2019 03:09 10,5 °C 94 % 1009,4 hPa 0,0 mm 0,0 km/h (0 Bft) SW 227 ° 0 min 0,000 mm 0,0 UV-I 0 W/m² 9,6 °C 10,5 °C 0,0 km/h (0 Bft)
25.09.2019 03:10 10,5 °C 94 % 1009,4 hPa 0,0 mm 0,0 km/h (0 Bft) SW 227 ° 0 min 0,000 mm 0,0 UV-I 0 W/m² 9,6 °C 10,5 °C 0,0 km/h (0 Bft)
25.09.2019 03:11 10,5 °C 95 % 1009,5 hPa 0,0 mm 0,0 km/h (0 Bft) SW 227 ° 0 min 0,000 mm 0,0 UV-I 0 W/m² 9,7 °C 10,5 °C 0,0 km/h (0 Bft)
25.09.2019 03:12 10,6 °C 95 % 1009,5 hPa 0,0 mm 0,0 km/h (0 Bft) SW 227 ° 0 min 0,000 mm 0,0 UV-I 0 W/m² 9,8 °C 10,6 °C 0,0 km/h (0 Bft)
25.09.2019 03:13 10,6 °C 95 % 1009,4 hPa 0,0 mm 0,0 km/h (0 Bft) SW 227 ° 0 min 0,000 mm 0,0 UV-I 0 W/m² 9,8 °C 10,6 °C 0,0 km/h (0 Bft)
25.09.2019 03:14 10,6 °C 95 % 1009,4 hPa 0,0 mm 2,0 km/h (1 Bft) W 272 ° 0 min 0,000 mm 0,0 UV-I 0 W/m² 9,8 °C 10,6 °C 6,4 km/h (2 Bft)
25.09.2019 03:15 10,6 °C 95 % 1009,5 hPa 0,0 mm 3,6 km/h (1 Bft) W 281 ° 0 min 0,000 mm 0,0 UV-I 0 W/m² 9,8 °C 10,6 °C 6,4 km/h (2 Bft)
25.09.2019 03:16 10,7 °C 95 % 1009,5 hPa 0,0 mm 3,8 km/h (1 Bft) S-SW 207 ° 0 min 0,000 mm 0,0 UV-I 0 W/m² 9,9 °C 10,7 °C 4,8 km/h (1 Bft)
25.09.2019 03:17 10,8 °C 95 % 1009,5 hPa 0,0 mm 2,1 km/h (1 Bft) S-SW 207 ° 0 min 0,000 mm 0,0 UV-I 0 W/m² 10,0 °C 10,8 °C 4,8 km/h (1 Bft)
25.09.2019 03:18 10,8 °C 95 % 1009,5 hPa 0,0 mm 0,0 km/h (0 Bft) S-SW 207 ° 0 min 0,000 mm 0,0 UV-I 0 W/m² 10,0 °C 10,8 °C 0,0 km/h (0 Bft)
25.09.2019 03:19 10,9 °C 95 % 1009,5 hPa 0,0 mm 3,1 km/h (1 Bft) W-SW 251 ° 0 min 0,000 mm 0,0 UV-I 0 W/m² 10,1 °C 10,9 °C 14,5 km/h (3 Bft)
25.09.2019 03:20 11,0 °C 95 % 1009,5 hPa 0,0 mm 9,5 km/h (2 Bft) W 259 ° 0 min 0,000 mm 0,0 UV-I 0 W/m² 10,2 °C 11,0 °C 12,9 km/h (3 Bft)
25.09.2019 03:21 11,1 °C 95 % 1009,5 hPa 0,0 mm 4,8 km/h (1 Bft) W-SW 247 ° 0 min 0,000 mm 0,0 UV-I 0 W/m² 10,3 °C 11,1 °C 9,7 km/h (2 Bft)
25.09.2019 03:22 11,1 °C 95 % 1009,5 hPa 0,0 mm 7,0 km/h (2 Bft) W 267 ° 0 min 0,000 mm 0,0 UV-I 0 W/m² 10,3 °C 11,1 °C 14,5 km/h (3 Bft)
25.09.2019 03:23 11,2 °C 95 % 1009,5 hPa 0,0 mm 2,9 km/h (1 Bft) W-SW 243 ° 0 min 0,000 mm 0,0 UV-I 0 W/m² 10,4 °C 11,2 °C 4,8 km/h (1 Bft)
25.09.2019 03:24 11,2 °C 95 % 1009,5 hPa 0,0 mm 3,6 km/h (1 Bft) SW 234 ° 0 min 0,000 mm 0,0 UV-I 0 W/m² 10,4 °C 11,2 °C 8,0 km/h (2 Bft)
25.09.2019 03:25 11,3 °C 95 % 1009,5 hPa 0,0 mm 6,3 km/h (2 Bft) S 186 ° 0 min 0,000 mm 0,0 UV-I 0 W/m² 10,5 °C 11,3 °C 12,9 km/h (3 Bft)
25.09.2019 03:26 11,3 °C 95 % 1009,5 hPa 0,0 mm 2,8 km/h (1 Bft) W 271 ° 0 min 0,000 mm 0,0 UV-I 0 W/m² 10,5 °C 11,3 °C 6,4 km/h (2 Bft)
25.09.2019 03:27 11,3 °C 95 % 1009,5 hPa 0,0 mm 0,8 km/h (0 Bft) W 271 ° 0 min 0,000 mm 0,0 UV-I 0 W/m² 10,5 °C 11,3 °C 3,2 km/h (1 Bft)
25.09.2019 03:28 11,4 °C 95 % 1009,5 hPa 0,0 mm 2,5 km/h (1 Bft) SW 229 ° 0 min 0,000 mm 0,0 UV-I 0 W/m² 10,6 °C 11,4 °C 9,7 km/h (2 Bft)
25.09.2019 03:29 11,5 °C 95 % 1009,4 hPa 0,0 mm 4,3 km/h (1 Bft) SW 223 ° 0 min 0,000 mm 0,0 UV-I 0 W/m² 10,7 °C 11,5 °C 12,9 km/h (3 Bft)
25.09.2019 03:30 11,5 °C 95 % 1009,4 hPa 0,0 mm 5,0 km/h (1 Bft) SW 215 ° 0 min 0,000 mm 0,0 UV-I 0 W/m² 10,7 °C 11,5 °C 9,7 km/h (2 Bft)
25.09.2019 03:31 11,6 °C 95 % 1009,4 hPa 0,0 mm 4,0 km/h (1 Bft) W-SW 239 ° 0 min 0,000 mm 0,0 UV-I 0 W/m² 10,8 °C 11,6 °C 6,4 km/h (2 Bft)
25.09.2019 03:32 11,6 °C 95 % 1009,4 hPa 0,0 mm 7,8 km/h (2 Bft) W 266 ° 0 min 0,000 mm 0,0 UV-I 0 W/m² 10,8 °C 11,6 °C 12,9 km/h (3 Bft)
25.09.2019 03:33 11,6 °C 95 % 1009,4 hPa 0,0 mm 6,5 km/h (2 Bft) W-SW 247 ° 0 min 0,000 mm 0,0 UV-I 0 W/m² 10,8 °C 11,6 °C 12,9 km/h (3 Bft)
25.09.2019 03:34 11,7 °C 94 % 1009,4 hPa 0,0 mm 8,2 km/h (2 Bft) W-NW 292 ° 0 min 0,000 mm 0,0 UV-I 0 W/m² 10,8 °C 11,7 °C 14,5 km/h (3 Bft)
25.09.2019 03:35 11,7 °C 95 % 1009,4 hPa 0,2 mm 9,1 km/h (2 Bft) W 279 ° 0 min 0,000 mm 0,0 UV-I 0 W/m² 10,9 °C 11,7 °C 14,5 km/h (3 Bft)
25.09.2019 03:36 11,7 °C 95 % 1009,4 hPa 0,0 mm 8,6 km/h (2 Bft) W 260 ° 0 min 0,000 mm 0,0 UV-I 0 W/m² 10,9 °C 11,7 °C 12,9 km/h (3 Bft)
25.09.2019 03:37 11,7 °C 94 % 1009,4 hPa 0,0 mm 10,1 km/h (2 Bft) W 279 ° 0 min 0,000 mm 0,0 UV-I 0 W/m² 10,8 °C 11,7 °C 14,5 km/h (3 Bft)
25.09.2019 03:38 11,7 °C 94 % 1009,4 hPa 0,0 mm 10,9 km/h (2 Bft) W-SW 246 ° 0 min 0,000 mm 0,0 UV-I 0 W/m² 10,8 °C 11,7 °C 16,1 km/h (3 Bft)
25.09.2019 03:39 11,8 °C 94 % 1009,4 hPa 0,0 mm 10,9 km/h (2 Bft) W 265 ° 0 min 0,000 mm 0,0 UV-I 0 W/m² 10,9 °C 11,8 °C 16,1 km/h (3 Bft)
25.09.2019 03:40 11,8 °C 94 % 1009,5 hPa 0,0 mm 10,5 km/h (2 Bft) W-SW 245 ° 0 min 0,000 mm 0,0 UV-I 0 W/m² 10,9 °C 11,8 °C 19,3 km/h (3 Bft)
25.09.2019 03:41 11,8 °C 94 % 1009,5 hPa 0,0 mm 3,9 km/h (1 Bft) W-SW 250 ° 0 min 0,000 mm 0,0 UV-I 0 W/m² 10,9 °C 11,8 °C 11,3 km/h (2 Bft)
25.09.2019 03:42 11,8 °C 94 % 1009,5 hPa 0,0 mm 10,2 km/h (2 Bft) SW 221 ° 0 min 0,000 mm 0,0 UV-I 0 W/m² 10,9 °C 11,8 °C 16,1 km/h (3 Bft)
25.09.2019 03:43 11,8 °C 94 % 1009,5 hPa 0,0 mm 8,0 km/h (2 Bft) W-SW 257 ° 0 min 0,000 mm 0,0 UV-I 0 W/m² 10,9 °C 11,8 °C 14,5 km/h (3 Bft)
25.09.2019 03:44 11,8 °C 94 % 1009,5 hPa 0,0 mm 7,2 km/h (2 Bft) SW 223 ° 0 min 0,000 mm 0,0 UV-I 0 W/m² 10,9 °C 11,8 °C 11,3 km/h (2 Bft)
25.09.2019 03:45 11,9 °C 94 % 1009,5 hPa 0,0 mm 5,5 km/h (1 Bft) W 259 ° 0 min 0,000 mm 0,0 UV-I 0 W/m² 11,0 °C 11,9 °C 9,7 km/h (2 Bft)
25.09.2019 03:46 11,9 °C 94 % 1009,5 hPa 0,0 mm 5,3 km/h (1 Bft) W-SW 238 ° 0 min 0,000 mm 0,0 UV-I 0 W/m² 11,0 °C 11,9 °C 9,7 km/h (2 Bft)
25.09.2019 03:47 11,9 °C 94 % 1009,4 hPa 0,0 mm 6,0 km/h (2 Bft) W 272 ° 0 min 0,000 mm 0,0 UV-I 0 W/m² 11,0 °C 11,9 °C 11,3 km/h (2 Bft)
25.09.2019 03:48 11,9 °C 94 % 1009,4 hPa 0,0 mm 7,1 km/h (2 Bft) W-SW 241 ° 0 min 0,000 mm 0,0 UV-I 0 W/m² 11,0 °C 11,9 °C 12,9 km/h (3 Bft)
25.09.2019 03:49 11,9 °C 94 % 1009,4 hPa 0,0 mm 5,9 km/h (2 Bft) SW 221 ° 0 min 0,000 mm 0,0 UV-I 0 W/m² 11,0 °C 11,9 °C 11,3 km/h (2 Bft)
25.09.2019 03:50 12,0 °C 94 % 1009,4 hPa 0,0 mm 11,3 km/h (2 Bft) W-SW 252 ° 0 min 0,000 mm 0,0 UV-I 0 W/m² 11,1 °C 12,0 °C 19,3 km/h (3 Bft)
25.09.2019 03:51 12,1 °C 94 % 1009,3 hPa 0,0 mm 7,4 km/h (2 Bft) W 278 ° 0 min 0,000 mm 0,0 UV-I 0 W/m² 11,2 °C 12,1 °C 11,3 km/h (2 Bft)
25.09.2019 03:52 12,1 °C 93 % 1009,4 hPa 0,0 mm 6,4 km/h (2 Bft) W-NW 295 ° 0 min 0,000 mm 0,0 UV-I 0 W/m² 11,0 °C 12,1 °C 11,3 km/h (2 Bft)
25.09.2019 03:53 12,1 °C 93 % 1009,4 hPa 0,0 mm 6,2 km/h (2 Bft) W 273 ° 0 min 0,000 mm 0,0 UV-I 0 W/m² 11,0 °C 12,1 °C 9,7 km/h (2 Bft)
25.09.2019 03:54 12,1 °C 93 % 1009,4 hPa 0,0 mm 6,8 km/h (2 Bft) W 268 ° 0 min 0,000 mm 0,0 UV-I 0 W/m² 11,0 °C 12,1 °C 9,7 km/h (2 Bft)
25.09.2019 03:55 12,1 °C 93 % 1009,4 hPa 0,0 mm 10,7 km/h (2 Bft) W 273 ° 0 min 0,000 mm 0,0 UV-I 0 W/m² 11,0 °C 12,1 °C 17,7 km/h (3 Bft)
25.09.2019 03:56 12,1 °C 93 % 1009,4 hPa 0,0 mm 10,0 km/h (2 Bft) W 267 ° 0 min 0,000 mm 0,0 UV-I 0 W/m² 11,0 °C 12,1 °C 14,5 km/h (3 Bft)
25.09.2019 03:57 12,1 °C 93 % 1009,4 hPa 0,0 mm 6,1 km/h (2 Bft) W-NW 296 ° 0 min 0,000 mm 0,0 UV-I 0 W/m² 11,0 °C 12,1 °C 8,0 km/h (2 Bft)
25.09.2019 03:58 12,1 °C 93 % 1009,5 hPa 0,0 mm 10,0 km/h (2 Bft) W-SW 253 ° 0 min 0,000 mm 0,0 UV-I 0 W/m² 11,0 °C 12,1 °C 14,5 km/h (3 Bft)
25.09.2019 03:59 12,1 °C 93 % 1009,5 hPa 0,0 mm 8,6 km/h (2 Bft) W 269 ° 0 min 0,000 mm 0,0 UV-I 0 W/m² 11,0 °C 12,1 °C 11,3 km/h (2 Bft)
25.09.2019 04:00 12,1 °C 93 % 1009,5 hPa 0,0 mm 10,6 km/h (2 Bft) W-SW 258 ° 0 min 0,000 mm 0,0 UV-I 0 W/m² 11,0 °C 12,1 °C 16,1 km/h (3 Bft)
25.09.2019 04:01 12,1 °C 93 % 1009,5 hPa 0,0 mm 6,9 km/h (2 Bft) W 274 ° 0 min 0,000 mm 0,0 UV-I 0 W/m² 11,0 °C 12,1 °C 9,7 km/h (2 Bft)
25.09.2019 04:02 12,1 °C 93 % 1009,5 hPa 0,2 mm 8,9 km/h (2 Bft) W-SW 247 ° 0 min 0,000 mm 0,0 UV-I 0 W/m² 11,0 °C 12,1 °C 12,9 km/h (3 Bft)
25.09.2019 04:03 12,1 °C 93 % 1009,5 hPa 0,0 mm 4,2 km/h (1 Bft) W-NW 294 ° 0 min 0,000 mm 0,0 UV-I 0 W/m² 11,0 °C 12,1 °C 6,4 km/h (2 Bft)
25.09.2019 04:04 12,1 °C 93 % 1009,5 hPa 0,0 mm 8,7 km/h (2 Bft) W-SW 257 ° 0 min 0,000 mm 0,0 UV-I 0 W/m² 11,0 °C 12,1 °C 16,1 km/h (3 Bft)
25.09.2019 04:05 12,1 °C 92 % 1009,5 hPa 0,0 mm 5,0 km/h (1 Bft) W-SW 257 ° 0 min 0,000 mm 0,0 UV-I 0 W/m² 10,8 °C 12,1 °C 11,3 km/h (2 Bft)
25.09.2019 04:06 12,1 °C 92 % 1009,5 hPa 0,0 mm 9,3 km/h (2 Bft) W-SW 238 ° 0 min 0,000 mm 0,0 UV-I 0 W/m² 10,8 °C 12,1 °C 14,5 km/h (3 Bft)
25.09.2019 04:07 12,1 °C 92 % 1009,5 hPa 0,0 mm 6,2 km/h (2 Bft) W 264 ° 0 min 0,000 mm 0,0 UV-I 0 W/m² 10,8 °C 12,1 °C 11,3 km/h (2 Bft)
25.09.2019 04:08 12,1 °C 92 % 1009,5 hPa 0,0 mm 5,5 km/h (1 Bft) SW 222 ° 0 min 0,000 mm 0,0 UV-I 0 W/m² 10,8 °C 12,1 °C 8,0 km/h (2 Bft)
25.09.2019 04:09 12,1 °C 92 % 1009,5 hPa 0,0 mm 5,8 km/h (2 Bft) W 265 ° 0 min 0,000 mm 0,0 UV-I 0 W/m² 10,8 °C 12,1 °C 9,7 km/h (2 Bft)
25.09.2019 04:10 12,0 °C 92 % 1009,5 hPa 0,0 mm 7,4 km/h (2 Bft) W-NW 298 ° 0 min 0,000 mm 0,0 UV-I 0 W/m² 10,7 °C 12,0 °C 9,7 km/h (2 Bft)
25.09.2019 04:11 11,9 °C 92 % 1009,5 hPa 0,0 mm 5,8 km/h (2 Bft) W 261 ° 0 min 0,000 mm 0,0 UV-I 0 W/m² 10,6 °C 11,9 °C 11,3 km/h (2 Bft)
25.09.2019 04:12 11,9 °C 92 % 1009,4 hPa 0,0 mm 5,9 km/h (2 Bft) W 267 ° 0 min 0,000 mm 0,0 UV-I 0 W/m² 10,6 °C 11,9 °C 14,5 km/h (3 Bft)
25.09.2019 04:13 11,9 °C 92 % 1009,5 hPa 0,0 mm 8,3 km/h (2 Bft) W 265 ° 0 min 0,000 mm 0,0 UV-I 0 W/m² 10,6 °C 11,9 °C 12,9 km/h (3 Bft)
25.09.2019 04:14 11,9 °C 92 % 1009,5 hPa 0,0 mm 4,1 km/h (1 Bft) S 191 ° 0 min 0,000 mm 0,0 UV-I 0 W/m² 10,6 °C 11,9 °C 9,7 km/h (2 Bft)
25.09.2019 04:15 11,9 °C 92 % 1009,5 hPa 0,0 mm 5,7 km/h (1 Bft) SW 224 ° 0 min 0,000 mm 0,0 UV-I 0 W/m² 10,6 °C 11,9 °C 9,7 km/h (2 Bft)
25.09.2019 04:16 11,9 °C 92 % 1009,5 hPa 0,0 mm 5,4 km/h (1 Bft) W 264 ° 0 min 0,000 mm 0,0 UV-I 0 W/m² 10,6 °C 11,9 °C 8,0 km/h (2 Bft)
25.09.2019 04:17 11,8 °C 92 % 1009,5 hPa 0,0 mm 5,5 km/h (1 Bft) W 265 ° 0 min 0,000 mm 0,0 UV-I 0 W/m² 10,5 °C 11,8 °C 9,7 km/h (2 Bft)
25.09.2019 04:18 11,8 °C 92 % 1009,5 hPa 0,0 mm 4,0 km/h (1 Bft) NW 315 ° 0 min 0,000 mm 0,0 UV-I 0 W/m² 10,5 °C 11,8 °C 4,8 km/h (1 Bft)
25.09.2019 04:19 11,8 °C 92 % 1009,5 hPa 0,0 mm 3,8 km/h (1 Bft) W 265 ° 0 min 0,000 mm 0,0 UV-I 0 W/m² 10,5 °C 11,8 °C 4,8 km/h (1 Bft)
25.09.2019 04:20 11,8 °C 92 % 1009,5 hPa 0,0 mm 4,6 km/h (1 Bft) W-SW 254 ° 0 min 0,000 mm 0,0 UV-I 0 W/m² 10,5 °C 11,8 °C 6,4 km/h (2 Bft)
25.09.2019 04:21 11,8 °C 92 % 1009,5 hPa 0,0 mm 2,2 km/h (1 Bft) W-SW 254 ° 0 min 0,000 mm 0,0 UV-I 0 W/m² 10,5 °C 11,8 °C 4,8 km/h (1 Bft)
25.09.2019 04:22 11,7 °C 92 % 1009,5 hPa 0,0 mm 3,4 km/h (1 Bft) W 281 ° 0 min 0,000 mm 0,0 UV-I 0 W/m² 10,4 °C 11,7 °C 6,4 km/h (2 Bft)
25.09.2019 04:23 11,7 °C 92 % 1009,5 hPa 0,0 mm 4,3 km/h (1 Bft) W-SW 247 ° 0 min 0,000 mm 0,0 UV-I 0 W/m² 10,4 °C 11,7 °C 4,8 km/h (1 Bft)
25.09.2019 04:24 11,7 °C 92 % 1009,4 hPa 0,0 mm 5,7 km/h (1 Bft) W 275 ° 0 min 0,000 mm 0,0 UV-I 0 W/m² 10,4 °C 11,7 °C 12,9 km/h (3 Bft)
25.09.2019 04:25 11,7 °C 92 % 1009,4 hPa 0,0 mm 5,9 km/h (2 Bft) W 277 ° 0 min 0,000 mm 0,0 UV-I 0 W/m² 10,4 °C 11,7 °C 9,7 km/h (2 Bft)
25.09.2019 04:26 11,7 °C 92 % 1009,4 hPa 0,0 mm 9,1 km/h (2 Bft) W-NW 294 ° 0 min 0,000 mm 0,0 UV-I 0 W/m² 10,4 °C 11,7 °C 17,7 km/h (3 Bft)
25.09.2019 04:27 11,7 °C 92 % 1009,4 hPa 0,0 mm 7,5 km/h (2 Bft) W 275 ° 0 min 0,000 mm 0,0 UV-I 0 W/m² 10,4 °C 11,7 °C 11,3 km/h (2 Bft)
25.09.2019 04:28 11,7 °C 92 % 1009,4 hPa 0,2 mm 4,4 km/h (1 Bft) W 267 ° 0 min 0,000 mm 0,0 UV-I 0 W/m² 10,4 °C 11,7 °C 6,4 km/h (2 Bft)
25.09.2019 04:29 11,6 °C 92 % 1009,4 hPa 0,0 mm 3,1 km/h (1 Bft) W-NW 282 ° 0 min 0,000 mm 0,0 UV-I 0 W/m² 10,3 °C 11,6 °C 6,4 km/h (2 Bft)
25.09.2019 04:30 11,7 °C 92 % 1009,4 hPa 0,0 mm 7,7 km/h (2 Bft) W 274 ° 0 min 0,000 mm 0,0 UV-I 0 W/m² 10,4 °C 11,7 °C 14,5 km/h (3 Bft)
25.09.2019 04:31 11,7 °C 92 % 1009,4 hPa 0,0 mm 10,3 km/h (2 Bft) W-SW 252 ° 0 min 0,000 mm 0,0 UV-I 0 W/m² 10,4 °C 11,7 °C 14,5 km/h (3 Bft)
25.09.2019 04:32 11,7 °C 92 % 1009,4 hPa 0,0 mm 7,0 km/h (2 Bft) W 277 ° 0 min 0,000 mm 0,0 UV-I 0 W/m² 10,4 °C 11,7 °C 11,3 km/h (2 Bft)
25.09.2019 04:33 11,7 °C 92 % 1009,4 hPa 0,0 mm 4,0 km/h (1 Bft) W 260 ° 0 min 0,000 mm 0,0 UV-I 0 W/m² 10,4 °C 11,7 °C 4,8 km/h (1 Bft)
25.09.2019 04:34 11,7 °C 92 % 1009,4 hPa 0,0 mm 9,8 km/h (2 Bft) W-SW 257 ° 0 min 0,000 mm 0,0 UV-I 0 W/m² 10,4 °C 11,7 °C 14,5 km/h (3 Bft)
25.09.2019 04:35 11,7 °C 92 % 1009,4 hPa 0,0 mm 7,2 km/h (2 Bft) W 262 ° 0 min 0,000 mm 0,0 UV-I 0 W/m² 10,4 °C 11,7 °C 11,3 km/h (2 Bft)
25.09.2019 04:36 11,7 °C 92 % 1009,4 hPa 0,0 mm 8,6 km/h (2 Bft) W-SW 245 ° 0 min 0,000 mm 0,0 UV-I 0 W/m² 10,4 °C 11,7 °C 16,1 km/h (3 Bft)
25.09.2019 04:37 11,7 °C 92 % 1009,4 hPa 0,0 mm 10,7 km/h (2 Bft) W-SW 255 ° 0 min 0,000 mm 0,0 UV-I 0 W/m² 10,4 °C 11,7 °C 22,5 km/h (4 Bft)
25.09.2019 04:38 11,7 °C 92 % 1009,4 hPa 0,0 mm 10,4 km/h (2 Bft) W-NW 288 ° 0 min 0,000 mm 0,0 UV-I 0 W/m² 10,4 °C 11,7 °C 16,1 km/h (3 Bft)
25.09.2019 04:39 11,7 °C 92 % 1009,4 hPa 0,0 mm 10,0 km/h (2 Bft) W-SW 252 ° 0 min 0,000 mm 0,0 UV-I 0 W/m² 10,4 °C 11,7 °C 19,3 km/h (3 Bft)
25.09.2019 04:40 11,7 °C 92 % 1009,4 hPa 0,0 mm 7,4 km/h (2 Bft) W 261 ° 0 min 0,000 mm 0,0 UV-I 0 W/m² 10,4 °C 11,7 °C 11,3 km/h (2 Bft)
25.09.2019 04:41 11,7 °C 92 % 1009,4 hPa 0,0 mm 7,6 km/h (2 Bft) W 277 ° 0 min 0,000 mm 0,0 UV-I 0 W/m² 10,4 °C 11,7 °C 12,9 km/h (3 Bft)
25.09.2019 04:42 11,7 °C 92 % 1009,5 hPa 0,0 mm 5,2 km/h (1 Bft) W-NW 287 ° 0 min 0,000 mm 0,0 UV-I 0 W/m² 10,4 °C 11,7 °C 9,7 km/h (2 Bft)
25.09.2019 04:43 11,7 °C 92 % 1009,5 hPa 0,0 mm 12,1 km/h (2 Bft) W 273 ° 0 min 0,000 mm 0,0 UV-I 0 W/m² 10,4 °C 11,7 °C 16,1 km/h (3 Bft)
25.09.2019 04:44 11,7 °C 92 % 1009,5 hPa 0,0 mm 6,0 km/h (2 Bft) W 265 ° 0 min 0,000 mm 0,0 UV-I 0 W/m² 10,4 °C 11,7 °C 11,3 km/h (2 Bft)
25.09.2019 04:45 11,7 °C 92 % 1009,4 hPa 0,0 mm 8,5 km/h (2 Bft) W 261 ° 0 min 0,000 mm 0,0 UV-I 0 W/m² 10,4 °C 11,7 °C 17,7 km/h (3 Bft)
25.09.2019 04:46 11,8 °C 91 % 1009,4 hPa 0,0 mm 8,1 km/h (2 Bft) W-NW 298 ° 0 min 0,000 mm 0,0 UV-I 0 W/m² 10,4 °C 11,8 °C 11,3 km/h (2 Bft)
25.09.2019 04:47 11,8 °C 91 % 1009,4 hPa 0,0 mm 6,7 km/h (2 Bft) W 270 ° 0 min 0,000 mm 0,0 UV-I 0 W/m² 10,4 °C 11,8 °C 14,5 km/h (3 Bft)
25.09.2019 04:48 11,8 °C 91 % 1009,5 hPa 0,0 mm 6,1 km/h (2 Bft) W 264 ° 0 min 0,000 mm 0,0 UV-I 0 W/m² 10,4 °C 11,8 °C 11,3 km/h (2 Bft)
25.09.2019 04:49 11,8 °C 91 % 1009,5 hPa 0,0 mm 7,3 km/h (2 Bft) W-NW 299 ° 0 min 0,000 mm 0,0 UV-I 0 W/m² 10,4 °C 11,8 °C 12,9 km/h (3 Bft)
25.09.2019 04:50 11,8 °C 91 % 1009,5 hPa 0,0 mm 8,4 km/h (2 Bft) W 273 ° 0 min 0,000 mm 0,0 UV-I 0 W/m² 10,4 °C 11,8 °C 14,5 km/h (3 Bft)
25.09.2019 04:51 11,8 °C 91 % 1009,5 hPa 0,0 mm 10,2 km/h (2 Bft) W 268 ° 0 min 0,000 mm 0,0 UV-I 0 W/m² 10,4 °C 11,8 °C 16,1 km/h (3 Bft)
25.09.2019 04:52 11,9 °C 91 % 1009,5 hPa 0,2 mm 10,4 km/h (2 Bft) W 261 ° 0 min 0,000 mm 0,0 UV-I 0 W/m² 10,5 °C 11,9 °C 12,9 km/h (3 Bft)
25.09.2019 04:53 11,9 °C 91 % 1009,6 hPa 0,0 mm 8,0 km/h (2 Bft) W-SW 255 ° 0 min 0,000 mm 0,0 UV-I 0 W/m² 10,5 °C 11,9 °C 16,1 km/h (3 Bft)
25.09.2019 04:54 11,9 °C 91 % 1009,5 hPa 0,0 mm 13,5 km/h (3 Bft) W 259 ° 0 min 0,000 mm 0,0 UV-I 0 W/m² 10,5 °C 11,9 °C 24,1 km/h (4 Bft)
25.09.2019 04:55 11,9 °C 91 % 1009,5 hPa 0,0 mm 15,3 km/h (3 Bft) W 270 ° 0 min 0,000 mm 0,0 UV-I 0 W/m² 10,5 °C 11,9 °C 19,3 km/h (3 Bft)
25.09.2019 04:56 11,9 °C 90 % 1009,5 hPa 0,0 mm 9,3 km/h (2 Bft) SW 235 ° 0 min 0,000 mm 0,0 UV-I 0 W/m² 10,3 °C 11,9 °C 14,5 km/h (3 Bft)
25.09.2019 04:57 12,0 °C 90 % 1009,6 hPa 0,0 mm 4,3 km/h (1 Bft) W-NW 290 ° 0 min 0,000 mm 0,0 UV-I 0 W/m² 10,4 °C 12,0 °C 11,3 km/h (2 Bft)
25.09.2019 04:58 12,1 °C 90 % 1009,6 hPa 0,0 mm 11,9 km/h (2 Bft) W-SW 238 ° 0 min 0,000 mm 0,0 UV-I 0 W/m² 10,5 °C 12,1 °C 19,3 km/h (3 Bft)
25.09.2019 04:59 12,1 °C 89 % 1009,6 hPa 0,0 mm 6,5 km/h (2 Bft) W-SW 255 ° 0 min 0,000 mm 0,0 UV-I 0 W/m² 10,3 °C 12,1 °C 14,5 km/h (3 Bft)
25.09.2019 05:00 12,1 °C 89 % 1009,6 hPa 0,0 mm 7,6 km/h (2 Bft) W-SW 257 ° 0 min 0,000 mm 0,0 UV-I 0 W/m² 10,3 °C 12,1 °C 11,3 km/h (2 Bft)
25.09.2019 05:01 12,1 °C 89 % 1009,6 hPa 0,0 mm 6,1 km/h (2 Bft) W-SW 240 ° 0 min 0,000 mm 0,0 UV-I 0 W/m² 10,3 °C 12,1 °C 9,7 km/h (2 Bft)
25.09.2019 05:02 12,2 °C 89 % 1009,5 hPa 0,0 mm 5,0 km/h (1 Bft) S 178 ° 0 min 0,000 mm 0,0 UV-I 0 W/m² 10,4 °C 12,2 °C 11,3 km/h (2 Bft)
25.09.2019 05:03 12,2 °C 89 % 1009,5 hPa 0,0 mm 4,9 km/h (1 Bft) W 271 ° 0 min 0,000 mm 0,0 UV-I 0 W/m² 10,4 °C 12,2 °C 8,0 km/h (2 Bft)
25.09.2019 05:04 12,2 °C 89 % 1009,5 hPa 0,0 mm 7,3 km/h (2 Bft) W-SW 246 ° 0 min 0,000 mm 0,0 UV-I 0 W/m² 10,4 °C 12,2 °C 12,9 km/h (3 Bft)
25.09.2019 05:05 12,2 °C 89 % 1009,6 hPa 0,0 mm 6,0 km/h (2 Bft) W 265 ° 0 min 0,000 mm 0,0 UV-I 0 W/m² 10,4 °C 12,2 °C 12,9 km/h (3 Bft)
25.09.2019 05:06 12,2 °C 89 % 1009,6 hPa 0,0 mm 4,0 km/h (1 Bft) W-SW 249 ° 0 min 0,000 mm 0,0 UV-I 0 W/m² 10,4 °C 12,2 °C 6,4 km/h (2 Bft)
25.09.2019 05:07 12,3 °C 89 % 1009,6 hPa 0,0 mm 5,2 km/h (1 Bft) W-SW 253 ° 0 min 0,000 mm 0,0 UV-I 0 W/m² 10,5 °C 12,3 °C 9,7 km/h (2 Bft)
25.09.2019 05:08 12,2 °C 89 % 1009,6 hPa 0,0 mm 4,8 km/h (1 Bft) W-SW 248 ° 0 min 0,000 mm 0,0 UV-I 0 W/m² 10,4 °C 12,2 °C 12,9 km/h (3 Bft)
25.09.2019 05:09 12,3 °C 88 % 1009,6 hPa 0,0 mm 8,7 km/h (2 Bft) W-SW 238 ° 0 min 0,000 mm 0,0 UV-I 0 W/m² 10,4 °C 12,3 °C 12,9 km/h (3 Bft)
25.09.2019 05:10 12,3 °C 88 % 1009,6 hPa 0,0 mm 4,2 km/h (1 Bft) W-SW 249 ° 0 min 0,000 mm 0,0 UV-I 0 W/m² 10,4 °C 12,3 °C 6,4 km/h (2 Bft)
25.09.2019 05:11 12,3 °C 88 % 1009,5 hPa 0,0 mm 8,3 km/h (2 Bft) W-SW 257 ° 0 min 0,000 mm 0,0 UV-I 0 W/m² 10,4 °C 12,3 °C 16,1 km/h (3 Bft)
25.09.2019 05:12 12,3 °C 88 % 1009,5 hPa 0,0 mm 6,9 km/h (2 Bft) W 265 ° 0 min 0,000 mm 0,0 UV-I 0 W/m² 10,4 °C 12,3 °C 12,9 km/h (3 Bft)
25.09.2019 05:13 12,4 °C 88 % 1009,6 hPa 0,0 mm 5,2 km/h (1 Bft) W-SW 240 ° 0 min 0,000 mm 0,0 UV-I 0 W/m² 10,5 °C 12,4 °C 11,3 km/h (2 Bft)
25.09.2019 05:14 12,4 °C 88 % 1009,6 hPa 0,0 mm 7,8 km/h (2 Bft) W-SW 251 ° 0 min 0,000 mm 0,0 UV-I 0 W/m² 10,5 °C 12,4 °C 11,3 km/h (2 Bft)
25.09.2019 05:15 12,4 °C 87 % 1009,6 hPa 0,0 mm 5,3 km/h (1 Bft) W-SW 244 ° 0 min 0,000 mm 0,0 UV-I 0 W/m² 10,3 °C 12,4 °C 8,0 km/h (2 Bft)
25.09.2019 05:16 12,4 °C 87 % 1009,5 hPa 0,0 mm 10,9 km/h (2 Bft) SW 228 ° 0 min 0,000 mm 0,0 UV-I 0 W/m² 10,3 °C 12,4 °C 17,7 km/h (3 Bft)
25.09.2019 05:17 12,4 °C 87 % 1009,5 hPa 0,0 mm 7,7 km/h (2 Bft) S-SW 195 ° 0 min 0,000 mm 0,0 UV-I 0 W/m² 10,3 °C 12,4 °C 12,9 km/h (3 Bft)
25.09.2019 05:18 12,4 °C 87 % 1009,5 hPa 0,0 mm 5,4 km/h (1 Bft) NW 319 ° 0 min 0,000 mm 0,0 UV-I 0 W/m² 10,3 °C 12,4 °C 8,0 km/h (2 Bft)
25.09.2019 05:19 12,4 °C 87 % 1009,5 hPa 0,0 mm 6,1 km/h (2 Bft) W-SW 246 ° 0 min 0,000 mm 0,0 UV-I 0 W/m² 10,3 °C 12,4 °C 11,3 km/h (2 Bft)
25.09.2019 05:20 12,4 °C 87 % 1009,5 hPa 0,0 mm 6,8 km/h (2 Bft) W 262 ° 0 min 0,000 mm 0,0 UV-I 0 W/m² 10,3 °C 12,4 °C 8,0 km/h (2 Bft)
25.09.2019 05:21 12,4 °C 87 % 1009,5 hPa 0,0 mm 5,5 km/h (1 Bft) W-SW 244 ° 0 min 0,000 mm 0,0 UV-I 0 W/m² 10,3 °C 12,4 °C 11,3 km/h (2 Bft)
25.09.2019 05:22 12,4 °C 87 % 1009,5 hPa 0,0 mm 3,0 km/h (1 Bft) W-SW 257 ° 0 min 0,000 mm 0,0 UV-I 0 W/m² 10,3 °C 12,4 °C 4,8 km/h (1 Bft)
25.09.2019 05:23 12,4 °C 87 % 1009,7 hPa 0,0 mm 0,7 km/h (0 Bft) SW 229 ° 0 min 0,000 mm 0,0 UV-I 0 W/m² 10,3 °C 12,4 °C 6,4 km/h (2 Bft)
25.09.2019 05:24 12,4 °C 87 % 1009,5 hPa 0,0 mm 3,5 km/h (1 Bft) S-SW 192 ° 0 min 0,000 mm 0,0 UV-I 0 W/m² 10,3 °C 12,4 °C 6,4 km/h (2 Bft)
25.09.2019 05:25 12,4 °C 87 % 1009,5 hPa 0,0 mm 1,2 km/h (1 Bft) S-SW 192 ° 0 min 0,000 mm 0,0 UV-I 0 W/m² 10,3 °C 12,4 °C 3,2 km/h (1 Bft)
25.09.2019 05:26 12,4 °C 87 % 1009,5 hPa 0,0 mm 0,2 km/h (0 Bft) S-SW 192 ° 0 min 0,000 mm 0,0 UV-I 0 W/m² 10,3 °C 12,4 °C 1,6 km/h (1 Bft)
25.09.2019 05:27 12,4 °C 87 % 1009,5 hPa 0,0 mm 0,0 km/h (0 Bft) S-SW 192 ° 0 min 0,000 mm 0,0 UV-I 0 W/m² 10,3 °C 12,4 °C 0,0 km/h (0 Bft)
25.09.2019 05:28 12,3 °C 87 % 1009,5 hPa 0,0 mm 0,9 km/h (0 Bft) W-SW 248 ° 0 min 0,000 mm 0,0 UV-I 0 W/m² 10,2 °C 12,3 °C 3,2 km/h (1 Bft)
25.09.2019 05:29 12,3 °C 87 % 1009,5 hPa 0,0 mm 1,8 km/h (1 Bft) W-SW 248 ° 0 min 0,000 mm 0,0 UV-I 0 W/m² 10,2 °C 12,3 °C 4,8 km/h (1 Bft)
25.09.2019 05:30 12,3 °C 87 % 1009,5 hPa 0,2 mm 4,2 km/h (1 Bft) W-SW 255 ° 0 min 0,000 mm 0,0 UV-I 0 W/m² 10,2 °C 12,3 °C 6,4 km/h (2 Bft)
25.09.2019 05:31 12,2 °C 87 % 1009,4 hPa 0,0 mm 3,0 km/h (1 Bft) W-SW 251 ° 0 min 0,000 mm 0,0 UV-I 0 W/m² 10,1 °C 12,2 °C 4,8 km/h (1 Bft)
25.09.2019 05:32 12,3 °C 87 % 1009,4 hPa 0,0 mm 4,6 km/h (1 Bft) SW 227 ° 0 min 0,000 mm 0,0 UV-I 0 W/m² 10,2 °C 12,3 °C 6,4 km/h (2 Bft)
25.09.2019 05:33 12,3 °C 87 % 1009,4 hPa 0,0 mm 3,9 km/h (1 Bft) W 264 ° 0 min 0,000 mm 0,0 UV-I 0 W/m² 10,2 °C 12,3 °C 6,4 km/h (2 Bft)
25.09.2019 05:34 12,3 °C 87 % 1009,5 hPa 0,0 mm 5,6 km/h (1 Bft) W-SW 248 ° 0 min 0,000 mm 0,0 UV-I 0 W/m² 10,2 °C 12,3 °C 8,0 km/h (2 Bft)
25.09.2019 05:35 12,3 °C 87 % 1009,5 hPa 0,0 mm 3,2 km/h (1 Bft) W 266 ° 0 min 0,000 mm 0,0 UV-I 0 W/m² 10,2 °C 12,3 °C 4,8 km/h (1 Bft)
25.09.2019 05:36 12,3 °C 87 % 1009,5 hPa 0,0 mm 5,5 km/h (1 Bft) SW 215 ° 0 min 0,000 mm 0,0 UV-I 0 W/m² 10,2 °C 12,3 °C 9,7 km/h (2 Bft)
25.09.2019 05:37 12,2 °C 87 % 1009,4 hPa 0,0 mm 3,3 km/h (1 Bft) W-SW 257 ° 0 min 0,000 mm 0,0 UV-I 0 W/m² 10,1 °C 12,2 °C 6,4 km/h (2 Bft)
25.09.2019 05:38 12,2 °C 87 % 1009,4 hPa 0,0 mm 3,4 km/h (1 Bft) W 272 ° 0 min 0,000 mm 0,0 UV-I 0 W/m² 10,1 °C 12,2 °C 4,8 km/h (1 Bft)
25.09.2019 05:39 12,2 °C 87 % 1009,4 hPa 0,0 mm 3,3 km/h (1 Bft) W 261 ° 0 min 0,000 mm 0,0 UV-I 0 W/m² 10,1 °C 12,2 °C 4,8 km/h (1 Bft)
25.09.2019 05:40 12,2 °C 87 % 1009,4 hPa 0,0 mm 6,1 km/h (2 Bft) W-NW 282 ° 0 min 0,000 mm 0,0 UV-I 0 W/m² 10,1 °C 12,2 °C 9,7 km/h (2 Bft)
25.09.2019 05:41 12,2 °C 87 % 1009,4 hPa 0,0 mm 5,2 km/h (1 Bft) W-SW 241 ° 0 min 0,000 mm 0,0 UV-I 0 W/m² 10,1 °C 12,2 °C 12,9 km/h (3 Bft)
25.09.2019 05:42 12,2 °C 87 % 1009,4 hPa 0,0 mm 6,8 km/h (2 Bft) W-SW 254 ° 0 min 0,000 mm 0,0 UV-I 0 W/m² 10,1 °C 12,2 °C 14,5 km/h (3 Bft)
25.09.2019 05:43 12,2 °C 88 % 1009,4 hPa 0,0 mm 6,7 km/h (2 Bft) W-NW 283 ° 0 min 0,000 mm 0,0 UV-I 0 W/m² 10,3 °C 12,2 °C 11,3 km/h (2 Bft)
25.09.2019 05:44 12,2 °C 88 % 1009,4 hPa 0,0 mm 4,4 km/h (1 Bft) W 271 ° 0 min 0,000 mm 0,0 UV-I 0 W/m² 10,3 °C 12,2 °C 6,4 km/h (2 Bft)
25.09.2019 05:45 12,2 °C 88 % 1009,4 hPa 0,0 mm 5,8 km/h (2 Bft) W-NW 283 ° 0 min 0,000 mm 0,0 UV-I 0 W/m² 10,3 °C 12,2 °C 9,7 km/h (2 Bft)
25.09.2019 05:46 12,2 °C 88 % 1009,4 hPa 0,0 mm 5,0 km/h (1 Bft) W 266 ° 0 min 0,000 mm 0,0 UV-I 0 W/m² 10,3 °C 12,2 °C 9,7 km/h (2 Bft)
25.09.2019 05:47 12,2 °C 88 % 1009,4 hPa 0,0 mm 6,7 km/h (2 Bft) W 259 ° 0 min 0,000 mm 0,0 UV-I 0 W/m² 10,3 °C 12,2 °C 11,3 km/h (2 Bft)
25.09.2019 05:48 12,2 °C 88 % 1009,3 hPa 0,0 mm 9,5 km/h (2 Bft) W 259 ° 0 min 0,000 mm 0,0 UV-I 0 W/m² 10,3 °C 12,2 °C 17,7 km/h (3 Bft)
25.09.2019 05:49 12,2 °C 88 % 1009,4 hPa 0,0 mm 5,2 km/h (1 Bft) SW 232 ° 0 min 0,000 mm 0,0 UV-I 0 W/m² 10,3 °C 12,2 °C 11,3 km/h (2 Bft)
25.09.2019 05:50 12,2 °C 88 % 1009,3 hPa 0,0 mm 4,7 km/h (1 Bft) S-SW 202 ° 0 min 0,000 mm 0,0 UV-I 0 W/m² 10,3 °C 12,2 °C 11,3 km/h (2 Bft)
25.09.2019 05:51 12,2 °C 87 % 1009,3 hPa 0,0 mm 4,4 km/h (1 Bft) W-SW 253 ° 0 min 0,000 mm 0,0 UV-I 0 W/m² 10,1 °C 12,2 °C 6,4 km/h (2 Bft)
25.09.2019 05:52 12,2 °C 87 % 1009,3 hPa 0,0 mm 4,4 km/h (1 Bft) W 278 ° 0 min 0,000 mm 0,0 UV-I 0 W/m² 10,1 °C 12,2 °C 6,4 km/h (2 Bft)
25.09.2019 05:53 12,2 °C 87 % 1009,3 hPa 0,0 mm 5,4 km/h (1 Bft) W 260 ° 0 min 0,000 mm 0,0 UV-I 0 W/m² 10,1 °C 12,2 °C 12,9 km/h (3 Bft)
25.09.2019 05:54 12,3 °C 87 % 1009,3 hPa 0,0 mm 7,5 km/h (2 Bft) SW 234 ° 0 min 0,000 mm 0,0 UV-I 0 W/m² 10,2 °C 12,3 °C 14,5 km/h (3 Bft)
25.09.2019 05:55 12,3 °C 87 % 1009,3 hPa 0,0 mm 8,2 km/h (2 Bft) SW 227 ° 0 min 0,000 mm 0,0 UV-I 0 W/m² 10,2 °C 12,3 °C 16,1 km/h (3 Bft)
25.09.2019 05:56 12,3 °C 87 % 1009,3 hPa 0,0 mm 6,3 km/h (2 Bft) W 277 ° 0 min 0,000 mm 0,0 UV-I 0 W/m² 10,2 °C 12,3 °C 11,3 km/h (2 Bft)
25.09.2019 05:57 12,3 °C 87 % 1009,3 hPa 0,0 mm 7,5 km/h (2 Bft) W-SW 257 ° 0 min 0,000 mm 0,0 UV-I 0 W/m² 10,2 °C 12,3 °C 14,5 km/h (3 Bft)
25.09.2019 05:58 12,3 °C 87 % 1009,3 hPa 0,0 mm 5,6 km/h (1 Bft) S-SW 208 ° 0 min 0,000 mm 0,0 UV-I 0 W/m² 10,2 °C 12,3 °C 6,4 km/h (2 Bft)
25.09.2019 05:59 12,3 °C 87 % 1009,3 hPa 0,0 mm 4,0 km/h (1 Bft) W 267 ° 0 min 0,000 mm 0,0 UV-I 0 W/m² 10,2 °C 12,3 °C 4,8 km/h (1 Bft)
25.09.2019 06:00 12,3 °C 87 % 1009,3 hPa 0,0 mm 9,6 km/h (2 Bft) W 263 ° 0 min 0,025 mm 0,0 UV-I 0 W/m² 10,2 °C 12,3 °C 12,9 km/h (3 Bft)
25.09.2019 06:01 12,2 °C 87 % 1009,3 hPa 0,0 mm 8,6 km/h (2 Bft) W-SW 258 ° 0 min 0,000 mm 0,0 UV-I 0 W/m² 10,1 °C 12,2 °C 20,9 km/h (4 Bft)
25.09.2019 06:02 12,2 °C 87 % 1009,3 hPa 0,0 mm 7,7 km/h (2 Bft) NW 317 ° 0 min 0,000 mm 0,0 UV-I 0 W/m² 10,1 °C 12,2 °C 14,5 km/h (3 Bft)
25.09.2019 06:03 12,2 °C 87 % 1009,3 hPa 0,0 mm 6,0 km/h (2 Bft) W 259 ° 0 min 0,000 mm 0,0 UV-I 0 W/m² 10,1 °C 12,2 °C 6,4 km/h (2 Bft)
25.09.2019 06:04 12,2 °C 88 % 1009,3 hPa 0,0 mm 5,6 km/h (1 Bft) W-SW 246 ° 0 min 0,000 mm 0,0 UV-I 0 W/m² 10,3 °C 12,2 °C 9,7 km/h (2 Bft)
25.09.2019 06:05 12,2 °C 88 % 1009,3 hPa 0,0 mm 9,3 km/h (2 Bft) W-SW 250 ° 0 min 0,000 mm 0,0 UV-I 0 W/m² 10,3 °C 12,2 °C 16,1 km/h (3 Bft)
25.09.2019 06:06 12,1 °C 88 % 1009,3 hPa 0,0 mm 8,5 km/h (2 Bft) W 265 ° 0 min 0,000 mm 0,0 UV-I 0 W/m² 10,2 °C 12,1 °C 11,3 km/h (2 Bft)
25.09.2019 06:07 12,1 °C 87 % 1009,3 hPa 0,0 mm 6,8 km/h (2 Bft) W-SW 254 ° 0 min 0,000 mm 0,0 UV-I 0 W/m² 10,0 °C 12,1 °C 11,3 km/h (2 Bft)
25.09.2019 06:08 12,1 °C 87 % 1009,3 hPa 0,0 mm 2,7 km/h (1 Bft) W 268 ° 0 min 0,000 mm 0,0 UV-I 0 W/m² 10,0 °C 12,1 °C 9,7 km/h (2 Bft)
25.09.2019 06:09 12,2 °C 87 % 1009,2 hPa 0,0 mm 3,9 km/h (1 Bft) W 261 ° 0 min 0,000 mm 0,0 UV-I 0 W/m² 10,1 °C 12,2 °C 6,4 km/h (2 Bft)
25.09.2019 06:10 12,2 °C 87 % 1009,2 hPa 0,0 mm 5,7 km/h (1 Bft) W-SW 256 ° 0 min 0,000 mm 0,0 UV-I 0 W/m² 10,1 °C 12,2 °C 9,7 km/h (2 Bft)
25.09.2019 06:11 12,2 °C 87 % 1009,3 hPa 0,0 mm 9,9 km/h (2 Bft) W-SW 258 ° 0 min 0,000 mm 0,0 UV-I 0 W/m² 10,1 °C 12,2 °C 14,5 km/h (3 Bft)
25.09.2019 06:12 12,2 °C 87 % 1009,3 hPa 0,0 mm 9,2 km/h (2 Bft) SW 214 ° 0 min 0,000 mm 0,0 UV-I 0 W/m² 10,1 °C 12,2 °C 14,5 km/h (3 Bft)
25.09.2019 06:13 12,2 °C 87 % 1009,2 hPa 0,0 mm 5,6 km/h (1 Bft) W 268 ° 0 min 0,000 mm 0,0 UV-I 0 W/m² 10,1 °C 12,2 °C 9,7 km/h (2 Bft)
25.09.2019 06:14 12,2 °C 87 % 1009,3 hPa 0,0 mm 5,4 km/h (1 Bft) W 271 ° 0 min 0,000 mm 0,0 UV-I 0 W/m² 10,1 °C 12,2 °C 9,7 km/h (2 Bft)
25.09.2019 06:15 12,2 °C 87 % 1009,3 hPa 0,0 mm 8,9 km/h (2 Bft) W-SW 250 ° 0 min 0,000 mm 0,0 UV-I 0 W/m² 10,1 °C 12,2 °C 17,7 km/h (3 Bft)
25.09.2019 06:16 12,2 °C 87 % 1009,2 hPa 0,0 mm 13,7 km/h (3 Bft) W-NW 292 ° 0 min 0,000 mm 0,0 UV-I 0 W/m² 10,1 °C 12,2 °C 20,9 km/h (4 Bft)
25.09.2019 06:17 12,2 °C 87 % 1009,2 hPa 0,0 mm 4,1 km/h (1 Bft) W-NW 298 ° 0 min 0,000 mm 0,0 UV-I 0 W/m² 10,1 °C 12,2 °C 9,7 km/h (2 Bft)
25.09.2019 06:18 12,2 °C 87 % 1009,2 hPa 0,0 mm 4,9 km/h (1 Bft) W-SW 254 ° 0 min 0,000 mm 0,0 UV-I 0 W/m² 10,1 °C 12,2 °C 11,3 km/h (2 Bft)
25.09.2019 06:19 12,2 °C 87 % 1009,1 hPa 0,0 mm 6,2 km/h (2 Bft) W 277 ° 0 min 0,000 mm 0,0 UV-I 0 W/m² 10,1 °C 12,2 °C 11,3 km/h (2 Bft)
25.09.2019 06:20 12,2 °C 87 % 1009,2 hPa 0,0 mm 4,0 km/h (1 Bft) W 259 ° 0 min 0,000 mm 0,0 UV-I 0 W/m² 10,1 °C 12,2 °C 6,4 km/h (2 Bft)
25.09.2019 06:21 12,2 °C 87 % 1009,2 hPa 0,0 mm 1,7 km/h (1 Bft) SW 236 ° 0 min 0,000 mm 0,0 UV-I 0 W/m² 10,1 °C 12,2 °C 4,8 km/h (1 Bft)
25.09.2019 06:22 12,2 °C 87 % 1009,2 hPa 0,0 mm 5,7 km/h (1 Bft) W-SW 250 ° 0 min 0,000 mm 0,0 UV-I 0 W/m² 10,1 °C 12,2 °C 8,0 km/h (2 Bft)
25.09.2019 06:23 12,2 °C 87 % 1009,1 hPa 0,0 mm 2,0 km/h (1 Bft) W-SW 244 ° 0 min 0,000 mm 0,0 UV-I 0 W/m² 10,1 °C 12,2 °C 6,4 km/h (2 Bft)
25.09.2019 06:24 12,2 °C 87 % 1009,1 hPa 0,0 mm 6,5 km/h (2 Bft) W 262 ° 0 min 0,000 mm 0,0 UV-I 0 W/m² 10,1 °C 12,2 °C 11,3 km/h (2 Bft)
25.09.2019 06:25 12,2 °C 87 % 1009,1 hPa 0,0 mm 0,9 km/h (0 Bft) W 261 ° 0 min 0,000 mm 0,0 UV-I 0 W/m² 10,1 °C 12,2 °C 4,8 km/h (1 Bft)
25.09.2019 06:26 12,2 °C 87 % 1009,1 hPa 0,0 mm 0,0 km/h (0 Bft) W-SW 248 ° 0 min 0,000 mm 0,0 UV-I 0 W/m² 10,1 °C 12,2 °C 0,0 km/h (0 Bft)
25.09.2019 06:27 12,2 °C 86 % 1009,1 hPa 0,0 mm 2,5 km/h (1 Bft) W-SW 238 ° 0 min 0,000 mm 0,0 UV-I 0 W/m² 9,9 °C 12,2 °C 6,4 km/h (2 Bft)
25.09.2019 06:28 12,2 °C 87 % 1009,1 hPa 0,0 mm 4,5 km/h (1 Bft) W-SW 258 ° 0 min 0,000 mm 0,0 UV-I 0 W/m² 10,1 °C 12,2 °C 6,4 km/h (2 Bft)
25.09.2019 06:29 12,1 °C 87 % 1009,1 hPa 0,0 mm 2,4 km/h (1 Bft) W-SW 250 ° 0 min 0,000 mm 0,0 UV-I 0 W/m² 10,0 °C 12,1 °C 4,8 km/h (1 Bft)
25.09.2019 06:30 12,1 °C 87 % 1009,1 hPa 0,0 mm 2,2 km/h (1 Bft) W 259 ° 0 min 0,000 mm 0,0 UV-I 0 W/m² 10,0 °C 12,1 °C 3,2 km/h (1 Bft)
25.09.2019 06:31 12,1 °C 87 % 1009,0 hPa 0,0 mm 5,8 km/h (2 Bft) W 273 ° 0 min 0,000 mm 0,0 UV-I 0 W/m² 10,0 °C 12,1 °C 11,3 km/h (2 Bft)
25.09.2019 06:32 12,1 °C 87 % 1009,1 hPa 0,0 mm 2,3 km/h (1 Bft) W 269 ° 0 min 0,000 mm 0,0 UV-I 0 W/m² 10,0 °C 12,1 °C 4,8 km/h (1 Bft)
25.09.2019 06:33 12,1 °C 87 % 1009,0 hPa 0,0 mm 6,8 km/h (2 Bft) S-SW 196 ° 0 min 0,000 mm 0,0 UV-I 0 W/m² 10,0 °C 12,1 °C 14,5 km/h (3 Bft)
25.09.2019 06:34 12,1 °C 87 % 1009,0 hPa 0,0 mm 3,9 km/h (1 Bft) S 185 ° 0 min 0,000 mm 0,0 UV-I 0 W/m² 10,0 °C 12,1 °C 8,0 km/h (2 Bft)
25.09.2019 06:35 12,1 °C 87 % 1008,9 hPa 0,0 mm 0,9 km/h (0 Bft) S 184 ° 0 min 0,000 mm 0,0 UV-I 0 W/m² 10,0 °C 12,1 °C 3,2 km/h (1 Bft)
25.09.2019 06:36 12,1 °C 86 % 1008,9 hPa 0,0 mm 2,1 km/h (1 Bft) W 277 ° 0 min 0,000 mm 0,0 UV-I 0 W/m² 9,8 °C 12,1 °C 4,8 km/h (1 Bft)
25.09.2019 06:37 12,1 °C 86 % 1009,0 hPa 0,0 mm 1,6 km/h (1 Bft) W 279 ° 0 min 0,000 mm 0,0 UV-I 0 W/m² 9,8 °C 12,1 °C 4,8 km/h (1 Bft)
25.09.2019 06:38 12,1 °C 86 % 1009,0 hPa 0,0 mm 7,6 km/h (2 Bft) W-SW 258 ° 0 min 0,000 mm 0,0 UV-I 0 W/m² 9,8 °C 12,1 °C 11,3 km/h (2 Bft)
25.09.2019 06:39 12,1 °C 87 % 1009,0 hPa 0,0 mm 3,5 km/h (1 Bft) SW 234 ° 0 min 0,000 mm 0,0 UV-I 0 W/m² 10,0 °C 12,1 °C 9,7 km/h (2 Bft)
25.09.2019 06:40 12,1 °C 87 % 1009,0 hPa 0,0 mm 2,3 km/h (1 Bft) W 265 ° 0 min 0,000 mm 0,0 UV-I 0 W/m² 10,0 °C 12,1 °C 4,8 km/h (1 Bft)
25.09.2019 06:41 12,1 °C 87 % 1009,0 hPa 0,0 mm 3,9 km/h (1 Bft) W 273 ° 0 min 0,000 mm 0,0 UV-I 0 W/m² 10,0 °C 12,1 °C 6,4 km/h (2 Bft)
25.09.2019 06:42 12,0 °C 87 % 1009,0 hPa 0,0 mm 2,6 km/h (1 Bft) W 271 ° 0 min 0,000 mm 0,0 UV-I 0 W/m² 9,9 °C 12,0 °C 6,4 km/h (2 Bft)
25.09.2019 06:43 12,0 °C 87 % 1009,0 hPa 0,0 mm 1,6 km/h (1 Bft) W 271 ° 0 min 0,000 mm 0,0 UV-I 0 W/m² 9,9 °C 12,0 °C 4,8 km/h (1 Bft)
25.09.2019 06:44 11,9 °C 87 % 1009,0 hPa 0,0 mm 0,0 km/h (0 Bft) SW 227 ° 0 min 0,000 mm 0,0 UV-I 0 W/m² 9,8 °C 11,9 °C 0,0 km/h (0 Bft)
25.09.2019 06:45 11,9 °C 87 % 1009,0 hPa 0,0 mm 0,0 km/h (0 Bft) SW 227 ° 0 min 0,000 mm 0,0 UV-I 0 W/m² 9,8 °C 11,9 °C 0,0 km/h (0 Bft)
25.09.2019 06:46 11,9 °C 87 % 1009,0 hPa 0,0 mm 0,0 km/h (0 Bft) SW 227 ° 0 min 0,000 mm 0,0 UV-I 0 W/m² 9,8 °C 11,9 °C 0,0 km/h (0 Bft)
25.09.2019 06:47 11,8 °C 87 % 1009,1 hPa 0,0 mm 0,0 km/h (0 Bft) SW 215 ° 0 min 0,000 mm 0,0 UV-I 0 W/m² 9,7 °C 11,8 °C 0,0 km/h (0 Bft)
25.09.2019 06:48 11,8 °C 88 % 1009,0 hPa 0,0 mm 3,4 km/h (1 Bft) W-SW 242 ° 0 min 0,000 mm 0,0 UV-I 0 W/m² 9,9 °C 11,8 °C 9,7 km/h (2 Bft)
25.09.2019 06:49 11,8 °C 88 % 1009,1 hPa 0,0 mm 3,2 km/h (1 Bft) SW 227 ° 0 min 0,000 mm 0,0 UV-I 0 W/m² 9,9 °C 11,8 °C 4,8 km/h (1 Bft)
25.09.2019 06:50 11,8 °C 88 % 1009,1 hPa 0,0 mm 2,3 km/h (1 Bft) S-SW 209 ° 0 min 0,000 mm 0,0 UV-I 0 W/m² 9,9 °C 11,8 °C 4,8 km/h (1 Bft)
25.09.2019 06:51 11,8 °C 88 % 1009,0 hPa 0,0 mm 0,9 km/h (0 Bft) S-SW 206 ° 0 min 0,000 mm 0,0 UV-I 0 W/m² 9,9 °C 11,8 °C 3,2 km/h (1 Bft)
25.09.2019 06:52 11,8 °C 88 % 1009,1 hPa 0,0 mm 0,8 km/h (0 Bft) S-SW 207 ° 0 min 0,000 mm 0,0 UV-I 0 W/m² 9,9 °C 11,8 °C 1,6 km/h (1 Bft)
25.09.2019 06:53 11,7 °C 88 % 1009,1 hPa 0,0 mm 1,5 km/h (1 Bft) S-SW 193 ° 0 min 0,000 mm 0,0 UV-I 0 W/m² 9,8 °C 11,7 °C 6,4 km/h (2 Bft)
25.09.2019 06:54 11,8 °C 88 % 1009,1 hPa 0,0 mm 3,7 km/h (1 Bft) S-SW 196 ° 0 min 0,000 mm 0,0 UV-I 0 W/m² 9,9 °C 11,8 °C 6,4 km/h (2 Bft)
25.09.2019 06:55 11,8 °C 88 % 1009,0 hPa 0,0 mm 2,5 km/h (1 Bft) W 263 ° 0 min 0,000 mm 0,0 UV-I 0 W/m² 9,9 °C 11,8 °C 6,4 km/h (2 Bft)
25.09.2019 06:56 11,8 °C 88 % 1009,0 hPa 0,0 mm 2,5 km/h (1 Bft) S-SW 194 ° 0 min 0,000 mm 0,0 UV-I 0 W/m² 9,9 °C 11,8 °C 6,4 km/h (2 Bft)
25.09.2019 06:57 11,8 °C 88 % 1009,0 hPa 0,0 mm 0,1 km/h (0 Bft) S-SW 194 ° 0 min 0,000 mm 0,0 UV-I 0 W/m² 9,9 °C 11,8 °C 1,6 km/h (1 Bft)
25.09.2019 06:58 11,8 °C 88 % 1009,0 hPa 0,0 mm 2,7 km/h (1 Bft) S-SW 203 ° 0 min 0,000 mm 0,0 UV-I 0 W/m² 9,9 °C 11,8 °C 6,4 km/h (2 Bft)
25.09.2019 06:59 11,8 °C 88 % 1009,0 hPa 0,0 mm 3,8 km/h (1 Bft) SW 222 ° 0 min 0,000 mm 0,0 UV-I 0 W/m² 9,9 °C 11,8 °C 6,4 km/h (2 Bft)
25.09.2019 07:00 11,8 °C 88 % 1009,1 hPa 0,0 mm 1,7 km/h (1 Bft) W-SW 242 ° 0 min 0,026 mm 0,0 UV-I 0 W/m² 9,9 °C 11,8 °C 4,8 km/h (1 Bft)
25.09.2019 07:01 11,8 °C 88 % 1009,0 hPa 0,0 mm 0,0 km/h (0 Bft) W 263 ° 0 min 0,000 mm 0,0 UV-I 0 W/m² 9,9 °C 11,8 °C 0,0 km/h (0 Bft)
25.09.2019 07:02 11,9 °C 88 % 1009,1 hPa 0,0 mm 1,0 km/h (0 Bft) W 262 ° 0 min 0,000 mm 0,0 UV-I 0 W/m² 10,0 °C 11,9 °C 6,4 km/h (2 Bft)
25.09.2019 07:03 11,9 °C 88 % 1009,1 hPa 0,0 mm 2,1 km/h (1 Bft) W 262 ° 0 min 0,000 mm 0,0 UV-I 0 W/m² 10,0 °C 11,9 °C 3,2 km/h (1 Bft)
25.09.2019 07:04 11,9 °C 88 % 1009,1 hPa 0,0 mm 0,0 km/h (0 Bft) W 262 ° 0 min 0,000 mm 0,0 UV-I 0 W/m² 10,0 °C 11,9 °C 0,0 km/h (0 Bft)
25.09.2019 07:05 11,9 °C 87 % 1009,1 hPa 0,0 mm 0,4 km/h (0 Bft) W 262 ° 0 min 0,000 mm 0,0 UV-I 0 W/m² 9,8 °C 11,9 °C 3,2 km/h (1 Bft)
25.09.2019 07:06 11,9 °C 87 % 1009,1 hPa 0,0 mm 1,3 km/h (1 Bft) W 262 ° 0 min 0,000 mm 0,0 UV-I 0 W/m² 9,8 °C 11,9 °C 3,2 km/h (1 Bft)
25.09.2019 07:07 12,0 °C 87 % 1009,1 hPa 0,0 mm 4,5 km/h (1 Bft) W-SW 252 ° 0 min 0,000 mm 0,0 UV-I 0 W/m² 9,9 °C 12,0 °C 9,7 km/h (2 Bft)
25.09.2019 07:08 12,0 °C 87 % 1009,1 hPa 0,0 mm 4,3 km/h (1 Bft) S-SW 210 ° 0 min 0,000 mm 0,0 UV-I 0 W/m² 9,9 °C 12,0 °C 9,7 km/h (2 Bft)
25.09.2019 07:09 12,1 °C 87 % 1009,1 hPa 0,0 mm 4,5 km/h (1 Bft) SW 234 ° 0 min 0,000 mm 0,0 UV-I 0 W/m² 10,0 °C 12,1 °C 8,0 km/h (2 Bft)
25.09.2019 07:10 12,1 °C 87 % 1009,1 hPa 0,0 mm 4,4 km/h (1 Bft) W 261 ° 0 min 0,000 mm 0,0 UV-I 0 W/m² 10,0 °C 12,1 °C 6,4 km/h (2 Bft)
25.09.2019 07:11 12,1 °C 87 % 1009,1 hPa 0,0 mm 4,8 km/h (1 Bft) W-SW 250 ° 0 min 0,000 mm 0,0 UV-I 0 W/m² 10,0 °C 12,1 °C 8,0 km/h (2 Bft)
25.09.2019 07:12 12,1 °C 86 % 1009,1 hPa 0,0 mm 3,2 km/h (1 Bft) S-SW 192 ° 0 min 0,000 mm 0,0 UV-I 0 W/m² 9,8 °C 12,1 °C 6,4 km/h (2 Bft)
25.09.2019 07:13 12,2 °C 86 % 1009,1 hPa 0,0 mm 5,6 km/h (1 Bft) S-SW 213 ° 0 min 0,000 mm 0,0 UV-I 0 W/m² 9,9 °C 12,2 °C 8,0 km/h (2 Bft)
25.09.2019 07:14 12,2 °C 86 % 1009,1 hPa 0,0 mm 1,7 km/h (1 Bft) S-SW 209 ° 0 min 0,000 mm 0,0 UV-I 0 W/m² 9,9 °C 12,2 °C 6,4 km/h (2 Bft)
25.09.2019 07:15 12,2 °C 86 % 1009,0 hPa 0,0 mm 2,4 km/h (1 Bft) S-SW 213 ° 0 min 0,000 mm 0,0 UV-I 0 W/m² 9,9 °C 12,2 °C 4,8 km/h (1 Bft)
25.09.2019 07:16 12,2 °C 86 % 1008,9 hPa 0,0 mm 2,7 km/h (1 Bft) S-SW 210 ° 0 min 0,000 mm 0,0 UV-I 0 W/m² 9,9 °C 12,2 °C 4,8 km/h (1 Bft)
25.09.2019 07:17 12,2 °C 86 % 1008,9 hPa 0,0 mm 3,1 km/h (1 Bft) S-SW 209 ° 0 min 0,000 mm 0,0 UV-I 0 W/m² 9,9 °C 12,2 °C 8,0 km/h (2 Bft)
25.09.2019 07:18 12,2 °C 86 % 1009,0 hPa 0,0 mm 1,7 km/h (1 Bft) W-SW 247 ° 0 min 0,000 mm 0,0 UV-I 0 W/m² 9,9 °C 12,2 °C 4,8 km/h (1 Bft)
25.09.2019 07:19 12,2 °C 86 % 1009,0 hPa 0,0 mm 4,8 km/h (1 Bft) W 260 ° 0 min 0,000 mm 0,0 UV-I 0 W/m² 9,9 °C 12,2 °C 9,7 km/h (2 Bft)
25.09.2019 07:20 12,2 °C 86 % 1009,0 hPa 0,0 mm 1,5 km/h (1 Bft) W 260 ° 0 min 0,000 mm 0,0 UV-I 0 W/m² 9,9 °C 12,2 °C 3,2 km/h (1 Bft)
25.09.2019 07:21 12,2 °C 86 % 1009,0 hPa 0,0 mm 2,5 km/h (1 Bft) W-SW 251 ° 0 min 0,000 mm 0,0 UV-I 0 W/m² 9,9 °C 12,2 °C 4,8 km/h (1 Bft)
25.09.2019 07:22 12,1 °C 87 % 1009,0 hPa 0,0 mm 3,4 km/h (1 Bft) W 265 ° 0 min 0,000 mm 0,0 UV-I 0 W/m² 10,0 °C 12,1 °C 6,4 km/h (2 Bft)
25.09.2019 07:23 12,1 °C 87 % 1009,0 hPa 0,0 mm 4,1 km/h (1 Bft) W 281 ° 0 min 0,000 mm 0,0 UV-I 0 W/m² 10,0 °C 12,1 °C 6,4 km/h (2 Bft)
25.09.2019 07:24 12,1 °C 87 % 1009,1 hPa 0,0 mm 4,1 km/h (1 Bft) W 269 ° 0 min 0,000 mm 0,0 UV-I 0 W/m² 10,0 °C 12,1 °C 9,7 km/h (2 Bft)
25.09.2019 07:25 12,0 °C 87 % 1009,1 hPa 0,0 mm 4,4 km/h (1 Bft) W 267 ° 0 min 0,000 mm 0,0 UV-I 0 W/m² 9,9 °C 12,0 °C 6,4 km/h (2 Bft)
25.09.2019 07:26 12,0 °C 87 % 1009,2 hPa 0,0 mm 3,4 km/h (1 Bft) W 267 ° 0 min 0,000 mm 0,0 UV-I 0 W/m² 9,9 °C 12,0 °C 4,8 km/h (1 Bft)
25.09.2019 07:27 11,9 °C 87 % 1009,1 hPa 0,0 mm 4,0 km/h (1 Bft) W-SW 248 ° 0 min 0,000 mm 0,0 UV-I 0 W/m² 9,8 °C 11,9 °C 6,4 km/h (2 Bft)
25.09.2019 07:28 11,9 °C 87 % 1009,2 hPa 0,0 mm 2,5 km/h (1 Bft) SW 229 ° 0 min 0,000 mm 0,0 UV-I 0 W/m² 9,8 °C 11,9 °C 4,8 km/h (1 Bft)
25.09.2019 07:29 11,9 °C 87 % 1009,2 hPa 0,0 mm 0,0 km/h (0 Bft) SW 230 ° 0 min 0,000 mm 0,0 UV-I 0 W/m² 9,8 °C 11,9 °C 0,0 km/h (0 Bft)
25.09.2019 07:30 12,0 °C 87 % 1009,2 hPa 0,0 mm 0,0 km/h (0 Bft) SW 230 ° 0 min 0,000 mm 0,0 UV-I 0 W/m² 9,9 °C 12,0 °C 0,0 km/h (0 Bft)
25.09.2019 07:31 12,0 °C 87 % 1009,3 hPa 0,0 mm 0,0 km/h (0 Bft) SW 230 ° 0 min 0,000 mm 0,0 UV-I 0 W/m² 9,9 °C 12,0 °C 0,0 km/h (0 Bft)
25.09.2019 07:32 12,0 °C 87 % 1009,3 hPa 0,0 mm 0,0 km/h (0 Bft) SW 230 ° 0 min 0,000 mm 0,0 UV-I 0 W/m² 9,9 °C 12,0 °C 0,0 km/h (0 Bft)
25.09.2019 07:33 12,1 °C 87 % 1009,3 hPa 0,0 mm 0,9 km/h (0 Bft) W-SW 244 ° 0 min 0,000 mm 0,0 UV-I 0 W/m² 10,0 °C 12,1 °C 4,8 km/h (1 Bft)
25.09.2019 07:34 12,0 °C 87 % 1009,3 hPa 0,0 mm 3,6 km/h (1 Bft) S-SW 200 ° 0 min 0,000 mm 0,0 UV-I 0 W/m² 9,9 °C 12,0 °C 4,8 km/h (1 Bft)
25.09.2019 07:35 12,1 °C 88 % 1009,3 hPa 0,0 mm 2,5 km/h (1 Bft) W-SW 252 ° 0 min 0,000 mm 0,0 UV-I 0 W/m² 10,2 °C 12,1 °C 6,4 km/h (2 Bft)
25.09.2019 07:36 12,1 °C 88 % 1009,4 hPa 0,0 mm 1,7 km/h (1 Bft) W-SW 248 ° 0 min 0,000 mm 0,0 UV-I 0 W/m² 10,2 °C 12,1 °C 4,8 km/h (1 Bft)
25.09.2019 07:37 12,1 °C 88 % 1009,3 hPa 0,0 mm 0,0 km/h (0 Bft) W-SW 248 ° 0 min 0,000 mm 0,0 UV-I 5 W/m² 10,2 °C 12,1 °C 0,0 km/h (0 Bft)
25.09.2019 07:38 12,0 °C 88 % 1009,3 hPa 0,0 mm 0,0 km/h (0 Bft) W-SW 248 ° 0 min 0,000 mm 0,0 UV-I 5 W/m² 10,1 °C 12,0 °C 0,0 km/h (0 Bft)
25.09.2019 07:39 12,0 °C 88 % 1009,3 hPa 0,0 mm 0,1 km/h (0 Bft) W-SW 248 ° 0 min 0,000 mm 0,0 UV-I 5 W/m² 10,1 °C 12,0 °C 1,6 km/h (1 Bft)
25.09.2019 07:40 12,0 °C 88 % 1009,3 hPa 0,0 mm 0,9 km/h (0 Bft) W-SW 248 ° 0 min 0,000 mm 0,0 UV-I 5 W/m² 10,1 °C 12,0 °C 3,2 km/h (1 Bft)
25.09.2019 07:41 11,9 °C 88 % 1009,3 hPa 0,0 mm 1,7 km/h (1 Bft) W-SW 248 ° 0 min 0,000 mm 0,0 UV-I 5 W/m² 10,0 °C 11,9 °C 4,8 km/h (1 Bft)
25.09.2019 07:42 12,0 °C 88 % 1009,3 hPa 0,0 mm 2,3 km/h (1 Bft) W-SW 248 ° 0 min 0,000 mm 0,0 UV-I 5 W/m² 10,1 °C 12,0 °C 3,2 km/h (1 Bft)
25.09.2019 07:43 11,9 °C 88 % 1009,2 hPa 0,0 mm 0,0 km/h (0 Bft) W-SW 248 ° 0 min 0,000 mm 0,0 UV-I 7 W/m² 10,0 °C 11,9 °C 0,0 km/h (0 Bft)
25.09.2019 07:44 11,9 °C 88 % 1009,2 hPa 0,0 mm 1,9 km/h (1 Bft) SW 216 ° 0 min 0,000 mm 0,0 UV-I 7 W/m² 10,0 °C 11,9 °C 4,8 km/h (1 Bft)
25.09.2019 07:45 11,9 °C 88 % 1009,3 hPa 0,0 mm 2,4 km/h (1 Bft) SW 217 ° 0 min 0,000 mm 0,0 UV-I 7 W/m² 10,0 °C 11,9 °C 4,8 km/h (1 Bft)
25.09.2019 07:46 11,9 °C 88 % 1009,2 hPa 0,0 mm 0,7 km/h (0 Bft) SW 217 ° 0 min 0,000 mm 0,0 UV-I 9 W/m² 10,0 °C 11,9 °C 3,2 km/h (1 Bft)
25.09.2019 07:47 12,0 °C 88 % 1009,2 hPa 0,0 mm 1,3 km/h (1 Bft) S-SW 200 ° 0 min 0,000 mm 0,0 UV-I 11 W/m² 10,1 °C 12,0 °C 3,2 km/h (1 Bft)
25.09.2019 07:48 12,1 °C 88 % 1009,2 hPa 0,0 mm 1,7 km/h (1 Bft) S-SW 201 ° 0 min 0,000 mm 0,0 UV-I 11 W/m² 10,2 °C 12,1 °C 3,2 km/h (1 Bft)
25.09.2019 07:49 12,1 °C 88 % 1009,2 hPa 0,0 mm 0,3 km/h (0 Bft) S-SW 201 ° 0 min 0,000 mm 0,0 UV-I 11 W/m² 10,2 °C 12,1 °C 3,2 km/h (1 Bft)
25.09.2019 07:50 12,1 °C 88 % 1009,2 hPa 0,0 mm 4,2 km/h (1 Bft) W-SW 241 ° 0 min 0,000 mm 0,0 UV-I 11 W/m² 10,2 °C 12,1 °C 11,3 km/h (2 Bft)
25.09.2019 07:51 12,1 °C 88 % 1009,2 hPa 0,0 mm 3,7 km/h (1 Bft) S-SW 192 ° 0 min 0,000 mm 0,0 UV-I 9 W/m² 10,2 °C 12,1 °C 6,4 km/h (2 Bft)
25.09.2019 07:52 12,1 °C 88 % 1009,2 hPa 0,0 mm 2,5 km/h (1 Bft) W-SW 258 ° 0 min 0,000 mm 0,0 UV-I 9 W/m² 10,2 °C 12,1 °C 6,4 km/h (2 Bft)
25.09.2019 07:53 12,1 °C 88 % 1009,2 hPa 0,0 mm 2,8 km/h (1 Bft) W 267 ° 0 min 0,000 mm 0,0 UV-I 9 W/m² 10,2 °C 12,1 °C 6,4 km/h (2 Bft)
25.09.2019 07:54 12,1 °C 88 % 1009,2 hPa 0,0 mm 0,0 km/h (0 Bft) W 267 ° 0 min 0,000 mm 0,0 UV-I 9 W/m² 10,2 °C 12,1 °C 0,0 km/h (0 Bft)
25.09.2019 07:55 12,1 °C 88 % 1009,2 hPa 0,0 mm 1,8 km/h (1 Bft) W 265 ° 0 min 0,000 mm 0,0 UV-I 11 W/m² 10,2 °C 12,1 °C 4,8 km/h (1 Bft)
25.09.2019 07:56 12,1 °C 88 % 1009,3 hPa 0,0 mm 2,9 km/h (1 Bft) W 264 ° 0 min 0,000 mm 0,0 UV-I 11 W/m² 10,2 °C 12,1 °C 4,8 km/h (1 Bft)
25.09.2019 07:57 12,1 °C 88 % 1009,3 hPa 0,0 mm 0,4 km/h (0 Bft) W 264 ° 0 min 0,000 mm 0,0 UV-I 11 W/m² 10,2 °C 12,1 °C 1,6 km/h (1 Bft)
25.09.2019 07:58 12,1 °C 88 % 1009,3 hPa 0,0 mm 0,0 km/h (0 Bft) W 263 ° 0 min 0,000 mm 0,0 UV-I 11 W/m² 10,2 °C 12,1 °C 0,0 km/h (0 Bft)
25.09.2019 07:59 12,1 °C 88 % 1009,3 hPa 0,0 mm 2,3 km/h (1 Bft) W-SW 240 ° 0 min 0,000 mm 0,0 UV-I 11 W/m² 10,2 °C 12,1 °C 6,4 km/h (2 Bft)
25.09.2019 08:00 12,1 °C 88 % 1009,3 hPa 0,0 mm 6,8 km/h (2 Bft) SW 228 ° 0 min 0,000 mm 0,0 UV-I 11 W/m² 10,2 °C 12,1 °C 11,3 km/h (2 Bft)
25.09.2019 08:01 12,1 °C 88 % 1009,3 hPa 0,0 mm 2,3 km/h (1 Bft) W-SW 256 ° 0 min 0,000 mm 0,0 UV-I 12 W/m² 10,2 °C 12,1 °C 6,4 km/h (2 Bft)
25.09.2019 08:02 12,1 °C 88 % 1009,3 hPa 0,0 mm 2,8 km/h (1 Bft) S-SW 211 ° 0 min 0,000 mm 0,0 UV-I 14 W/m² 10,2 °C 12,1 °C 4,8 km/h (1 Bft)
25.09.2019 08:04 12,1 °C 88 % 1009,3 hPa 0,0 mm 0,9 km/h (0 Bft) S-SW 211 ° 0 min 0,000 mm 0,0 UV-I 16 W/m² 10,2 °C 12,1 °C 3,2 km/h (1 Bft)
25.09.2019 08:05 12,1 °C 88 % 1009,4 hPa 0,0 mm 1,2 km/h (1 Bft) S-SW 211 ° 0 min 0,000 mm 0,0 UV-I 14 W/m² 10,2 °C 12,1 °C 3,2 km/h (1 Bft)
25.09.2019 08:06 12,1 °C 88 % 1009,4 hPa 0,0 mm 1,1 km/h (1 Bft) S-SW 213 ° 0 min 0,000 mm 0,0 UV-I 14 W/m² 10,2 °C 12,1 °C 3,2 km/h (1 Bft)
25.09.2019 08:07 12,1 °C 88 % 1009,4 hPa 0,0 mm 0,8 km/h (0 Bft) SW 215 ° 0 min 0,000 mm 0,0 UV-I 14 W/m² 10,2 °C 12,1 °C 3,2 km/h (1 Bft)
25.09.2019 08:08 12,1 °C 88 % 1009,4 hPa 0,0 mm 1,9 km/h (1 Bft) S-SW 212 ° 0 min 0,000 mm 0,0 UV-I 14 W/m² 10,2 °C 12,1 °C 3,2 km/h (1 Bft)
25.09.2019 08:09 12,1 °C 89 % 1009,5 hPa 0,0 mm 4,2 km/h (1 Bft) W 278 ° 0 min 0,000 mm 0,0 UV-I 14 W/m² 10,3 °C 12,1 °C 6,4 km/h (2 Bft)
25.09.2019 08:10 12,0 °C 89 % 1009,5 hPa 0,0 mm 3,6 km/h (1 Bft) W 277 ° 0 min 0,000 mm 0,0 UV-I 14 W/m² 10,2 °C 12,0 °C 6,4 km/h (2 Bft)
25.09.2019 08:11 12,0 °C 89 % 1009,4 hPa 0,0 mm 3,0 km/h (1 Bft) W 277 ° 0 min 0,000 mm 0,0 UV-I 14 W/m² 10,2 °C 12,0 °C 4,8 km/h (1 Bft)
25.09.2019 08:12 12,0 °C 89 % 1009,5 hPa 0,0 mm 2,3 km/h (1 Bft) W 277 ° 0 min 0,000 mm 0,0 UV-I 14 W/m² 10,2 °C 12,0 °C 3,2 km/h (1 Bft)
25.09.2019 08:13 12,0 °C 89 % 1009,5 hPa 0,0 mm 3,8 km/h (1 Bft) W 275 ° 0 min 0,000 mm 0,0 UV-I 14 W/m² 10,2 °C 12,0 °C 4,8 km/h (1 Bft)
25.09.2019 08:14 11,9 °C 89 % 1009,5 hPa 0,0 mm 4,0 km/h (1 Bft) W 270 ° 0 min 0,000 mm 0,0 UV-I 14 W/m² 10,1 °C 11,9 °C 4,8 km/h (1 Bft)
25.09.2019 08:15 11,9 °C 89 % 1009,5 hPa 0,0 mm 3,6 km/h (1 Bft) SW 232 ° 0 min 0,000 mm 0,0 UV-I 14 W/m² 10,1 °C 11,9 °C 6,4 km/h (2 Bft)
25.09.2019 08:16 11,9 °C 89 % 1009,5 hPa 0,0 mm 0,3 km/h (0 Bft) SW 232 ° 0 min 0,000 mm 0,0 UV-I 14 W/m² 10,1 °C 11,9 °C 1,6 km/h (1 Bft)
25.09.2019 08:17 11,9 °C 90 % 1009,4 hPa 0,0 mm 0,0 km/h (0 Bft) W-NW 294 ° 0 min 0,000 mm 0,0 UV-I 14 W/m² 10,3 °C 11,9 °C 0,0 km/h (0 Bft)
25.09.2019 08:18 11,8 °C 90 % 1009,4 hPa 0,0 mm 6,4 km/h (2 Bft) W 265 ° 0 min 0,000 mm 0,0 UV-I 14 W/m² 10,2 °C 11,8 °C 9,7 km/h (2 Bft)
25.09.2019 08:19 11,8 °C 90 % 1009,4 hPa 0,0 mm 3,8 km/h (1 Bft) W-SW 249 ° 0 min 0,000 mm 0,0 UV-I 16 W/m² 10,2 °C 11,8 °C 8,0 km/h (2 Bft)
25.09.2019 08:20 11,8 °C 90 % 1009,4 hPa 0,0 mm 1,0 km/h (0 Bft) W-SW 248 ° 0 min 0,000 mm 0,0 UV-I 16 W/m² 10,2 °C 11,8 °C 4,8 km/h (1 Bft)
25.09.2019 08:21 11,8 °C 90 % 1009,4 hPa 0,0 mm 3,2 km/h (1 Bft) W-SW 242 ° 0 min 0,000 mm 0,0 UV-I 16 W/m² 10,2 °C 11,8 °C 6,4 km/h (2 Bft)
25.09.2019 08:22 11,7 °C 90 % 1009,4 hPa 0,0 mm 3,6 km/h (1 Bft) W 268 ° 0 min 0,000 mm 0,0 UV-I 16 W/m² 10,1 °C 11,7 °C 6,4 km/h (2 Bft)
25.09.2019 08:23 11,8 °C 90 % 1009,4 hPa 0,0 mm 4,3 km/h (1 Bft) W 261 ° 0 min 0,000 mm 0,0 UV-I 18 W/m² 10,2 °C 11,8 °C 6,4 km/h (2 Bft)
25.09.2019 08:24 11,8 °C 90 % 1009,4 hPa 0,0 mm 4,3 km/h (1 Bft) W-SW 243 ° 0 min 0,000 mm 0,0 UV-I 21 W/m² 10,2 °C 11,8 °C 6,4 km/h (2 Bft)
25.09.2019 08:25 11,7 °C 90 % 1009,4 hPa 0,0 mm 1,9 km/h (1 Bft) W-SW 243 ° 0 min 0,000 mm 0,0 UV-I 21 W/m² 10,1 °C 11,7 °C 4,8 km/h (1 Bft)
25.09.2019 08:26 11,7 °C 90 % 1009,4 hPa 0,0 mm 0,0 km/h (0 Bft) W-SW 242 ° 0 min 0,000 mm 0,0 UV-I 23 W/m² 10,1 °C 11,7 °C 0,0 km/h (0 Bft)
25.09.2019 08:27 11,7 °C 91 % 1009,4 hPa 0,0 mm 3,0 km/h (1 Bft) S-SW 212 ° 0 min 0,000 mm 0,0 UV-I 25 W/m² 10,3 °C 11,7 °C 6,4 km/h (2 Bft)
25.09.2019 08:28 11,7 °C 91 % 1009,4 hPa 0,0 mm 0,1 km/h (0 Bft) S-SW 212 ° 0 min 0,000 mm 0,0 UV-I 26 W/m² 10,3 °C 11,7 °C 1,6 km/h (1 Bft)
25.09.2019 08:29 11,7 °C 91 % 1009,4 hPa 0,0 mm 2,3 km/h (1 Bft) S 184 ° 0 min 0,000 mm 0,0 UV-I 26 W/m² 10,3 °C 11,7 °C 8,0 km/h (2 Bft)
25.09.2019 08:30 11,7 °C 91 % 1009,4 hPa 0,0 mm 2,1 km/h (1 Bft) W-SW 241 ° 0 min 0,000 mm 0,0 UV-I 30 W/m² 10,3 °C 11,7 °C 4,8 km/h (1 Bft)
25.09.2019 08:31 11,8 °C 91 % 1009,3 hPa 0,0 mm 0,9 km/h (0 Bft) W-SW 241 ° 0 min 0,000 mm 0,0 UV-I 30 W/m² 10,4 °C 11,8 °C 3,2 km/h (1 Bft)
25.09.2019 08:32 11,8 °C 90 % 1009,3 hPa 0,0 mm 0,0 km/h (0 Bft) W-SW 241 ° 0 min 0,000 mm 0,0 UV-I 32 W/m² 10,2 °C 11,8 °C 0,0 km/h (0 Bft)
25.09.2019 08:33 11,8 °C 91 % 1009,3 hPa 0,0 mm 2,1 km/h (1 Bft) SW 218 ° 0 min 0,000 mm 0,0 UV-I 32 W/m² 10,4 °C 11,8 °C 3,2 km/h (1 Bft)
25.09.2019 08:34 11,7 °C 91 % 1009,3 hPa 0,0 mm 1,9 km/h (1 Bft) SW 216 ° 0 min 0,000 mm 0,0 UV-I 32 W/m² 10,3 °C 11,7 °C 4,8 km/h (1 Bft)
25.09.2019 08:35 11,8 °C 91 % 1009,3 hPa 0,0 mm 1,7 km/h (1 Bft) SW 221 ° 0 min 0,000 mm 0,0 UV-I 32 W/m² 10,4 °C 11,8 °C 3,2 km/h (1 Bft)
25.09.2019 08:36 11,7 °C 91 % 1009,3 hPa 0,0 mm 0,6 km/h (0 Bft) SW 234 ° 0 min 0,000 mm 0,0 UV-I 32 W/m² 10,3 °C 11,7 °C 3,2 km/h (1 Bft)
25.09.2019 08:37 11,8 °C 91 % 1009,3 hPa 0,0 mm 3,8 km/h (1 Bft) SW 235 ° 0 min 0,000 mm 0,0 UV-I 32 W/m² 10,4 °C 11,8 °C 4,8 km/h (1 Bft)
25.09.2019 08:38 11,7 °C 91 % 1009,3 hPa 0,0 mm 3,4 km/h (1 Bft) W-SW 252 ° 0 min 0,000 mm 0,0 UV-I 32 W/m² 10,3 °C 11,7 °C 4,8 km/h (1 Bft)
25.09.2019 08:39 11,7 °C 91 % 1009,4 hPa 0,0 mm 1,4 km/h (1 Bft) W-SW 252 ° 0 min 0,000 mm 0,0 UV-I 32 W/m² 10,3 °C 11,7 °C 3,2 km/h (1 Bft)
25.09.2019 08:40 11,7 °C 91 % 1009,4 hPa 0,0 mm 0,8 km/h (0 Bft) W-SW 252 ° 0 min 0,000 mm 0,0 UV-I 30 W/m² 10,3 °C 11,7 °C 4,8 km/h (1 Bft)
25.09.2019 08:41 11,7 °C 91 % 1009,4 hPa 0,0 mm 1,2 km/h (1 Bft) W-SW 252 ° 0 min 0,000 mm 0,0 UV-I 30 W/m² 10,3 °C 11,7 °C 3,2 km/h (1 Bft)
25.09.2019 08:42 11,7 °C 91 % 1009,4 hPa 0,0 mm 0,7 km/h (0 Bft) W-SW 252 ° 0 min 0,000 mm 0,0 UV-I 30 W/m² 10,3 °C 11,7 °C 1,6 km/h (1 Bft)
25.09.2019 08:43 11,7 °C 91 % 1009,4 hPa 0,0 mm 0,5 km/h (0 Bft) W-SW 252 ° 0 min 0,000 mm 0,0 UV-I 30 W/m² 10,3 °C 11,7 °C 1,6 km/h (1 Bft)
25.09.2019 08:44 11,7 °C 91 % 1009,4 hPa 0,0 mm 1,1 km/h (1 Bft) S 173 ° 0 min 0,000 mm 0,0 UV-I 30 W/m² 10,3 °C 11,7 °C 4,8 km/h (1 Bft)
25.09.2019 08:45 11,7 °C 91 % 1009,4 hPa 0,0 mm 2,5 km/h (1 Bft) S-SW 202 ° 0 min 0,000 mm 0,0 UV-I 30 W/m² 10,3 °C 11,7 °C 3,2 km/h (1 Bft)
25.09.2019 08:46 11,7 °C 91 % 1009,4 hPa 0,2 mm 2,3 km/h (1 Bft) S-SW 200 ° 0 min 0,000 mm 0,0 UV-I 30 W/m² 10,3 °C 11,7 °C 3,2 km/h (1 Bft)
25.09.2019 08:47 11,7 °C 91 % 1009,4 hPa 0,0 mm 0,2 km/h (0 Bft) S-SW 200 ° 0 min 0,000 mm 0,0 UV-I 28 W/m² 10,3 °C 11,7 °C 1,6 km/h (1 Bft)
25.09.2019 08:48 11,7 °C 91 % 1009,4 hPa 0,0 mm 1,1 km/h (1 Bft) W-SW 252 ° 0 min 0,000 mm 0,0 UV-I 28 W/m² 10,3 °C 11,7 °C 4,8 km/h (1 Bft)
25.09.2019 08:49 11,6 °C 91 % 1009,4 hPa 0,0 mm 2,6 km/h (1 Bft) W-SW 254 ° 0 min 0,000 mm 0,0 UV-I 28 W/m² 10,2 °C 11,6 °C 4,8 km/h (1 Bft)
25.09.2019 08:50 11,6 °C 91 % 1009,4 hPa 0,0 mm 7,0 km/h (2 Bft) W 267 ° 0 min 0,000 mm 0,0 UV-I 28 W/m² 10,2 °C 11,6 °C 11,3 km/h (2 Bft)
25.09.2019 08:51 11,6 °C 91 % 1009,4 hPa 0,0 mm 4,9 km/h (1 Bft) SW 234 ° 0 min 0,000 mm 0,0 UV-I 32 W/m² 10,2 °C 11,6 °C 8,0 km/h (2 Bft)
25.09.2019 08:52 11,6 °C 91 % 1009,4 hPa 0,0 mm 1,3 km/h (1 Bft) SW 234 ° 0 min 0,000 mm 0,0 UV-I 33 W/m² 10,2 °C 11,6 °C 3,2 km/h (1 Bft)
25.09.2019 08:53 11,6 °C 92 % 1009,4 hPa 0,0 mm 0,0 km/h (0 Bft) W-SW 237 ° 0 min 0,000 mm 0,0 UV-I 37 W/m² 10,3 °C 11,6 °C 0,0 km/h (0 Bft)
25.09.2019 08:54 11,6 °C 92 % 1009,4 hPa 0,0 mm 1,2 km/h (1 Bft) W-SW 239 ° 0 min 0,000 mm 0,0 UV-I 42 W/m² 10,3 °C 11,6 °C 3,2 km/h (1 Bft)
25.09.2019 08:55 11,5 °C 92 % 1009,5 hPa 0,0 mm 0,6 km/h (0 Bft) W-SW 239 ° 0 min 0,000 mm 0,0 UV-I 44 W/m² 10,2 °C 11,5 °C 3,2 km/h (1 Bft)
25.09.2019 08:56 11,6 °C 92 % 1009,5 hPa 0,0 mm 0,1 km/h (0 Bft) W-SW 239 ° 0 min 0,000 mm 0,0 UV-I 44 W/m² 10,3 °C 11,6 °C 1,6 km/h (1 Bft)
25.09.2019 08:57 11,5 °C 92 % 1009,5 hPa 0,0 mm 0,0 km/h (0 Bft) W-SW 239 ° 0 min 0,000 mm 0,0 UV-I 44 W/m² 10,2 °C 11,5 °C 0,0 km/h (0 Bft)
25.09.2019 08:58 11,5 °C 92 % 1009,5 hPa 0,0 mm 3,7 km/h (1 Bft) W-SW 254 ° 0 min 0,000 mm 0,0 UV-I 44 W/m² 10,2 °C 11,5 °C 6,4 km/h (2 Bft)
25.09.2019 08:59 11,5 °C 92 % 1009,5 hPa 0,0 mm 1,2 km/h (1 Bft) W-SW 244 ° 0 min 0,000 mm 0,0 UV-I 46 W/m² 10,2 °C 11,5 °C 4,8 km/h (1 Bft)
25.09.2019 09:00 11,5 °C 92 % 1009,4 hPa 0,0 mm 1,8 km/h (1 Bft) W-SW 244 ° 0 min 0,025 mm 0,0 UV-I 49 W/m² 10,2 °C 11,5 °C 3,2 km/h (1 Bft)
25.09.2019 09:01 11,5 °C 92 % 1009,4 hPa 0,0 mm 0,5 km/h (0 Bft) W-SW 244 ° 0 min 0,000 mm 0,0 UV-I 49 W/m² 10,2 °C 11,5 °C 3,2 km/h (1 Bft)
25.09.2019 09:02 11,5 °C 92 % 1009,4 hPa 0,0 mm 2,0 km/h (1 Bft) W-SW 238 ° 0 min 0,000 mm 0,0 UV-I 53 W/m² 10,2 °C 11,5 °C 4,8 km/h (1 Bft)
25.09.2019 09:03 11,5 °C 92 % 1009,4 hPa 0,0 mm 0,0 km/h (0 Bft) W-SW 238 ° 0 min 0,000 mm 0,0 UV-I 54 W/m² 10,2 °C 11,5 °C 0,0 km/h (0 Bft)
25.09.2019 09:04 11,5 °C 92 % 1009,4 hPa 0,0 mm 0,3 km/h (0 Bft) SW 235 ° 0 min 0,000 mm 0,0 UV-I 54 W/m² 10,2 °C 11,5 °C 1,6 km/h (1 Bft)
25.09.2019 09:05 11,5 °C 92 % 1009,4 hPa 0,0 mm 1,7 km/h (1 Bft) W-SW 250 ° 0 min 0,000 mm 0,0 UV-I 54 W/m² 10,2 °C 11,5 °C 4,8 km/h (1 Bft)
25.09.2019 09:06 11,5 °C 92 % 1009,4 hPa 0,0 mm 5,6 km/h (1 Bft) W-SW 238 ° 0 min 0,000 mm 0,0 UV-I 54 W/m² 10,2 °C 11,5 °C 9,7 km/h (2 Bft)
25.09.2019 09:07 11,5 °C 92 % 1009,4 hPa 0,0 mm 3,4 km/h (1 Bft) SW 217 ° 0 min 0,000 mm 0,0 UV-I 54 W/m² 10,2 °C 11,5 °C 4,8 km/h (1 Bft)
25.09.2019 09:08 11,5 °C 92 % 1009,3 hPa 0,0 mm 3,8 km/h (1 Bft) W 259 ° 0 min 0,000 mm 0,0 UV-I 54 W/m² 10,2 °C 11,5 °C 6,4 km/h (2 Bft)
25.09.2019 09:09 11,5 °C 92 % 1009,4 hPa 0,0 mm 4,4 km/h (1 Bft) W-SW 249 ° 0 min 0,000 mm 0,0 UV-I 54 W/m² 10,2 °C 11,5 °C 8,0 km/h (2 Bft)
25.09.2019 09:10 11,6 °C 92 % 1009,4 hPa 0,0 mm 2,8 km/h (1 Bft) W-SW 252 ° 0 min 0,000 mm 0,0 UV-I 56 W/m² 10,3 °C 11,6 °C 6,4 km/h (2 Bft)
25.09.2019 09:11 11,6 °C 92 % 1009,4 hPa 0,0 mm 3,1 km/h (1 Bft) W-SW 242 ° 0 min 0,000 mm 0,0 UV-I 62 W/m² 10,3 °C 11,6 °C 6,4 km/h (2 Bft)
25.09.2019 09:12 11,6 °C 92 % 1009,4 hPa 0,0 mm 4,8 km/h (1 Bft) W 272 ° 0 min 0,000 mm 0,0 UV-I 63 W/m² 10,3 °C 11,6 °C 9,7 km/h (2 Bft)
25.09.2019 09:13 11,6 °C 92 % 1009,4 hPa 0,0 mm 3,8 km/h (1 Bft) SW 234 ° 0 min 0,000 mm 0,5 UV-I 67 W/m² 10,3 °C 11,6 °C 6,4 km/h (2 Bft)
25.09.2019 09:14 11,6 °C 92 % 1009,5 hPa 0,0 mm 8,1 km/h (2 Bft) W 274 ° 0 min 0,000 mm 0,5 UV-I 69 W/m² 10,3 °C 11,6 °C 12,9 km/h (3 Bft)
25.09.2019 09:15 11,6 °C 92 % 1009,5 hPa 0,0 mm 5,1 km/h (1 Bft) W 265 ° 0 min 0,000 mm 0,5 UV-I 70 W/m² 10,3 °C 11,6 °C 6,4 km/h (2 Bft)
25.09.2019 09:16 11,6 °C 91 % 1009,4 hPa 0,2 mm 2,7 km/h (1 Bft) W-SW 254 ° 0 min 0,000 mm 0,5 UV-I 72 W/m² 10,2 °C 11,6 °C 4,8 km/h (1 Bft)
25.09.2019 09:17 11,6 °C 92 % 1009,5 hPa 0,0 mm 3,1 km/h (1 Bft) S-SW 209 ° 0 min 0,000 mm 0,5 UV-I 70 W/m² 10,3 °C 11,6 °C 6,4 km/h (2 Bft)
25.09.2019 09:18 11,6 °C 91 % 1009,5 hPa 0,0 mm 6,8 km/h (2 Bft) SW 221 ° 0 min 0,000 mm 0,5 UV-I 70 W/m² 10,2 °C 11,6 °C 17,7 km/h (3 Bft)
25.09.2019 09:19 11,6 °C 91 % 1009,5 hPa 0,0 mm 4,7 km/h (1 Bft) W 263 ° 0 min 0,000 mm 0,5 UV-I 70 W/m² 10,2 °C 11,6 °C 9,7 km/h (2 Bft)
25.09.2019 09:20 11,7 °C 91 % 1009,5 hPa 0,0 mm 5,6 km/h (1 Bft) W-SW 248 ° 0 min 0,000 mm 0,5 UV-I 72 W/m² 10,3 °C 11,7 °C 9,7 km/h (2 Bft)
25.09.2019 09:21 11,7 °C 91 % 1009,5 hPa 0,0 mm 2,5 km/h (1 Bft) S-SW 211 ° 0 min 0,000 mm 0,5 UV-I 72 W/m² 10,3 °C 11,7 °C 4,8 km/h (1 Bft)
25.09.2019 09:22 11,7 °C 91 % 1009,5 hPa 0,0 mm 1,1 km/h (1 Bft) SW 227 ° 0 min 0,000 mm 0,5 UV-I 72 W/m² 10,3 °C 11,7 °C 3,2 km/h (1 Bft)
25.09.2019 09:23 11,7 °C 91 % 1009,4 hPa 0,0 mm 0,5 km/h (0 Bft) SW 227 ° 0 min 0,000 mm 0,5 UV-I 72 W/m² 10,3 °C 11,7 °C 1,6 km/h (1 Bft)
25.09.2019 09:24 11,7 °C 91 % 1009,4 hPa 0,0 mm 0,1 km/h (0 Bft) SW 227 ° 0 min 0,000 mm 0,5 UV-I 72 W/m² 10,3 °C 11,7 °C 1,6 km/h (1 Bft)
25.09.2019 09:25 11,7 °C 91 % 1009,5 hPa 0,0 mm 0,0 km/h (0 Bft) SW 227 ° 0 min 0,000 mm 0,5 UV-I 72 W/m² 10,3 °C 11,7 °C 0,0 km/h (0 Bft)
25.09.2019 09:26 11,7 °C 91 % 1009,5 hPa 0,0 mm 0,0 km/h (0 Bft) SW 227 ° 0 min 0,000 mm 0,5 UV-I 72 W/m² 10,3 °C 11,7 °C 0,0 km/h (0 Bft)
25.09.2019 09:27 11,7 °C 91 % 1009,5 hPa 0,0 mm 4,7 km/h (1 Bft) W-NW 288 ° 0 min 0,000 mm 0,5 UV-I 72 W/m² 10,3 °C 11,7 °C 6,4 km/h (2 Bft)
25.09.2019 09:28 11,7 °C 91 % 1009,6 hPa 0,0 mm 5,7 km/h (1 Bft) W-SW 257 ° 0 min 0,000 mm 0,5 UV-I 72 W/m² 10,3 °C 11,7 °C 12,9 km/h (3 Bft)
25.09.2019 09:29 11,7 °C 91 % 1009,7 hPa 0,0 mm 4,7 km/h (1 Bft) S-SW 201 ° 0 min 0,000 mm 0,5 UV-I 72 W/m² 10,3 °C 11,7 °C 9,7 km/h (2 Bft)
25.09.2019 09:30 11,7 °C 91 % 1009,6 hPa 0,0 mm 2,0 km/h (1 Bft) W-SW 240 ° 0 min 0,000 mm 0,6 UV-I 74 W/m² 10,3 °C 11,7 °C 3,2 km/h (1 Bft)
25.09.2019 09:31 11,7 °C 92 % 1009,6 hPa 0,0 mm 2,6 km/h (1 Bft) W-NW 289 ° 0 min 0,000 mm 0,6 UV-I 74 W/m² 10,4 °C 11,7 °C 4,8 km/h (1 Bft)
25.09.2019 09:32 11,7 °C 92 % 1009,7 hPa 0,0 mm 3,6 km/h (1 Bft) W 259 ° 0 min 0,000 mm 0,6 UV-I 76 W/m² 10,4 °C 11,7 °C 6,4 km/h (2 Bft)
25.09.2019 09:33 11,7 °C 91 % 1009,7 hPa 0,0 mm 3,8 km/h (1 Bft) W-SW 250 ° 0 min 0,000 mm 0,6 UV-I 76 W/m² 10,3 °C 11,7 °C 6,4 km/h (2 Bft)
25.09.2019 09:34 11,7 °C 91 % 1009,7 hPa 0,0 mm 3,7 km/h (1 Bft) W 265 ° 0 min 0,000 mm 0,6 UV-I 76 W/m² 10,3 °C 11,7 °C 6,4 km/h (2 Bft)
25.09.2019 09:35 11,7 °C 91 % 1009,7 hPa 0,0 mm 3,3 km/h (1 Bft) SW 215 ° 0 min 0,000 mm 0,6 UV-I 79 W/m² 10,3 °C 11,7 °C 4,8 km/h (1 Bft)
25.09.2019 09:36 11,7 °C 91 % 1009,8 hPa 0,0 mm 1,4 km/h (1 Bft) W-SW 255 ° 0 min 0,000 mm 0,6 UV-I 81 W/m² 10,3 °C 11,7 °C 8,0 km/h (2 Bft)
25.09.2019 09:37 11,8 °C 91 % 1009,8 hPa 0,0 mm 3,9 km/h (1 Bft) W-SW 257 ° 0 min 0,000 mm 0,7 UV-I 81 W/m² 10,4 °C 11,8 °C 6,4 km/h (2 Bft)
25.09.2019 09:38 11,8 °C 91 % 1009,8 hPa 0,0 mm 2,5 km/h (1 Bft) W-SW 257 ° 0 min 0,000 mm 0,7 UV-I 84 W/m² 10,4 °C 11,8 °C 3,2 km/h (1 Bft)
25.09.2019 09:39 11,8 °C 91 % 1009,8 hPa 0,0 mm 0,3 km/h (0 Bft) W-SW 257 ° 0 min 0,000 mm 0,7 UV-I 86 W/m² 10,4 °C 11,8 °C 1,6 km/h (1 Bft)
25.09.2019 09:40 11,8 °C 91 % 1009,8 hPa 0,2 mm 1,4 km/h (1 Bft) W-SW 257 ° 0 min 0,000 mm 0,7 UV-I 88 W/m² 10,4 °C 11,8 °C 3,2 km/h (1 Bft)
25.09.2019 09:41 11,8 °C 92 % 1009,8 hPa 0,0 mm 1,9 km/h (1 Bft) S 188 ° 0 min 0,000 mm 0,7 UV-I 88 W/m² 10,5 °C 11,8 °C 4,8 km/h (1 Bft)
25.09.2019 09:42 11,8 °C 91 % 1009,7 hPa 0,0 mm 0,7 km/h (0 Bft) S 189 ° 0 min 0,000 mm 0,7 UV-I 88 W/m² 10,4 °C 11,8 °C 1,6 km/h (1 Bft)
25.09.2019 09:43 11,8 °C 91 % 1009,7 hPa 0,0 mm 5,2 km/h (1 Bft) W 279 ° 0 min 0,000 mm 0,7 UV-I 88 W/m² 10,4 °C 11,8 °C 8,0 km/h (2 Bft)
25.09.2019 09:44 11,8 °C 91 % 1009,7 hPa 0,0 mm 3,3 km/h (1 Bft) SW 224 ° 0 min 0,000 mm 0,7 UV-I 91 W/m² 10,4 °C 11,8 °C 8,0 km/h (2 Bft)
25.09.2019 09:45 11,9 °C 90 % 1009,7 hPa 0,0 mm 2,0 km/h (1 Bft) SW 224 ° 0 min 0,000 mm 0,7 UV-I 91 W/m² 10,3 °C 11,9 °C 6,4 km/h (2 Bft)
25.09.2019 09:46 11,9 °C 91 % 1009,7 hPa 0,0 mm 3,6 km/h (1 Bft) SW 234 ° 0 min 0,000 mm 0,7 UV-I 97 W/m² 10,5 °C 11,9 °C 6,4 km/h (2 Bft)
25.09.2019 09:47 12,0 °C 90 % 1009,7 hPa 0,0 mm 0,2 km/h (0 Bft) SW 234 ° 0 min 0,000 mm 0,8 UV-I 100 W/m² 10,4 °C 12,0 °C 1,6 km/h (1 Bft)
25.09.2019 09:48 12,0 °C 90 % 1009,7 hPa 0,0 mm 0,0 km/h (0 Bft) SW 234 ° 0 min 0,000 mm 0,8 UV-I 102 W/m² 10,4 °C 12,0 °C 0,0 km/h (0 Bft)
25.09.2019 09:49 12,1 °C 90 % 1009,7 hPa 0,0 mm 1,7 km/h (1 Bft) W-SW 240 ° 0 min 0,000 mm 0,8 UV-I 100 W/m² 10,5 °C 12,1 °C 3,2 km/h (1 Bft)
25.09.2019 09:50 12,1 °C 90 % 1009,7 hPa 0,0 mm 3,3 km/h (1 Bft) W-SW 247 ° 0 min 0,000 mm 0,8 UV-I 102 W/m² 10,5 °C 12,1 °C 6,4 km/h (2 Bft)
25.09.2019 09:51 12,1 °C 90 % 1009,7 hPa 0,0 mm 1,8 km/h (1 Bft) W-SW 240 ° 0 min 0,000 mm 0,9 UV-I 105 W/m² 10,5 °C 12,1 °C 4,8 km/h (1 Bft)
25.09.2019 09:52 12,1 °C 90 % 1009,8 hPa 0,0 mm 0,7 km/h (0 Bft) W-SW 240 ° 0 min 0,000 mm 0,9 UV-I 107 W/m² 10,5 °C 12,1 °C 1,6 km/h (1 Bft)
25.09.2019 09:53 12,1 °C 90 % 1009,7 hPa 0,0 mm 1,5 km/h (1 Bft) SW 221 ° 0 min 0,000 mm 0,8 UV-I 102 W/m² 10,5 °C 12,1 °C 3,2 km/h (1 Bft)
25.09.2019 09:54 12,2 °C 90 % 1009,7 hPa 0,0 mm 2,8 km/h (1 Bft) S-SW 209 ° 0 min 0,000 mm 0,8 UV-I 95 W/m² 10,6 °C 12,2 °C 6,4 km/h (2 Bft)
25.09.2019 09:55 12,2 °C 90 % 1009,8 hPa 0,0 mm 2,5 km/h (1 Bft) S-SW 196 ° 0 min 0,000 mm 0,7 UV-I 93 W/m² 10,6 °C 12,2 °C 3,2 km/h (1 Bft)
25.09.2019 09:56 12,2 °C 89 % 1009,7 hPa 0,0 mm 3,1 km/h (1 Bft) W-SW 250 ° 0 min 0,000 mm 0,8 UV-I 98 W/m² 10,4 °C 12,2 °C 6,4 km/h (2 Bft)
25.09.2019 09:57 12,2 °C 89 % 1009,8 hPa 0,0 mm 3,9 km/h (1 Bft) W-SW 250 ° 0 min 0,000 mm 0,8 UV-I 105 W/m² 10,4 °C 12,2 °C 6,4 km/h (2 Bft)
25.09.2019 09:58 12,3 °C 89 % 1009,8 hPa 0,0 mm 1,8 km/h (1 Bft) S-SW 199 ° 0 min 0,000 mm 0,9 UV-I 114 W/m² 10,5 °C 12,3 °C 4,8 km/h (1 Bft)
25.09.2019 09:59 12,3 °C 89 % 1009,8 hPa 0,0 mm 2,7 km/h (1 Bft) W 273 ° 0 min 0,000 mm 0,9 UV-I 120 W/m² 10,5 °C 12,3 °C 6,4 km/h (2 Bft)
25.09.2019 10:00 12,3 °C 88 % 1009,8 hPa 0,0 mm 8,1 km/h (2 Bft) W-SW 244 ° 0 min 0,051 mm 1,0 UV-I 128 W/m² 10,4 °C 12,3 °C 17,7 km/h (3 Bft)
25.09.2019 10:01 12,4 °C 88 % 1009,8 hPa 0,0 mm 10,9 km/h (2 Bft) W-SW 248 ° 0 min 0,000 mm 1,0 UV-I 130 W/m² 10,5 °C 12,4 °C 16,1 km/h (3 Bft)
25.09.2019 10:02 12,4 °C 88 % 1009,8 hPa 0,0 mm 3,8 km/h (1 Bft) W 260 ° 0 min 0,000 mm 1,0 UV-I 130 W/m² 10,5 °C 12,4 °C 9,7 km/h (2 Bft)
25.09.2019 10:03 12,4 °C 88 % 1009,8 hPa 0,0 mm 5,8 km/h (2 Bft) W 277 ° 0 min 0,000 mm 1,0 UV-I 130 W/m² 10,5 °C 12,4 °C 9,7 km/h (2 Bft)
25.09.2019 10:04 12,5 °C 88 % 1009,8 hPa 0,0 mm 4,0 km/h (1 Bft) W 259 ° 0 min 0,000 mm 1,0 UV-I 130 W/m² 10,6 °C 12,5 °C 6,4 km/h (2 Bft)
25.09.2019 10:05 12,5 °C 87 % 1009,7 hPa 0,0 mm 3,1 km/h (1 Bft) W-NW 286 ° 0 min 0,000 mm 1,0 UV-I 130 W/m² 10,4 °C 12,5 °C 9,7 km/h (2 Bft)
25.09.2019 10:06 12,5 °C 88 % 1009,7 hPa 0,0 mm 5,4 km/h (1 Bft) W-SW 240 ° 0 min 0,000 mm 1,0 UV-I 132 W/m² 10,6 °C 12,5 °C 9,7 km/h (2 Bft)
25.09.2019 10:07 12,6 °C 88 % 1009,8 hPa 0,0 mm 4,6 km/h (1 Bft) S 190 ° 0 min 0,000 mm 1,1 UV-I 135 W/m² 10,7 °C 12,6 °C 6,4 km/h (2 Bft)
25.09.2019 10:08 12,5 °C 87 % 1009,8 hPa 0,0 mm 6,1 km/h (2 Bft) S-SW 198 ° 0 min 0,000 mm 1,1 UV-I 142 W/m² 10,4 °C 12,5 °C 9,7 km/h (2 Bft)
25.09.2019 10:09 12,6 °C 87 % 1009,8 hPa 0,0 mm 4,4 km/h (1 Bft) W-SW 252 ° 0 min 0,000 mm 1,2 UV-I 155 W/m² 10,5 °C 12,6 °C 8,0 km/h (2 Bft)
25.09.2019 10:10 12,5 °C 87 % 1009,8 hPa 0,2 mm 1,3 km/h (1 Bft) W-SW 251 ° 0 min 0,000 mm 1,3 UV-I 176 W/m² 10,4 °C 12,5 °C 3,2 km/h (1 Bft)
25.09.2019 10:11 12,6 °C 88 % 1009,8 hPa 0,0 mm 5,2 km/h (1 Bft) W-SW 252 ° 0 min 0,000 mm 1,4 UV-I 181 W/m² 10,7 °C 12,6 °C 6,4 km/h (2 Bft)
25.09.2019 10:12 12,6 °C 88 % 1009,7 hPa 0,0 mm 3,4 km/h (1 Bft) W-SW 238 ° 0 min 0,000 mm 1,4 UV-I 183 W/m² 10,7 °C 12,6 °C 6,4 km/h (2 Bft)
25.09.2019 10:13 12,6 °C 87 % 1009,8 hPa 0,0 mm 2,1 km/h (1 Bft) W-SW 248 ° 0 min 0,000 mm 1,4 UV-I 183 W/m² 10,5 °C 12,6 °C 6,4 km/h (2 Bft)
25.09.2019 10:14 12,6 °C 87 % 1009,8 hPa 0,0 mm 0,7 km/h (0 Bft) W-SW 248 ° 0 min 0,000 mm 1,5 UV-I 181 W/m² 10,5 °C 12,6 °C 3,2 km/h (1 Bft)
25.09.2019 10:15 12,6 °C 87 % 1009,8 hPa 0,0 mm 6,1 km/h (2 Bft) SW 226 ° 0 min 0,000 mm 1,4 UV-I 179 W/m² 10,5 °C 12,6 °C 12,9 km/h (3 Bft)
25.09.2019 10:16 12,7 °C 88 % 1009,8 hPa 0,0 mm 4,2 km/h (1 Bft) S-SW 202 ° 0 min 0,000 mm 1,5 UV-I 181 W/m² 10,8 °C 12,7 °C 6,4 km/h (2 Bft)
25.09.2019 10:17 12,7 °C 88 % 1009,8 hPa 0,0 mm 4,9 km/h (1 Bft) W-SW 244 ° 0 min 0,000 mm 1,4 UV-I 183 W/m² 10,8 °C 12,7 °C 11,3 km/h (2 Bft)
25.09.2019 10:18 12,7 °C 87 % 1009,8 hPa 0,0 mm 4,6 km/h (1 Bft) W-SW 254 ° 0 min 0,000 mm 1,4 UV-I 178 W/m² 10,6 °C 12,7 °C 6,4 km/h (2 Bft)
25.09.2019 10:19 12,8 °C 88 % 1009,7 hPa 0,0 mm 3,7 km/h (1 Bft) W 262 ° 0 min 0,000 mm 1,5 UV-I 183 W/m² 10,9 °C 12,8 °C 4,8 km/h (1 Bft)
25.09.2019 10:20 12,8 °C 88 % 1009,8 hPa 0,0 mm 4,3 km/h (1 Bft) SW 226 ° 0 min 0,000 mm 1,5 UV-I 190 W/m² 10,9 °C 12,8 °C 6,4 km/h (2 Bft)
25.09.2019 10:21 12,8 °C 88 % 1009,7 hPa 0,0 mm 5,2 km/h (1 Bft) W 261 ° 0 min 0,000 mm 1,5 UV-I 197 W/m² 10,9 °C 12,8 °C 9,7 km/h (2 Bft)
25.09.2019 10:22 12,9 °C 89 % 1009,8 hPa 0,0 mm 4,3 km/h (1 Bft) W-SW 239 ° 0 min 0,000 mm 1,6 UV-I 197 W/m² 11,1 °C 12,9 °C 6,4 km/h (2 Bft)
25.09.2019 10:23 12,9 °C 88 % 1009,7 hPa 0,0 mm 4,4 km/h (1 Bft) W 265 ° 0 min 0,000 mm 1,6 UV-I 204 W/m² 11,0 °C 12,9 °C 8,0 km/h (2 Bft)
25.09.2019 10:24 12,9 °C 87 % 1009,7 hPa 0,0 mm 3,2 km/h (1 Bft) W 265 ° 0 min 0,000 mm 1,7 UV-I 232 W/m² 10,8 °C 12,9 °C 4,8 km/h (1 Bft)
25.09.2019 10:25 12,9 °C 88 % 1009,8 hPa 0,0 mm 7,5 km/h (2 Bft) W 262 ° 0 min 0,000 mm 1,8 UV-I 258 W/m² 11,0 °C 12,9 °C 12,9 km/h (3 Bft)
25.09.2019 10:26 13,0 °C 88 % 1009,7 hPa 0,0 mm 6,1 km/h (2 Bft) W 271 ° 0 min 0,000 mm 1,9 UV-I 271 W/m² 11,1 °C 13,0 °C 11,3 km/h (2 Bft)
25.09.2019 10:27 13,0 °C 88 % 1009,7 hPa 0,0 mm 7,2 km/h (2 Bft) W 261 ° 0 min 0,000 mm 1,8 UV-I 239 W/m² 11,1 °C 13,0 °C 11,3 km/h (2 Bft)
25.09.2019 10:28 13,1 °C 88 % 1009,7 hPa 0,0 mm 4,2 km/h (1 Bft) W-SW 240 ° 0 min 0,000 mm 1,8 UV-I 295 W/m² 11,2 °C 13,1 °C 6,4 km/h (2 Bft)
25.09.2019 10:29 13,1 °C 88 % 1009,7 hPa 0,0 mm 3,8 km/h (1 Bft) W-SW 248 ° 0 min 0,000 mm 1,8 UV-I 237 W/m² 11,2 °C 13,1 °C 11,3 km/h (2 Bft)
25.09.2019 10:30 13,2 °C 89 % 1009,7 hPa 0,0 mm 6,2 km/h (2 Bft) W-SW 249 ° 0 min 0,000 mm 2,0 UV-I 279 W/m² 11,4 °C 13,2 °C 9,7 km/h (2 Bft)
25.09.2019 10:31 13,2 °C 88 % 1009,7 hPa 0,0 mm 4,4 km/h (1 Bft) W-SW 258 ° 0 min 0,000 mm 1,6 UV-I 195 W/m² 11,3 °C 13,2 °C 9,7 km/h (2 Bft)
25.09.2019 10:32 13,2 °C 88 % 1009,7 hPa 0,0 mm 6,1 km/h (2 Bft) NW 325 ° 0 min 0,000 mm 1,7 UV-I 185 W/m² 11,3 °C 13,2 °C 11,3 km/h (2 Bft)
25.09.2019 10:33 13,2 °C 88 % 1009,7 hPa 0,0 mm 5,2 km/h (1 Bft) W-NW 286 ° 0 min 0,000 mm 1,7 UV-I 206 W/m² 11,3 °C 13,2 °C 6,4 km/h (2 Bft)
25.09.2019 10:34 13,2 °C 88 % 1009,7 hPa 0,0 mm 3,9 km/h (1 Bft) W-NW 292 ° 0 min 0,000 mm 1,7 UV-I 206 W/m² 11,3 °C 13,2 °C 6,4 km/h (2 Bft)
25.09.2019 10:35 13,3 °C 89 % 1009,7 hPa 0,0 mm 4,8 km/h (1 Bft) W 264 ° 0 min 0,000 mm 2,0 UV-I 327 W/m² 11,5 °C 13,3 °C 6,4 km/h (2 Bft)
25.09.2019 10:36 13,3 °C 88 % 1009,7 hPa 0,0 mm 4,1 km/h (1 Bft) W-NW 286 ° 0 min 0,000 mm 1,7 UV-I 243 W/m² 11,4 °C 13,3 °C 9,7 km/h (2 Bft)
25.09.2019 10:37 13,3 °C 87 % 1009,7 hPa 0,0 mm 3,7 km/h (1 Bft) W-SW 248 ° 0 min 0,000 mm 1,6 UV-I 183 W/m² 11,2 °C 13,3 °C 6,4 km/h (2 Bft)
25.09.2019 10:38 13,3 °C 87 % 1009,6 hPa 0,0 mm 3,9 km/h (1 Bft) SW 232 ° 0 min 0,000 mm 1,6 UV-I 229 W/m² 11,2 °C 13,3 °C 6,4 km/h (2 Bft)
25.09.2019 10:39 13,3 °C 88 % 1009,7 hPa 0,0 mm 5,7 km/h (1 Bft) W-SW 245 ° 0 min 0,000 mm 1,6 UV-I 171 W/m² 11,4 °C 13,3 °C 12,9 km/h (3 Bft)
25.09.2019 10:40 13,3 °C 86 % 1009,7 hPa 0,2 mm 4,4 km/h (1 Bft) SW 235 ° 0 min 0,000 mm 1,6 UV-I 158 W/m² 11,0 °C 13,3 °C 8,0 km/h (2 Bft)
25.09.2019 10:41 13,2 °C 86 % 1009,7 hPa 0,0 mm 9,7 km/h (2 Bft) W-SW 257 ° 0 min 0,000 mm 1,7 UV-I 165 W/m² 10,9 °C 13,2 °C 20,9 km/h (4 Bft)
25.09.2019 10:42 13,2 °C 86 % 1009,6 hPa 0,0 mm 9,9 km/h (2 Bft) W-SW 249 ° 0 min 0,000 mm 1,9 UV-I 197 W/m² 10,9 °C 13,2 °C 16,1 km/h (3 Bft)
25.09.2019 10:43 13,2 °C 86 % 1009,6 hPa 0,0 mm 4,5 km/h (1 Bft) W 263 ° 0 min 0,000 mm 1,9 UV-I 206 W/m² 10,9 °C 13,2 °C 9,7 km/h (2 Bft)
25.09.2019 10:44 13,2 °C 86 % 1009,6 hPa 0,0 mm 4,2 km/h (1 Bft) W 264 ° 0 min 0,000 mm 2,6 UV-I 267 W/m² 10,9 °C 13,2 °C 9,7 km/h (2 Bft)
25.09.2019 10:45 13,2 °C 85 % 1009,7 hPa 0,0 mm 2,2 km/h (1 Bft) W-SW 254 ° 0 min 0,000 mm 1,9 UV-I 216 W/m² 10,7 °C 13,2 °C 6,4 km/h (2 Bft)
25.09.2019 10:46 13,2 °C 86 % 1009,6 hPa 0,0 mm 5,9 km/h (2 Bft) W 262 ° 0 min 0,000 mm 2,1 UV-I 279 W/m² 10,9 °C 13,2 °C 9,7 km/h (2 Bft)
25.09.2019 10:47 13,2 °C 86 % 1009,6 hPa 0,0 mm 9,4 km/h (2 Bft) W 279 ° 0 min 0,000 mm 2,2 UV-I 376 W/m² 10,9 °C 13,2 °C 16,1 km/h (3 Bft)
25.09.2019 10:48 13,3 °C 85 % 1009,6 hPa 0,0 mm 12,6 km/h (3 Bft) W 277 ° 0 min 0,000 mm 2,1 UV-I 376 W/m² 10,8 °C 13,3 °C 17,7 km/h (3 Bft)
25.09.2019 10:49 13,3 °C 85 % 1009,6 hPa 0,0 mm 7,7 km/h (2 Bft) W 259 ° 0 min 0,000 mm 2,5 UV-I 376 W/m² 10,8 °C 13,3 °C 11,3 km/h (2 Bft)
25.09.2019 10:50 13,4 °C 86 % 1009,6 hPa 0,0 mm 13,1 km/h (3 Bft) W-NW 283 ° 0 min 0,000 mm 2,7 UV-I 376 W/m² 11,1 °C 13,4 °C 16,1 km/h (3 Bft)
25.09.2019 10:51 13,5 °C 86 % 1009,6 hPa 0,0 mm 10,9 km/h (2 Bft) W 279 ° 0 min 0,000 mm 2,8 UV-I 376 W/m² 11,2 °C 13,5 °C 16,1 km/h (3 Bft)
25.09.2019 10:52 13,7 °C 87 % 1009,7 hPa 0,0 mm 6,9 km/h (2 Bft) W-SW 246 ° 0 min 0,000 mm 2,5 UV-I 376 W/m² 11,6 °C 13,7 °C 11,3 km/h (2 Bft)
25.09.2019 10:53 13,9 °C 86 % 1009,7 hPa 0,0 mm 8,2 km/h (2 Bft) W 279 ° 0 min 0,000 mm 2,6 UV-I 376 W/m² 11,6 °C 13,9 °C 12,9 km/h (3 Bft)
25.09.2019 10:54 14,0 °C 85 % 1009,7 hPa 0,0 mm 8,0 km/h (2 Bft) W 266 ° 0 min 0,000 mm 2,2 UV-I 376 W/m² 11,5 °C 14,0 °C 14,5 km/h (3 Bft)
25.09.2019 10:55 14,1 °C 85 % 1009,7 hPa 0,0 mm 7,5 km/h (2 Bft) W-SW 248 ° 0 min 0,000 mm 2,1 UV-I 265 W/m² 11,6 °C 14,1 °C 11,3 km/h (2 Bft)
25.09.2019 10:56 14,0 °C 84 % 1009,7 hPa 0,0 mm 8,5 km/h (2 Bft) W 265 ° 0 min 0,000 mm 1,9 UV-I 220 W/m² 11,3 °C 14,0 °C 12,9 km/h (3 Bft)
25.09.2019 10:57 14,0 °C 85 % 1009,7 hPa 0,0 mm 6,5 km/h (2 Bft) W-SW 256 ° 0 min 0,000 mm 1,8 UV-I 214 W/m² 11,5 °C 14,0 °C 12,9 km/h (3 Bft)
25.09.2019 10:58 13,9 °C 83 % 1009,7 hPa 0,0 mm 6,6 km/h (2 Bft) W-NW 284 ° 0 min 0,000 mm 1,9 UV-I 232 W/m² 11,1 °C 13,9 °C 11,3 km/h (2 Bft)
25.09.2019 10:59 13,9 °C 83 % 1009,7 hPa 0,0 mm 9,9 km/h (2 Bft) W-SW 238 ° 0 min 0,000 mm 1,9 UV-I 250 W/m² 11,1 °C 13,9 °C 12,9 km/h (3 Bft)
25.09.2019 11:00 13,8 °C 84 % 1009,7 hPa 0,0 mm 9,7 km/h (2 Bft) W-SW 254 ° 0 min 0,127 mm 1,9 UV-I 251 W/m² 11,1 °C 13,8 °C 12,9 km/h (3 Bft)
25.09.2019 11:01 13,9 °C 84 % 1009,7 hPa 0,0 mm 11,5 km/h (2 Bft) W 277 ° 0 min 0,000 mm 1,9 UV-I 251 W/m² 11,2 °C 13,9 °C 19,3 km/h (3 Bft)
25.09.2019 11:02 13,8 °C 84 % 1009,7 hPa 0,0 mm 12,0 km/h (2 Bft) W 268 ° 0 min 0,000 mm 2,0 UV-I 258 W/m² 11,1 °C 13,8 °C 20,9 km/h (4 Bft)
25.09.2019 11:03 13,8 °C 83 % 1009,7 hPa 0,0 mm 14,6 km/h (3 Bft) W-SW 252 ° 0 min 0,000 mm 2,1 UV-I 306 W/m² 11,0 °C 13,8 °C 22,5 km/h (4 Bft)
25.09.2019 11:04 13,8 °C 84 % 1009,7 hPa 0,0 mm 8,5 km/h (2 Bft) W 263 ° 0 min 0,000 mm 2,1 UV-I 309 W/m² 11,1 °C 13,8 °C 14,5 km/h (3 Bft)
25.09.2019 11:05 13,8 °C 84 % 1009,7 hPa 0,0 mm 6,3 km/h (2 Bft) W 271 ° 0 min 0,000 mm 2,2 UV-I 311 W/m² 11,1 °C 13,8 °C 12,9 km/h (3 Bft)
25.09.2019 11:06 13,9 °C 85 % 1009,7 hPa 0,0 mm 4,7 km/h (1 Bft) W-NW 287 ° 0 min 0,000 mm 2,1 UV-I 309 W/m² 11,4 °C 13,9 °C 9,7 km/h (2 Bft)
25.09.2019 11:07 14,0 °C 86 % 1009,7 hPa 0,0 mm 7,1 km/h (2 Bft) W-NW 291 ° 0 min 0,000 mm 2,1 UV-I 306 W/m² 11,7 °C 14,0 °C 9,7 km/h (2 Bft)
25.09.2019 11:08 14,0 °C 85 % 1009,7 hPa 0,0 mm 13,4 km/h (3 Bft) W 265 ° 0 min 0,000 mm 2,1 UV-I 318 W/m² 11,5 °C 14,0 °C 20,9 km/h (4 Bft)
25.09.2019 11:09 14,1 °C 85 % 1009,7 hPa 0,0 mm 8,1 km/h (2 Bft) W-NW 285 ° 0 min 0,000 mm 2,0 UV-I 283 W/m² 11,6 °C 14,1 °C 12,9 km/h (3 Bft)
25.09.2019 11:10 14,1 °C 84 % 1009,7 hPa 0,0 mm 8,4 km/h (2 Bft) W 275 ° 0 min 0,000 mm 2,0 UV-I 302 W/m² 11,4 °C 14,1 °C 12,9 km/h (3 Bft)
25.09.2019 11:11 14,0 °C 85 % 1009,7 hPa 0,0 mm 7,5 km/h (2 Bft) W 263 ° 0 min 0,000 mm 2,1 UV-I 359 W/m² 11,5 °C 14,0 °C 14,5 km/h (3 Bft)
25.09.2019 11:12 14,1 °C 84 % 1009,8 hPa 0,0 mm 6,7 km/h (2 Bft) W-NW 298 ° 0 min 0,000 mm 2,1 UV-I 380 W/m² 11,4 °C 14,1 °C 12,9 km/h (3 Bft)
25.09.2019 11:13 14,1 °C 84 % 1009,8 hPa 0,0 mm 13,4 km/h (3 Bft) W-NW 284 ° 0 min 0,000 mm 2,1 UV-I 452 W/m² 11,4 °C 14,1 °C 19,3 km/h (3 Bft)
25.09.2019 11:14 14,1 °C 84 % 1009,7 hPa 0,0 mm 13,3 km/h (3 Bft) W-NW 284 ° 0 min 0,000 mm 1,7 UV-I 253 W/m² 11,4 °C 14,1 °C 17,7 km/h (3 Bft)
25.09.2019 11:15 14,1 °C 83 % 1009,7 hPa 0,0 mm 10,8 km/h (2 Bft) W-NW 302 ° 0 min 0,000 mm 1,6 UV-I 244 W/m² 11,3 °C 14,1 °C 14,5 km/h (3 Bft)
25.09.2019 11:16 14,0 °C 84 % 1009,6 hPa 0,0 mm 4,7 km/h (1 Bft) W-NW 293 ° 0 min 0,000 mm 1,5 UV-I 237 W/m² 11,3 °C 14,0 °C 8,0 km/h (2 Bft)
25.09.2019 11:17 13,9 °C 85 % 1009,7 hPa 0,0 mm 10,0 km/h (2 Bft) W-SW 240 ° 0 min 0,000 mm 1,4 UV-I 206 W/m² 11,4 °C 13,9 °C 14,5 km/h (3 Bft)
25.09.2019 11:18 13,8 °C 83 % 1009,6 hPa 0,0 mm 5,8 km/h (2 Bft) W 272 ° 0 min 0,000 mm 1,4 UV-I 200 W/m² 11,0 °C 13,8 °C 9,7 km/h (2 Bft)
25.09.2019 11:19 13,8 °C 84 % 1009,6 hPa 0,0 mm 13,1 km/h (3 Bft) W-SW 245 ° 0 min 0,000 mm 1,4 UV-I 202 W/m² 11,1 °C 13,8 °C 16,1 km/h (3 Bft)
25.09.2019 11:20 13,8 °C 84 % 1009,6 hPa 0,0 mm 12,1 km/h (2 Bft) NW 304 ° 0 min 0,000 mm 1,4 UV-I 214 W/m² 11,1 °C 13,8 °C 16,1 km/h (3 Bft)
25.09.2019 11:21 13,7 °C 84 % 1009,6 hPa 0,0 mm 7,4 km/h (2 Bft) W 267 ° 0 min 0,000 mm 1,9 UV-I 274 W/m² 11,0 °C 13,7 °C 12,9 km/h (3 Bft)
25.09.2019 11:22 13,6 °C 85 % 1009,6 hPa 0,0 mm 5,4 km/h (1 Bft) W-NW 286 ° 0 min 0,000 mm 2,0 UV-I 302 W/m² 11,1 °C 13,6 °C 9,7 km/h (2 Bft)
25.09.2019 11:23 13,6 °C 85 % 1009,7 hPa 0,0 mm 4,4 km/h (1 Bft) W-SW 257 ° 0 min 0,000 mm 2,0 UV-I 279 W/m² 11,1 °C 13,6 °C 6,4 km/h (2 Bft)
25.09.2019 11:24 13,6 °C 87 % 1009,6 hPa 0,0 mm 4,3 km/h (1 Bft) W-SW 254 ° 0 min 0,000 mm 2,0 UV-I 260 W/m² 11,5 °C 13,6 °C 6,4 km/h (2 Bft)
25.09.2019 11:25 13,6 °C 86 % 1009,7 hPa 0,0 mm 9,2 km/h (2 Bft) W 267 ° 0 min 0,000 mm 2,1 UV-I 264 W/m² 11,3 °C 13,6 °C 14,5 km/h (3 Bft)
25.09.2019 11:26 13,6 °C 86 % 1009,7 hPa 0,0 mm 8,0 km/h (2 Bft) SW 236 ° 0 min 0,000 mm 2,2 UV-I 295 W/m² 11,3 °C 13,6 °C 11,3 km/h (2 Bft)
25.09.2019 11:27 13,6 °C 86 % 1009,7 hPa 0,0 mm 5,9 km/h (2 Bft) S-SW 209 ° 0 min 0,000 mm 2,3 UV-I 316 W/m² 11,3 °C 13,6 °C 9,7 km/h (2 Bft)
25.09.2019 11:28 13,7 °C 87 % 1009,6 hPa 0,0 mm 6,3 km/h (2 Bft) W 265 ° 0 min 0,000 mm 2,4 UV-I 350 W/m² 11,6 °C 13,7 °C 9,7 km/h (2 Bft)
25.09.2019 11:29 13,8 °C 88 % 1009,7 hPa 0,0 mm 6,2 km/h (2 Bft) SW 235 ° 0 min 0,000 mm 2,4 UV-I 390 W/m² 11,8 °C 13,8 °C 8,0 km/h (2 Bft)
25.09.2019 11:30 13,8 °C 88 % 1009,7 hPa 0,0 mm 6,2 km/h (2 Bft) W-SW 245 ° 0 min 0,000 mm 2,1 UV-I 390 W/m² 11,8 °C 13,8 °C 8,0 km/h (2 Bft)
25.09.2019 11:31 13,9 °C 88 % 1009,7 hPa 0,0 mm 5,4 km/h (1 Bft) W-SW 258 ° 0 min 0,000 mm 1,9 UV-I 255 W/m² 11,9 °C 13,9 °C 11,3 km/h (2 Bft)
25.09.2019 11:32 13,9 °C 87 % 1009,7 hPa 0,2 mm 4,2 km/h (1 Bft) W-SW 252 ° 0 min 0,000 mm 1,7 UV-I 225 W/m² 11,8 °C 13,9 °C 6,4 km/h (2 Bft)
25.09.2019 11:33 13,9 °C 87 % 1009,6 hPa 0,0 mm 4,5 km/h (1 Bft) W-NW 300 ° 0 min 0,000 mm 1,5 UV-I 209 W/m² 11,8 °C 13,9 °C 8,0 km/h (2 Bft)
25.09.2019 11:34 13,9 °C 87 % 1009,7 hPa 0,0 mm 4,4 km/h (1 Bft) W 269 ° 0 min 0,000 mm 1,4 UV-I 193 W/m² 11,8 °C 13,9 °C 9,7 km/h (2 Bft)
25.09.2019 11:35 13,9 °C 88 % 1009,7 hPa 0,0 mm 0,7 km/h (0 Bft) W-NW 291 ° 0 min 0,000 mm 1,3 UV-I 176 W/m² 11,9 °C 13,9 °C 3,2 km/h (1 Bft)
25.09.2019 11:36 13,9 °C 86 % 1009,7 hPa 0,0 mm 5,3 km/h (1 Bft) W-NW 293 ° 0 min 0,000 mm 1,3 UV-I 171 W/m² 11,6 °C 13,9 °C 9,7 km/h (2 Bft)
25.09.2019 11:37 13,8 °C 86 % 1009,6 hPa 0,0 mm 7,9 km/h (2 Bft) W-SW 257 ° 0 min 0,000 mm 1,3 UV-I 169 W/m² 11,5 °C 13,8 °C 12,9 km/h (3 Bft)
25.09.2019 11:38 13,8 °C 85 % 1009,6 hPa 0,0 mm 8,2 km/h (2 Bft) W 271 ° 0 min 0,000 mm 1,3 UV-I 178 W/m² 11,3 °C 13,8 °C 14,5 km/h (3 Bft)
25.09.2019 11:39 13,8 °C 85 % 1009,7 hPa 0,0 mm 4,4 km/h (1 Bft) W 279 ° 0 min 0,000 mm 1,4 UV-I 185 W/m² 11,3 °C 13,8 °C 4,8 km/h (1 Bft)
25.09.2019 11:40 13,7 °C 86 % 1009,6 hPa 0,0 mm 4,4 km/h (1 Bft) W-NW 282 ° 0 min 0,000 mm 1,4 UV-I 192 W/m² 11,4 °C 13,7 °C 12,9 km/h (3 Bft)
25.09.2019 11:41 13,7 °C 86 % 1009,6 hPa 0,0 mm 8,6 km/h (2 Bft) W-NW 287 ° 0 min 0,000 mm 1,5 UV-I 199 W/m² 11,4 °C 13,7 °C 11,3 km/h (2 Bft)
25.09.2019 11:42 13,7 °C 86 % 1009,7 hPa 0,0 mm 5,1 km/h (1 Bft) W 281 ° 0 min 0,000 mm 1,5 UV-I 202 W/m² 11,4 °C 13,7 °C 6,4 km/h (2 Bft)
25.09.2019 11:43 13,7 °C 86 % 1009,7 hPa 0,0 mm 5,8 km/h (2 Bft) W 274 ° 0 min 0,000 mm 1,5 UV-I 202 W/m² 11,4 °C 13,7 °C 11,3 km/h (2 Bft)
25.09.2019 11:44 13,7 °C 86 % 1009,7 hPa 0,0 mm 3,1 km/h (1 Bft) W 271 ° 0 min 0,000 mm 1,5 UV-I 176 W/m² 11,4 °C 13,7 °C 6,4 km/h (2 Bft)
25.09.2019 11:45 13,7 °C 85 % 1009,7 hPa 0,0 mm 6,0 km/h (2 Bft) W-SW 243 ° 0 min 0,000 mm 1,5 UV-I 169 W/m² 11,2 °C 13,7 °C 8,0 km/h (2 Bft)
25.09.2019 11:46 13,7 °C 86 % 1009,7 hPa 0,0 mm 8,2 km/h (2 Bft) W-NW 296 ° 0 min 0,000 mm 1,5 UV-I 167 W/m² 11,4 °C 13,7 °C 12,9 km/h (3 Bft)
25.09.2019 11:47 13,7 °C 85 % 1009,7 hPa 0,0 mm 5,2 km/h (1 Bft) NW 304 ° 0 min 0,000 mm 1,6 UV-I 174 W/m² 11,2 °C 13,7 °C 6,4 km/h (2 Bft)
25.09.2019 11:48 13,7 °C 86 % 1009,7 hPa 0,0 mm 3,6 km/h (1 Bft) NW 310 ° 0 min 0,000 mm 1,7 UV-I 185 W/m² 11,4 °C 13,7 °C 4,8 km/h (1 Bft)
25.09.2019 11:49 13,8 °C 86 % 1009,6 hPa 0,0 mm 5,6 km/h (1 Bft) W 264 ° 0 min 0,000 mm 1,8 UV-I 207 W/m² 11,5 °C 13,8 °C 11,3 km/h (2 Bft)
25.09.2019 11:50 13,7 °C 86 % 1009,7 hPa 0,0 mm 7,5 km/h (2 Bft) W 267 ° 0 min 0,000 mm 1,9 UV-I 207 W/m² 11,4 °C 13,7 °C 11,3 km/h (2 Bft)
25.09.2019 11:51 13,8 °C 85 % 1009,6 hPa 0,0 mm 6,6 km/h (2 Bft) W-NW 282 ° 0 min 0,000 mm 1,9 UV-I 209 W/m² 11,3 °C 13,8 °C 9,7 km/h (2 Bft)
25.09.2019 11:52 13,8 °C 86 % 1009,7 hPa 0,0 mm 4,2 km/h (1 Bft) W-SW 258 ° 0 min 0,000 mm 1,9 UV-I 211 W/m² 11,5 °C 13,8 °C 6,4 km/h (2 Bft)
25.09.2019 11:53 13,8 °C 86 % 1009,6 hPa 0,0 mm 1,3 km/h (1 Bft) W-SW 258 ° 0 min 0,000 mm 1,9 UV-I 218 W/m² 11,5 °C 13,8 °C 4,8 km/h (1 Bft)
25.09.2019 11:54 13,8 °C 86 % 1009,6 hPa 0,0 mm 4,5 km/h (1 Bft) W 271 ° 0 min 0,000 mm 2,0 UV-I 237 W/m² 11,5 °C 13,8 °C 9,7 km/h (2 Bft)
25.09.2019 11:55 13,9 °C 87 % 1009,6 hPa 0,0 mm 7,6 km/h (2 Bft) W 261 ° 0 min 0,000 mm 2,2 UV-I 279 W/m² 11,8 °C 13,9 °C 12,9 km/h (3 Bft)
25.09.2019 11:56 13,9 °C 85 % 1009,6 hPa 0,0 mm 6,7 km/h (2 Bft) W-NW 290 ° 0 min 0,000 mm 2,2 UV-I 281 W/m² 11,4 °C 13,9 °C 14,5 km/h (3 Bft)
25.09.2019 11:57 13,9 °C 85 % 1009,7 hPa 0,0 mm 5,5 km/h (1 Bft) W-SW 252 ° 0 min 0,000 mm 2,3 UV-I 308 W/m² 11,4 °C 13,9 °C 11,3 km/h (2 Bft)
25.09.2019 11:58 13,9 °C 85 % 1009,6 hPa 0,0 mm 2,7 km/h (1 Bft) W-SW 252 ° 0 min 0,000 mm 2,1 UV-I 276 W/m² 11,4 °C 13,9 °C 4,8 km/h (1 Bft)
25.09.2019 11:59 14,0 °C 86 % 1009,7 hPa 0,0 mm 2,3 km/h (1 Bft) W-NW 285 ° 0 min 0,000 mm 2,1 UV-I 359 W/m² 11,7 °C 14,0 °C 4,8 km/h (1 Bft)
25.09.2019 12:00 14,1 °C 86 % 1009,6 hPa 0,0 mm 4,3 km/h (1 Bft) NW 307 ° 0 min 0,152 mm 2,0 UV-I 359 W/m² 11,8 °C 14,1 °C 9,7 km/h (2 Bft)
25.09.2019 12:01 14,1 °C 86 % 1009,6 hPa 0,0 mm 6,6 km/h (2 Bft) SW 222 ° 0 min 0,000 mm 2,2 UV-I 359 W/m² 11,8 °C 14,1 °C 9,7 km/h (2 Bft)
25.09.2019 12:02 14,1 °C 86 % 1009,5 hPa 0,0 mm 3,1 km/h (1 Bft) W-SW 252 ° 0 min 0,000 mm 2,7 UV-I 359 W/m² 11,8 °C 14,1 °C 4,8 km/h (1 Bft)
25.09.2019 12:03 14,1 °C 85 % 1009,5 hPa 0,0 mm 5,6 km/h (1 Bft) W-NW 289 ° 0 min 0,000 mm 4,1 UV-I 359 W/m² 11,6 °C 14,1 °C 6,4 km/h (2 Bft)
25.09.2019 12:04 14,2 °C 85 % 1009,5 hPa 0,0 mm 5,0 km/h (1 Bft) W 266 ° 0 min 0,000 mm 4,1 UV-I 359 W/m² 11,7 °C 14,2 °C 6,4 km/h (2 Bft)
25.09.2019 12:05 14,3 °C 86 % 1009,5 hPa 0,0 mm 7,4 km/h (2 Bft) W-SW 245 ° 0 min 0,000 mm 4,1 UV-I 359 W/m² 12,0 °C 14,3 °C 12,9 km/h (3 Bft)
25.09.2019 12:06 14,4 °C 84 % 1009,5 hPa 0,0 mm 2,5 km/h (1 Bft) W-SW 254 ° 0 min 0,000 mm 4,3 UV-I 359 W/m² 11,7 °C 14,4 °C 4,8 km/h (1 Bft)
25.09.2019 12:07 14,5 °C 83 % 1009,4 hPa 0,0 mm 4,8 km/h (1 Bft) NW 321 ° 0 min 0,000 mm 4,1 UV-I 359 W/m² 11,6 °C 14,5 °C 8,0 km/h (2 Bft)
25.09.2019 12:08 14,7 °C 85 % 1009,5 hPa 0,0 mm 5,3 km/h (1 Bft) W-NW 288 ° 0 min 0,000 mm 3,3 UV-I 359 W/m² 12,2 °C 14,7 °C 8,0 km/h (2 Bft)
25.09.2019 12:09 14,7 °C 85 % 1009,5 hPa 0,0 mm 6,3 km/h (2 Bft) W-SW 252 ° 0 min 0,000 mm 2,7 UV-I 359 W/m² 12,2 °C 14,7 °C 9,7 km/h (2 Bft)
25.09.2019 12:10 14,8 °C 83 % 1009,6 hPa 0,0 mm 9,3 km/h (2 Bft) W-SW 257 ° 0 min 0,000 mm 1,9 UV-I 359 W/m² 11,9 °C 14,8 °C 12,9 km/h (3 Bft)
25.09.2019 12:11 14,8 °C 83 % 1009,6 hPa 0,0 mm 5,0 km/h (1 Bft) W 265 ° 0 min 0,000 mm 1,7 UV-I 246 W/m² 11,9 °C 14,8 °C 11,3 km/h (2 Bft)
25.09.2019 12:12 14,7 °C 82 % 1009,5 hPa 0,0 mm 10,2 km/h (2 Bft) W-NW 283 ° 0 min 0,000 mm 2,0 UV-I 246 W/m² 11,7 °C 14,7 °C 16,1 km/h (3 Bft)
25.09.2019 12:13 14,6 °C 81 % 1009,5 hPa 0,0 mm 6,6 km/h (2 Bft) W 275 ° 0 min 0,000 mm 2,2 UV-I 385 W/m² 11,4 °C 14,6 °C 9,7 km/h (2 Bft)
25.09.2019 12:14 14,6 °C 82 % 1009,6 hPa 0,0 mm 4,6 km/h (1 Bft) W 280 ° 0 min 0,000 mm 1,3 UV-I 385 W/m² 11,6 °C 14,6 °C 8,0 km/h (2 Bft)
25.09.2019 12:15 14,6 °C 84 % 1009,6 hPa 0,0 mm 10,1 km/h (2 Bft) W 267 ° 0 min 0,000 mm 1,1 UV-I 151 W/m² 11,9 °C 14,6 °C 19,3 km/h (3 Bft)
25.09.2019 12:16 14,4 °C 82 % 1009,8 hPa 0,0 mm 18,3 km/h (3 Bft) W-SW 241 ° 0 min 0,000 mm 1,2 UV-I 192 W/m² 11,4 °C 14,4 °C 24,1 km/h (4 Bft)
25.09.2019 12:17 14,3 °C 81 % 1009,7 hPa 0,0 mm 19,8 km/h (3 Bft) W-NW 302 ° 0 min 0,000 mm 1,2 UV-I 193 W/m² 11,1 °C 14,3 °C 27,4 km/h (4 Bft)
25.09.2019 12:18 14,1 °C 81 % 1009,7 hPa 0,0 mm 8,4 km/h (2 Bft) NW 309 ° 0 min 0,000 mm 1,3 UV-I 156 W/m² 10,9 °C 14,1 °C 16,1 km/h (3 Bft)
25.09.2019 12:19 13,9 °C 82 % 1009,7 hPa 0,0 mm 7,9 km/h (2 Bft) NW 325 ° 0 min 0,000 mm 1,2 UV-I 146 W/m² 10,9 °C 13,9 °C 14,5 km/h (3 Bft)
25.09.2019 12:20 13,8 °C 82 % 1009,7 hPa 0,0 mm 8,0 km/h (2 Bft) NW 307 ° 0 min 0,000 mm 1,1 UV-I 144 W/m² 10,8 °C 13,8 °C 11,3 km/h (2 Bft)
25.09.2019 12:21 13,7 °C 83 % 1009,7 hPa 0,0 mm 8,9 km/h (2 Bft) NW 315 ° 0 min 0,000 mm 1,4 UV-I 190 W/m² 10,9 °C 13,7 °C 12,9 km/h (3 Bft)
25.09.2019 12:22 13,5 °C 83 % 1009,7 hPa 0,0 mm 6,1 km/h (2 Bft) W-NW 286 ° 0 min 0,000 mm 1,4 UV-I 248 W/m² 10,7 °C 13,5 °C 14,5 km/h (3 Bft)
25.09.2019 12:23 13,4 °C 84 % 1009,7 hPa 0,0 mm 8,6 km/h (2 Bft) W-NW 301 ° 0 min 0,000 mm 1,9 UV-I 283 W/m² 10,8 °C 13,4 °C 14,5 km/h (3 Bft)
25.09.2019 12:24 13,3 °C 84 % 1009,5 hPa 0,0 mm 6,4 km/h (2 Bft) NW 316 ° 0 min 0,000 mm 1,6 UV-I 193 W/m² 10,7 °C 13,3 °C 12,9 km/h (3 Bft)
25.09.2019 12:25 13,3 °C 85 % 1009,5 hPa 0,0 mm 6,4 km/h (2 Bft) W-SW 254 ° 0 min 0,000 mm 1,7 UV-I 213 W/m² 10,8 °C 13,3 °C 11,3 km/h (2 Bft)
25.09.2019 12:26 13,2 °C 85 % 1009,6 hPa 0,0 mm 10,9 km/h (2 Bft) W 271 ° 0 min 0,000 mm 2,1 UV-I 232 W/m² 10,7 °C 13,2 °C 17,7 km/h (3 Bft)
25.09.2019 12:27 13,2 °C 85 % 1009,6 hPa 0,0 mm 6,7 km/h (2 Bft) W-NW 300 ° 0 min 0,000 mm 2,0 UV-I 221 W/m² 10,7 °C 13,2 °C 11,3 km/h (2 Bft)
25.09.2019 12:28 13,2 °C 86 % 1009,6 hPa 0,0 mm 8,0 km/h (2 Bft) W 280 ° 0 min 0,000 mm 1,9 UV-I 211 W/m² 10,9 °C 13,2 °C 14,5 km/h (3 Bft)
25.09.2019 12:29 13,2 °C 86 % 1009,6 hPa 0,0 mm 11,1 km/h (2 Bft) W 277 ° 0 min 0,000 mm 1,8 UV-I 206 W/m² 10,9 °C 13,2 °C 14,5 km/h (3 Bft)
25.09.2019 12:30 13,2 °C 86 % 1009,6 hPa 0,0 mm 7,0 km/h (2 Bft) W 279 ° 0 min 0,000 mm 1,6 UV-I 178 W/m² 10,9 °C 13,2 °C 11,3 km/h (2 Bft)
25.09.2019 12:31 13,2 °C 87 % 1009,7 hPa 0,0 mm 7,0 km/h (2 Bft) W-NW 284 ° 0 min 0,000 mm 1,5 UV-I 199 W/m² 11,1 °C 13,2 °C 17,7 km/h (3 Bft)
25.09.2019 12:32 13,2 °C 87 % 1009,6 hPa 0,0 mm 14,4 km/h (3 Bft) W 263 ° 0 min 0,000 mm 2,1 UV-I 241 W/m² 11,1 °C 13,2 °C 20,9 km/h (4 Bft)
25.09.2019 12:33 13,2 °C 86 % 1009,5 hPa 0,0 mm 9,3 km/h (2 Bft) W-NW 292 ° 0 min 0,000 mm 2,2 UV-I 241 W/m² 10,9 °C 13,2 °C 17,7 km/h (3 Bft)
25.09.2019 12:34 13,1 °C 86 % 1009,5 hPa 0,0 mm 9,0 km/h (2 Bft) W-NW 284 ° 0 min 0,000 mm 2,2 UV-I 223 W/m² 10,8 °C 13,1 °C 14,5 km/h (3 Bft)
25.09.2019 12:35 13,1 °C 86 % 1009,6 hPa 0,0 mm 10,9 km/h (2 Bft) NW 326 ° 0 min 0,000 mm 2,2 UV-I 237 W/m² 10,8 °C 13,1 °C 22,5 km/h (4 Bft)
25.09.2019 12:36 13,1 °C 85 % 1009,6 hPa 0,0 mm 14,1 km/h (3 Bft) NW 314 ° 0 min 0,000 mm 2,2 UV-I 230 W/m² 10,6 °C 13,1 °C 17,7 km/h (3 Bft)
25.09.2019 12:37 13,1 °C 85 % 1009,6 hPa 0,0 mm 11,6 km/h (2 Bft) W 261 ° 0 min 0,000 mm 2,5 UV-I 265 W/m² 10,6 °C 13,1 °C 19,3 km/h (3 Bft)
25.09.2019 12:38 13,0 °C 85 % 1009,6 hPa 0,0 mm 12,2 km/h (2 Bft) W 267 ° 0 min 0,000 mm 2,7 UV-I 302 W/m² 10,5 °C 13,0 °C 16,1 km/h (3 Bft)
25.09.2019 12:39 13,1 °C 85 % 1009,6 hPa 0,0 mm 13,4 km/h (3 Bft) W 269 ° 0 min 0,000 mm 2,7 UV-I 397 W/m² 10,6 °C 13,1 °C 16,1 km/h (3 Bft)
25.09.2019 12:40 13,1 °C 86 % 1009,6 hPa 0,0 mm 15,0 km/h (3 Bft) W-SW 257 ° 0 min 0,000 mm 2,7 UV-I 316 W/m² 10,8 °C 13,1 °C 22,5 km/h (4 Bft)
25.09.2019 12:41 13,0 °C 85 % 1009,6 hPa 0,0 mm 15,1 km/h (3 Bft) W-NW 285 ° 0 min 0,000 mm 2,7 UV-I 316 W/m² 10,5 °C 13,0 °C 24,1 km/h (4 Bft)
25.09.2019 12:42 13,0 °C 85 % 1009,6 hPa 0,0 mm 12,1 km/h (2 Bft) W 275 ° 0 min 0,000 mm 2,7 UV-I 338 W/m² 10,5 °C 13,0 °C 17,7 km/h (3 Bft)
25.09.2019 12:43 13,1 °C 85 % 1009,5 hPa 0,0 mm 12,1 km/h (2 Bft) W-NW 298 ° 0 min 0,000 mm 2,6 UV-I 316 W/m² 10,6 °C 13,1 °C 19,3 km/h (3 Bft)
25.09.2019 12:44 13,1 °C 86 % 1009,6 hPa 0,0 mm 8,1 km/h (2 Bft) W 261 ° 0 min 0,000 mm 2,9 UV-I 316 W/m² 10,8 °C 13,1 °C 14,5 km/h (3 Bft)
25.09.2019 12:45 13,2 °C 86 % 1009,6 hPa 0,0 mm 13,3 km/h (3 Bft) W-SW 251 ° 0 min 0,000 mm 3,1 UV-I 406 W/m² 10,9 °C 13,2 °C 20,9 km/h (4 Bft)
25.09.2019 12:46 13,2 °C 86 % 1009,6 hPa 0,0 mm 10,9 km/h (2 Bft) W 275 ° 0 min 0,000 mm 2,7 UV-I 410 W/m² 10,9 °C 13,2 °C 17,7 km/h (3 Bft)
25.09.2019 12:47 13,3 °C 86 % 1009,6 hPa 0,0 mm 10,1 km/h (2 Bft) W 273 ° 0 min 0,000 mm 3,3 UV-I 410 W/m² 11,0 °C 13,3 °C 16,1 km/h (3 Bft)
25.09.2019 12:48 13,3 °C 86 % 1009,7 hPa 0,0 mm 14,5 km/h (3 Bft) W 262 ° 0 min 0,000 mm 3,1 UV-I 475 W/m² 11,0 °C 13,3 °C 22,5 km/h (4 Bft)
25.09.2019 12:49 13,4 °C 86 % 1009,6 hPa 0,0 mm 15,9 km/h (3 Bft) W-NW 294 ° 0 min 0,000 mm 3,6 UV-I 533 W/m² 11,1 °C 13,4 °C 25,7 km/h (4 Bft)
25.09.2019 12:50 13,4 °C 85 % 1009,6 hPa 0,0 mm 12,6 km/h (3 Bft) W-NW 300 ° 0 min 0,000 mm 3,4 UV-I 438 W/m² 10,9 °C 13,4 °C 19,3 km/h (3 Bft)
25.09.2019 12:51 13,4 °C 85 % 1009,7 hPa 0,0 mm 10,6 km/h (2 Bft) W 280 ° 0 min 0,000 mm 2,9 UV-I 448 W/m² 10,9 °C 13,4 °C 14,5 km/h (3 Bft)
25.09.2019 12:52 13,4 °C 85 % 1009,7 hPa 0,0 mm 9,4 km/h (2 Bft) NW 323 ° 0 min 0,000 mm 2,9 UV-I 448 W/m² 10,9 °C 13,4 °C 14,5 km/h (3 Bft)
25.09.2019 12:53 13,5 °C 87 % 1009,7 hPa 0,0 mm 13,1 km/h (3 Bft) W 276 ° 0 min 0,000 mm 2,2 UV-I 448 W/m² 11,4 °C 13,5 °C 20,9 km/h (4 Bft)
25.09.2019 12:54 13,6 °C 87 % 1009,7 hPa 0,0 mm 13,4 km/h (3 Bft) NW 307 ° 0 min 0,000 mm 2,7 UV-I 357 W/m² 11,5 °C 13,6 °C 16,1 km/h (3 Bft)
25.09.2019 12:55 13,7 °C 87 % 1009,6 hPa 0,0 mm 8,5 km/h (2 Bft) W 281 ° 0 min 0,000 mm 2,7 UV-I 329 W/m² 11,6 °C 13,7 °C 14,5 km/h (3 Bft)
25.09.2019 12:56 13,6 °C 87 % 1009,7 hPa 0,0 mm 10,1 km/h (2 Bft) W 261 ° 0 min 0,000 mm 3,6 UV-I 329 W/m² 11,5 °C 13,6 °C 20,9 km/h (4 Bft)
25.09.2019 12:57 13,6 °C 86 % 1009,7 hPa 0,0 mm 15,1 km/h (3 Bft) W 267 ° 0 min 0,000 mm 3,2 UV-I 557 W/m² 11,3 °C 13,6 °C 22,5 km/h (4 Bft)
25.09.2019 12:58 13,5 °C 87 % 1009,7 hPa 0,0 mm 16,5 km/h (3 Bft) W-NW 298 ° 0 min 0,000 mm 3,2 UV-I 563 W/m² 11,4 °C 13,5 °C 20,9 km/h (4 Bft)
25.09.2019 12:59 13,5 °C 87 % 1009,7 hPa 0,0 mm 15,5 km/h (3 Bft) W 263 ° 0 min 0,000 mm 2,9 UV-I 563 W/m² 11,4 °C 13,5 °C 22,5 km/h (4 Bft)
25.09.2019 13:00 13,4 °C 87 % 1009,6 hPa 0,0 mm 13,1 km/h (3 Bft) W-SW 255 ° 0 min 0,204 mm 3,0 UV-I 360 W/m² 11,3 °C 13,4 °C 20,9 km/h (4 Bft)
25.09.2019 13:01 13,4 °C 88 % 1009,7 hPa 0,0 mm 12,5 km/h (3 Bft) W-SW 240 ° 0 min 0,000 mm 2,9 UV-I 360 W/m² 11,5 °C 13,4 °C 16,1 km/h (3 Bft)
25.09.2019 13:02 13,4 °C 87 % 1009,6 hPa 0,0 mm 10,0 km/h (2 Bft) SW 234 ° 0 min 0,000 mm 3,8 UV-I 360 W/m² 11,3 °C 13,4 °C 12,9 km/h (3 Bft)
25.09.2019 13:03 13,3 °C 87 % 1009,6 hPa 0,0 mm 12,8 km/h (3 Bft) W 275 ° 1 min 0,000 mm 3,2 UV-I 707 W/m² 11,2 °C 13,3 °C 19,3 km/h (3 Bft)
25.09.2019 13:04 13,3 °C 87 % 1009,6 hPa 0,0 mm 8,7 km/h (2 Bft) NW 317 ° 1 min 0,000 mm 3,1 UV-I 707 W/m² 11,2 °C 13,3 °C 12,9 km/h (3 Bft)
25.09.2019 13:05 13,3 °C 86 % 1009,6 hPa 0,0 mm 7,5 km/h (2 Bft) W-NW 302 ° 1 min 0,000 mm 4,5 UV-I 768 W/m² 11,0 °C 13,3 °C 17,7 km/h (3 Bft)
25.09.2019 13:06 13,3 °C 86 % 1009,6 hPa 0,0 mm 9,4 km/h (2 Bft) N-NW 338 ° 1 min 0,000 mm 4,6 UV-I 768 W/m² 11,0 °C 13,3 °C 17,7 km/h (3 Bft)
25.09.2019 13:07 13,4 °C 87 % 1009,6 hPa 0,0 mm 5,9 km/h (2 Bft) W-NW 284 ° 1 min 0,000 mm 4,4 UV-I 768 W/m² 11,3 °C 13,4 °C 12,9 km/h (3 Bft)
25.09.2019 13:08 13,6 °C 88 % 1009,5 hPa 0,0 mm 8,2 km/h (2 Bft) NW 322 ° 1 min 0,000 mm 3,9 UV-I 768 W/m² 11,6 °C 13,6 °C 11,3 km/h (2 Bft)
25.09.2019 13:09 13,7 °C 87 % 1009,6 hPa 0,0 mm 11,0 km/h (2 Bft) NW 304 ° 1 min 0,000 mm 4,4 UV-I 768 W/m² 11,6 °C 13,7 °C 16,1 km/h (3 Bft)
25.09.2019 13:10 13,8 °C 88 % 1009,5 hPa 0,0 mm 10,0 km/h (2 Bft) NW 305 ° 1 min 0,000 mm 4,4 UV-I 768 W/m² 11,8 °C 13,8 °C 17,7 km/h (3 Bft)
25.09.2019 13:11 13,8 °C 87 % 1009,5 hPa 0,0 mm 15,7 km/h (3 Bft) W-SW 253 ° 0 min 0,000 mm 3,4 UV-I 359 W/m² 11,7 °C 13,8 °C 20,9 km/h (4 Bft)
25.09.2019 13:12 13,8 °C 85 % 1009,5 hPa 0,0 mm 13,4 km/h (3 Bft) W-NW 287 ° 0 min 0,000 mm 2,8 UV-I 359 W/m² 11,3 °C 13,8 °C 19,3 km/h (3 Bft)
25.09.2019 13:13 13,7 °C 85 % 1009,5 hPa 0,0 mm 19,4 km/h (3 Bft) W 267 ° 0 min 0,000 mm 2,8 UV-I 338 W/m² 11,2 °C 13,7 °C 24,1 km/h (4 Bft)
25.09.2019 13:14 13,6 °C 84 % 1009,5 hPa 0,0 mm 12,1 km/h (2 Bft) W-NW 287 ° 0 min 0,000 mm 3,4 UV-I 250 W/m² 10,9 °C 13,6 °C 19,3 km/h (3 Bft)
25.09.2019 13:15 13,6 °C 85 % 1009,4 hPa 0,0 mm 9,5 km/h (2 Bft) W 265 ° 0 min 0,000 mm 3,2 UV-I 250 W/m² 11,1 °C 13,6 °C 16,1 km/h (3 Bft)
25.09.2019 13:16 13,6 °C 86 % 1009,4 hPa 0,0 mm 14,2 km/h (3 Bft) W-NW 288 ° 0 min 0,000 mm 3,2 UV-I 250 W/m² 11,3 °C 13,6 °C 25,7 km/h (4 Bft)
25.09.2019 13:17 13,6 °C 85 % 1009,4 hPa 0,0 mm 17,2 km/h (3 Bft) W-NW 289 ° 0 min 0,000 mm 3,4 UV-I 165 W/m² 11,1 °C 13,6 °C 24,1 km/h (4 Bft)
25.09.2019 13:18 13,6 °C 84 % 1009,4 hPa 0,0 mm 11,6 km/h (2 Bft) W-NW 291 ° 0 min 0,000 mm 2,5 UV-I 165 W/m² 10,9 °C 13,6 °C 16,1 km/h (3 Bft)
25.09.2019 13:19 13,6 °C 85 % 1009,4 hPa 0,0 mm 8,4 km/h (2 Bft) W 269 ° 0 min 0,000 mm 3,8 UV-I 165 W/m² 11,1 °C 13,6 °C 12,9 km/h (3 Bft)
25.09.2019 13:20 13,6 °C 86 % 1009,4 hPa 0,0 mm 13,0 km/h (3 Bft) W-NW 290 ° 0 min 0,000 mm 2,7 UV-I 165 W/m² 11,3 °C 13,6 °C 17,7 km/h (3 Bft)
25.09.2019 13:21 13,6 °C 85 % 1009,3 hPa 0,0 mm 13,7 km/h (3 Bft) W 267 ° 0 min 0,000 mm 3,4 UV-I 165 W/m² 11,1 °C 13,6 °C 14,5 km/h (3 Bft)
25.09.2019 13:22 13,7 °C 85 % 1009,3 hPa 0,0 mm 11,7 km/h (2 Bft) W-SW 242 ° 0 min 0,000 mm 4,4 UV-I 165 W/m² 11,2 °C 13,7 °C 17,7 km/h (3 Bft)
25.09.2019 13:23 13,8 °C 85 % 1009,3 hPa 0,0 mm 11,0 km/h (2 Bft) W 262 ° 1 min 0,000 mm 4,5 UV-I 738 W/m² 11,3 °C 13,8 °C 17,7 km/h (3 Bft)
25.09.2019 13:24 13,8 °C 85 % 1009,3 hPa 0,0 mm 10,4 km/h (2 Bft) N-NW 342 ° 1 min 0,000 mm 4,3 UV-I 738 W/m² 11,3 °C 13,8 °C 16,1 km/h (3 Bft)
25.09.2019 13:25 13,9 °C 85 % 1009,3 hPa 0,0 mm 17,5 km/h (3 Bft) W-NW 290 ° 1 min 0,000 mm 3,7 UV-I 738 W/m² 11,4 °C 13,9 °C 29,0 km/h (5 Bft)
25.09.2019 13:26 13,9 °C 84 % 1009,3 hPa 0,0 mm 16,2 km/h (3 Bft) W 275 ° 1 min 0,000 mm 4,3 UV-I 738 W/m² 11,2 °C 13,9 °C 24,1 km/h (4 Bft)
25.09.2019 13:27 14,0 °C 84 % 1009,3 hPa 0,0 mm 13,8 km/h (3 Bft) W-NW 282 ° 1 min 0,000 mm 4,4 UV-I 728 W/m² 11,3 °C 14,0 °C 19,3 km/h (3 Bft)
25.09.2019 13:28 14,1 °C 84 % 1009,3 hPa 0,0 mm 10,5 km/h (2 Bft) SW 229 ° 1 min 0,000 mm 2,4 UV-I 728 W/m² 11,4 °C 14,1 °C 16,1 km/h (3 Bft)
25.09.2019 13:29 14,0 °C 84 % 1009,3 hPa 0,0 mm 16,3 km/h (3 Bft) W-SW 257 ° 1 min 0,000 mm 3,2 UV-I 728 W/m² 11,3 °C 14,0 °C 24,1 km/h (4 Bft)
25.09.2019 13:30 14,1 °C 84 % 1009,2 hPa 0,0 mm 13,1 km/h (3 Bft) W 263 ° 1 min 0,000 mm 2,4 UV-I 728 W/m² 11,4 °C 14,1 °C 17,7 km/h (3 Bft)
25.09.2019 13:31 14,1 °C 85 % 1009,2 hPa 0,0 mm 12,4 km/h (3 Bft) SW 215 ° 1 min 0,000 mm 4,3 UV-I 696 W/m² 11,6 °C 14,1 °C 16,1 km/h (3 Bft)
25.09.2019 13:32 14,1 °C 84 % 1009,2 hPa 0,0 mm 8,6 km/h (2 Bft) S-SW 209 ° 1 min 0,000 mm 4,3 UV-I 684 W/m² 11,4 °C 14,1 °C 16,1 km/h (3 Bft)
25.09.2019 13:33 14,2 °C 85 % 1009,1 hPa 0,0 mm 13,3 km/h (3 Bft) W 269 ° 1 min 0,000 mm 4,4 UV-I 680 W/m² 11,7 °C 14,2 °C 16,1 km/h (3 Bft)
25.09.2019 13:34 14,3 °C 84 % 1009,1 hPa 0,0 mm 13,9 km/h (3 Bft) W 259 ° 1 min 0,000 mm 4,4 UV-I 675 W/m² 11,6 °C 14,3 °C 20,9 km/h (4 Bft)
25.09.2019 13:35 14,3 °C 85 % 1009,1 hPa 0,0 mm 13,5 km/h (3 Bft) W 265 ° 1 min 0,000 mm 4,4 UV-I 700 W/m² 11,8 °C 14,3 °C 25,7 km/h (4 Bft)
25.09.2019 13:36 14,4 °C 84 % 1009,1 hPa 0,0 mm 11,7 km/h (2 Bft) S 182 ° 1 min 0,000 mm 4,5 UV-I 715 W/m² 11,7 °C 14,4 °C 17,7 km/h (3 Bft)
25.09.2019 13:37 14,4 °C 83 % 1009,1 hPa 0,0 mm 9,1 km/h (2 Bft) W-SW 257 ° 1 min 0,000 mm 4,5 UV-I 694 W/m² 11,5 °C 14,4 °C 16,1 km/h (3 Bft)
25.09.2019 13:38 14,6 °C 83 % 1009,1 hPa 0,0 mm 5,0 km/h (1 Bft) W 259 ° 1 min 0,000 mm 4,5 UV-I 687 W/m² 11,7 °C 14,6 °C 11,3 km/h (2 Bft)
25.09.2019 13:39 14,6 °C 83 % 1009,0 hPa 0,0 mm 10,8 km/h (2 Bft) W-NW 293 ° 1 min 0,000 mm 4,5 UV-I 682 W/m² 11,7 °C 14,6 °C 14,5 km/h (3 Bft)
25.09.2019 13:40 14,6 °C 83 % 1009,0 hPa 0,0 mm 10,0 km/h (2 Bft) W-NW 299 ° 1 min 0,000 mm 4,5 UV-I 680 W/m² 11,7 °C 14,6 °C 14,5 km/h (3 Bft)
25.09.2019 13:41 14,7 °C 83 % 1009,0 hPa 0,0 mm 10,1 km/h (2 Bft) W 262 ° 1 min 0,000 mm 4,5 UV-I 670 W/m² 11,8 °C 14,7 °C 17,7 km/h (3 Bft)
25.09.2019 13:42 14,8 °C 84 % 1009,0 hPa 0,0 mm 7,8 km/h (2 Bft) W-SW 258 ° 1 min 0,000 mm 4,5 UV-I 668 W/m² 12,1 °C 14,8 °C 12,9 km/h (3 Bft)
25.09.2019 13:43 14,8 °C 84 % 1009,0 hPa 0,0 mm 11,9 km/h (2 Bft) W 271 ° 1 min 0,000 mm 4,5 UV-I 668 W/m² 12,1 °C 14,8 °C 14,5 km/h (3 Bft)
25.09.2019 13:44 14,8 °C 81 % 1009,0 hPa 0,0 mm 12,5 km/h (3 Bft) W 259 ° 1 min 0,000 mm 4,4 UV-I 666 W/m² 11,6 °C 14,8 °C 19,3 km/h (3 Bft)
25.09.2019 13:45 14,7 °C 81 % 1009,0 hPa 0,0 mm 16,0 km/h (3 Bft) W-NW 287 ° 1 min 0,000 mm 4,4 UV-I 663 W/m² 11,5 °C 14,7 °C 22,5 km/h (4 Bft)
25.09.2019 13:46 14,7 °C 81 % 1009,0 hPa 0,0 mm 11,5 km/h (2 Bft) NW 306 ° 1 min 0,000 mm 4,4 UV-I 638 W/m² 11,5 °C 14,7 °C 17,7 km/h (3 Bft)
25.09.2019 13:47 14,7 °C 82 % 1009,0 hPa 0,0 mm 10,3 km/h (2 Bft) W 269 ° 1 min 0,000 mm 4,3 UV-I 675 W/m² 11,7 °C 14,7 °C 16,1 km/h (3 Bft)
25.09.2019 13:48 14,8 °C 83 % 1009,0 hPa 0,0 mm 14,3 km/h (3 Bft) W-NW 302 ° 1 min 0,000 mm 4,4 UV-I 675 W/m² 11,9 °C 14,8 °C 20,9 km/h (4 Bft)
25.09.2019 13:49 14,8 °C 82 % 1009,0 hPa 0,0 mm 10,0 km/h (2 Bft) W-SW 256 ° 1 min 0,000 mm 4,4 UV-I 664 W/m² 11,8 °C 14,8 °C 14,5 km/h (3 Bft)
25.09.2019 13:50 14,8 °C 82 % 1009,0 hPa 0,0 mm 9,4 km/h (2 Bft) W 259 ° 1 min 0,000 mm 4,4 UV-I 661 W/m² 11,8 °C 14,8 °C 14,5 km/h (3 Bft)
25.09.2019 13:51 14,8 °C 81 % 1009,0 hPa 0,0 mm 10,7 km/h (2 Bft) W-NW 291 ° 1 min 0,000 mm 4,4 UV-I 657 W/m² 11,6 °C 14,8 °C 12,9 km/h (3 Bft)
25.09.2019 13:52 14,8 °C 80 % 1008,9 hPa 0,0 mm 7,4 km/h (2 Bft) W 274 ° 1 min 0,000 mm 4,4 UV-I 650 W/m² 11,4 °C 14,8 °C 16,1 km/h (3 Bft)
25.09.2019 13:53 14,8 °C 81 % 1008,9 hPa 0,0 mm 11,9 km/h (2 Bft) W 265 ° 1 min 0,000 mm 4,4 UV-I 677 W/m² 11,6 °C 14,8 °C 16,1 km/h (3 Bft)
25.09.2019 13:54 14,7 °C 81 % 1009,0 hPa 0,0 mm 13,5 km/h (3 Bft) W-SW 242 ° 1 min 0,000 mm 4,4 UV-I 673 W/m² 11,5 °C 14,7 °C 20,9 km/h (4 Bft)
25.09.2019 13:55 14,7 °C 82 % 1009,0 hPa 0,0 mm 9,4 km/h (2 Bft) W-SW 243 ° 1 min 0,000 mm 4,4 UV-I 675 W/m² 11,7 °C 14,7 °C 14,5 km/h (3 Bft)
25.09.2019 13:56 14,8 °C 83 % 1009,0 hPa 0,0 mm 8,4 km/h (2 Bft) W 267 ° 1 min 0,000 mm 4,4 UV-I 680 W/m² 11,9 °C 14,8 °C 14,5 km/h (3 Bft)
25.09.2019 13:57 14,9 °C 82 % 1009,0 hPa 0,0 mm 8,1 km/h (2 Bft) SW 228 ° 1 min 0,000 mm 4,4 UV-I 675 W/m² 11,9 °C 14,9 °C 12,9 km/h (3 Bft)
25.09.2019 13:58 14,9 °C 82 % 1009,0 hPa 0,0 mm 5,3 km/h (1 Bft) W-SW 255 ° 1 min 0,000 mm 4,4 UV-I 696 W/m² 11,9 °C 14,9 °C 11,3 km/h (2 Bft)
25.09.2019 13:59 14,9 °C 82 % 1009,0 hPa 0,0 mm 8,6 km/h (2 Bft) W-NW 284 ° 1 min 0,000 mm 4,5 UV-I 696 W/m² 11,9 °C 14,9 °C 12,9 km/h (3 Bft)
25.09.2019 14:00 14,9 °C 81 % 1009,0 hPa 0,0 mm 13,1 km/h (3 Bft) W 264 ° 1 min 0,330 mm 4,4 UV-I 696 W/m² 11,7 °C 14,9 °C 22,5 km/h (4 Bft)
25.09.2019 14:01 14,9 °C 81 % 1009,0 hPa 0,0 mm 17,4 km/h (3 Bft) W-SW 257 ° 1 min 0,000 mm 4,5 UV-I 686 W/m² 11,7 °C 14,9 °C 22,5 km/h (4 Bft)
25.09.2019 14:02 14,8 °C 80 % 1009,0 hPa 0,0 mm 12,9 km/h (3 Bft) W-NW 287 ° 1 min 0,000 mm 2,5 UV-I 722 W/m² 11,4 °C 14,8 °C 19,3 km/h (3 Bft)
25.09.2019 14:03 14,7 °C 80 % 1009,0 hPa 0,0 mm 15,3 km/h (3 Bft) W-SW 248 ° 1 min 0,000 mm 2,5 UV-I 722 W/m² 11,3 °C 14,7 °C 17,7 km/h (3 Bft)
25.09.2019 14:04 14,6 °C 79 % 1009,0 hPa 0,0 mm 14,4 km/h (3 Bft) W 279 ° 0 min 0,000 mm 2,6 UV-I 200 W/m² 11,0 °C 14,6 °C 17,7 km/h (3 Bft)
25.09.2019 14:05 14,4 °C 80 % 1009,0 hPa 0,0 mm 10,7 km/h (2 Bft) W 261 ° 1 min 0,000 mm 4,6 UV-I 810 W/m² 11,0 °C 14,4 °C 16,1 km/h (3 Bft)
25.09.2019 14:06 14,5 °C 81 % 1009,0 hPa 0,0 mm 7,1 km/h (2 Bft) W-SW 257 ° 1 min 0,000 mm 2,4 UV-I 810 W/m² 11,3 °C 14,5 °C 14,5 km/h (3 Bft)
25.09.2019 14:07 14,4 °C 81 % 1009,0 hPa 0,0 mm 12,1 km/h (2 Bft) W-SW 246 ° 1 min 0,000 mm 4,4 UV-I 742 W/m² 11,2 °C 14,4 °C 16,1 km/h (3 Bft)
25.09.2019 14:08 14,5 °C 81 % 1009,0 hPa 0,0 mm 12,2 km/h (2 Bft) W-SW 242 ° 1 min 0,000 mm 3,1 UV-I 742 W/m² 11,3 °C 14,5 °C 16,1 km/h (3 Bft)
25.09.2019 14:09 14,5 °C 81 % 1009,0 hPa 0,0 mm 10,3 km/h (2 Bft) W-NW 293 ° 0 min 0,000 mm 2,5 UV-I 269 W/m² 11,3 °C 14,5 °C 16,1 km/h (3 Bft)
25.09.2019 14:10 14,5 °C 81 % 1009,0 hPa 0,0 mm 9,5 km/h (2 Bft) W 265 ° 0 min 0,000 mm 2,5 UV-I 269 W/m² 11,3 °C 14,5 °C 14,5 km/h (3 Bft)
25.09.2019 14:11 14,6 °C 81 % 1009,0 hPa 0,0 mm 15,2 km/h (3 Bft) W 260 ° 0 min 0,000 mm 1,8 UV-I 269 W/m² 11,4 °C 14,6 °C 24,1 km/h (4 Bft)
25.09.2019 14:12 14,5 °C 81 % 1009,1 hPa 0,0 mm 13,5 km/h (3 Bft) W-SW 254 ° 0 min 0,000 mm 1,6 UV-I 156 W/m² 11,3 °C 14,5 °C 19,3 km/h (3 Bft)
25.09.2019 14:13 14,4 °C 81 % 1009,1 hPa 0,0 mm 12,0 km/h (2 Bft) W-SW 254 ° 0 min 0,000 mm 1,5 UV-I 153 W/m² 11,2 °C 14,4 °C 20,9 km/h (4 Bft)
25.09.2019 14:14 14,4 °C 80 % 1009,1 hPa 0,0 mm 13,0 km/h (3 Bft) W 267 ° 0 min 0,000 mm 1,4 UV-I 172 W/m² 11,0 °C 14,4 °C 22,5 km/h (4 Bft)
25.09.2019 14:15 14,3 °C 81 % 1009,0 hPa 0,0 mm 7,7 km/h (2 Bft) W 268 ° 0 min 0,000 mm 2,3 UV-I 172 W/m² 11,1 °C 14,3 °C 12,9 km/h (3 Bft)
25.09.2019 14:16 14,3 °C 82 % 1009,1 hPa 0,0 mm 10,2 km/h (2 Bft) W 263 ° 0 min 0,000 mm 1,9 UV-I 332 W/m² 11,3 °C 14,3 °C 14,5 km/h (3 Bft)
25.09.2019 14:17 14,3 °C 81 % 1009,0 hPa 0,0 mm 8,0 km/h (2 Bft) W 268 ° 0 min 0,000 mm 2,9 UV-I 332 W/m² 11,1 °C 14,3 °C 12,9 km/h (3 Bft)
25.09.2019 14:18 14,4 °C 83 % 1009,0 hPa 0,0 mm 8,3 km/h (2 Bft) W 268 ° 0 min 0,000 mm 1,2 UV-I 332 W/m² 11,5 °C 14,4 °C 11,3 km/h (2 Bft)
25.09.2019 14:19 14,5 °C 81 % 1009,0 hPa 0,0 mm 10,7 km/h (2 Bft) NW 306 ° 0 min 0,000 mm 1,0 UV-I 130 W/m² 11,3 °C 14,5 °C 20,9 km/h (4 Bft)
25.09.2019 14:20 14,4 °C 80 % 1009,1 hPa 0,0 mm 8,0 km/h (2 Bft) W-NW 292 ° 0 min 0,000 mm 1,0 UV-I 135 W/m² 11,0 °C 14,4 °C 12,9 km/h (3 Bft)
25.09.2019 14:21 14,4 °C 81 % 1009,1 hPa 0,0 mm 11,1 km/h (2 Bft) W-NW 284 ° 0 min 0,000 mm 0,9 UV-I 127 W/m² 11,2 °C 14,4 °C 17,7 km/h (3 Bft)
25.09.2019 14:22 14,3 °C 80 % 1009,1 hPa 0,0 mm 8,8 km/h (2 Bft) W-NW 282 ° 0 min 0,000 mm 0,8 UV-I 132 W/m² 10,9 °C 14,3 °C 17,7 km/h (3 Bft)
25.09.2019 14:23 14,3 °C 79 % 1009,1 hPa 0,0 mm 8,1 km/h (2 Bft) NW 308 ° 0 min 0,000 mm 1,3 UV-I 172 W/m² 10,7 °C 14,3 °C 11,3 km/h (2 Bft)
25.09.2019 14:24 14,2 °C 79 % 1009,0 hPa 0,0 mm 9,2 km/h (2 Bft) W-SW 257 ° 0 min 0,000 mm 1,6 UV-I 172 W/m² 10,6 °C 14,2 °C 14,5 km/h (3 Bft)
25.09.2019 14:25 14,2 °C 80 % 1009,0 hPa 0,0 mm 8,1 km/h (2 Bft) W-NW 290 ° 0 min 0,000 mm 1,8 UV-I 220 W/m² 10,8 °C 14,2 °C 14,5 km/h (3 Bft)
25.09.2019 14:26 14,2 °C 80 % 1009,0 hPa 0,0 mm 7,8 km/h (2 Bft) W 259 ° 0 min 0,000 mm 3,7 UV-I 220 W/m² 10,8 °C 14,2 °C 14,5 km/h (3 Bft)
25.09.2019 14:27 14,2 °C 80 % 1009,0 hPa 0,0 mm 9,7 km/h (2 Bft) W 267 ° 0 min 0,000 mm 2,3 UV-I 220 W/m² 10,8 °C 14,2 °C 14,5 km/h (3 Bft)
25.09.2019 14:28 14,2 °C 81 % 1009,0 hPa 0,0 mm 12,0 km/h (2 Bft) W-NW 302 ° 0 min 0,000 mm 2,3 UV-I 283 W/m² 11,0 °C 14,2 °C 14,5 km/h (3 Bft)
25.09.2019 14:29 14,2 °C 81 % 1009,0 hPa 0,0 mm 10,7 km/h (2 Bft) W 277 ° 0 min 0,000 mm 2,8 UV-I 362 W/m² 11,0 °C 14,2 °C 14,5 km/h (3 Bft)
25.09.2019 14:30 14,3 °C 81 % 1009,0 hPa 0,0 mm 7,1 km/h (2 Bft) W 269 ° 0 min 0,000 mm 2,6 UV-I 362 W/m² 11,1 °C 14,3 °C 11,3 km/h (2 Bft)
25.09.2019 14:31 14,3 °C 81 % 1008,9 hPa 0,0 mm 6,4 km/h (2 Bft) W 267 ° 0 min 0,000 mm 2,5 UV-I 362 W/m² 11,1 °C 14,3 °C 8,0 km/h (2 Bft)
25.09.2019 14:32 14,3 °C 81 % 1008,9 hPa 0,0 mm 10,5 km/h (2 Bft) W 275 ° 0 min 0,000 mm 2,4 UV-I 274 W/m² 11,1 °C 14,3 °C 14,5 km/h (3 Bft)
25.09.2019 14:33 14,3 °C 81 % 1008,9 hPa 0,0 mm 8,6 km/h (2 Bft) W 263 ° 0 min 0,000 mm 2,3 UV-I 232 W/m² 11,1 °C 14,3 °C 14,5 km/h (3 Bft)
25.09.2019 14:34 14,3 °C 81 % 1008,9 hPa 0,0 mm 11,6 km/h (2 Bft) W 267 ° 0 min 0,000 mm 2,3 UV-I 269 W/m² 11,1 °C 14,3 °C 16,1 km/h (3 Bft)
25.09.2019 14:35 14,3 °C 80 % 1008,9 hPa 0,0 mm 6,7 km/h (2 Bft) W-SW 257 ° 0 min 0,000 mm 2,3 UV-I 250 W/m² 10,9 °C 14,3 °C 9,7 km/h (2 Bft)
25.09.2019 14:36 14,3 °C 82 % 1008,9 hPa 0,0 mm 8,6 km/h (2 Bft) W 262 ° 0 min 0,000 mm 2,3 UV-I 250 W/m² 11,3 °C 14,3 °C 14,5 km/h (3 Bft)
25.09.2019 14:37 14,3 °C 81 % 1008,9 hPa 0,0 mm 7,2 km/h (2 Bft) W 264 ° 0 min 0,000 mm 2,5 UV-I 301 W/m² 11,1 °C 14,3 °C 14,5 km/h (3 Bft)
25.09.2019 14:38 14,3 °C 81 % 1008,8 hPa 0,0 mm 8,4 km/h (2 Bft) N-NW 327 ° 0 min 0,000 mm 2,4 UV-I 294 W/m² 11,1 °C 14,3 °C 14,5 km/h (3 Bft)
25.09.2019 14:39 14,3 °C 81 % 1008,8 hPa 0,0 mm 6,4 km/h (2 Bft) W-SW 252 ° 0 min 0,000 mm 2,2 UV-I 232 W/m² 11,1 °C 14,3 °C 9,7 km/h (2 Bft)
25.09.2019 14:40 14,3 °C 81 % 1008,8 hPa 0,0 mm 8,8 km/h (2 Bft) W-NW 296 ° 0 min 0,000 mm 2,1 UV-I 220 W/m² 11,1 °C 14,3 °C 14,5 km/h (3 Bft)
25.09.2019 14:41 14,3 °C 81 % 1008,9 hPa 0,0 mm 2,5 km/h (1 Bft) W-SW 254 ° 0 min 0,000 mm 2,2 UV-I 248 W/m² 11,1 °C 14,3 °C 6,4 km/h (2 Bft)
25.09.2019 14:42 14,3 °C 82 % 1008,8 hPa 0,0 mm 6,2 km/h (2 Bft) W 281 ° 0 min 0,000 mm 2,3 UV-I 248 W/m² 11,3 °C 14,3 °C 9,7 km/h (2 Bft)
25.09.2019 14:43 14,4 °C 81 % 1008,9 hPa 0,0 mm 7,1 km/h (2 Bft) W-NW 297 ° 0 min 0,000 mm 2,3 UV-I 272 W/m² 11,2 °C 14,4 °C 11,3 km/h (2 Bft)
25.09.2019 14:44 14,4 °C 80 % 1008,9 hPa 0,0 mm 7,2 km/h (2 Bft) NW 320 ° 0 min 0,000 mm 2,4 UV-I 285 W/m² 11,0 °C 14,4 °C 12,9 km/h (3 Bft)
25.09.2019 14:45 14,4 °C 80 % 1008,8 hPa 0,0 mm 6,9 km/h (2 Bft) W-SW 256 ° 0 min 0,000 mm 2,6 UV-I 323 W/m² 11,0 °C 14,4 °C 11,3 km/h (2 Bft)
25.09.2019 14:46 14,5 °C 80 % 1008,9 hPa 0,0 mm 12,1 km/h (2 Bft) W 266 ° 0 min 0,000 mm 2,6 UV-I 323 W/m² 11,1 °C 14,5 °C 16,1 km/h (3 Bft)
25.09.2019 14:47 14,6 °C 80 % 1008,8 hPa 0,0 mm 10,6 km/h (2 Bft) W-SW 249 ° 0 min 0,000 mm 2,4 UV-I 323 W/m² 11,2 °C 14,6 °C 14,5 km/h (3 Bft)
25.09.2019 14:48 14,7 °C 80 % 1008,8 hPa 0,0 mm 7,1 km/h (2 Bft) W 277 ° 0 min 0,000 mm 2,4 UV-I 272 W/m² 11,3 °C 14,7 °C 11,3 km/h (2 Bft)
25.09.2019 14:49 14,8 °C 81 % 1008,8 hPa 0,0 mm 7,9 km/h (2 Bft) W-NW 302 ° 0 min 0,000 mm 2,8 UV-I 272 W/m² 11,6 °C 14,8 °C 11,3 km/h (2 Bft)
25.09.2019 14:50 14,8 °C 80 % 1008,8 hPa 0,0 mm 5,0 km/h (1 Bft) W-SW 252 ° 0 min 0,000 mm 4,1 UV-I 272 W/m² 11,4 °C 14,8 °C 11,3 km/h (2 Bft)
25.09.2019 14:51 14,9 °C 78 % 1008,8 hPa 0,0 mm 14,4 km/h (3 Bft) W-NW 296 ° 0 min 0,000 mm 2,8 UV-I 272 W/m² 11,1 °C 14,9 °C 19,3 km/h (3 Bft)
25.09.2019 14:52 14,9 °C 77 % 1008,7 hPa 0,0 mm 13,4 km/h (3 Bft) NW 304 ° 0 min 0,000 mm 2,4 UV-I 272 W/m² 10,9 °C 14,9 °C 17,7 km/h (3 Bft)
25.09.2019 14:53 14,9 °C 77 % 1008,8 hPa 0,0 mm 13,3 km/h (3 Bft) W-NW 292 ° 0 min 0,000 mm 2,3 UV-I 246 W/m² 10,9 °C 14,9 °C 20,9 km/h (4 Bft)
25.09.2019 14:54 15,0 °C 77 % 1008,8 hPa 0,0 mm 7,3 km/h (2 Bft) W 267 ° 0 min 0,000 mm 2,2 UV-I 230 W/m² 11,0 °C 15,0 °C 12,9 km/h (3 Bft)
25.09.2019 14:55 14,9 °C 78 % 1008,8 hPa 0,0 mm 13,9 km/h (3 Bft) W 267 ° 0 min 0,000 mm 2,3 UV-I 243 W/m² 11,1 °C 14,9 °C 20,9 km/h (4 Bft)
25.09.2019 14:56 15,0 °C 78 % 1008,7 hPa 0,0 mm 8,0 km/h (2 Bft) W-SW 255 ° 0 min 0,000 mm 2,6 UV-I 243 W/m² 11,2 °C 15,0 °C 14,5 km/h (3 Bft)
25.09.2019 14:57 14,9 °C 77 % 1008,8 hPa 0,0 mm 11,4 km/h (2 Bft) W 277 ° 0 min 0,000 mm 2,3 UV-I 246 W/m² 10,9 °C 14,9 °C 14,5 km/h (3 Bft)
25.09.2019 14:58 15,0 °C 78 % 1008,8 hPa 0,0 mm 5,7 km/h (1 Bft) W 279 ° 0 min 0,000 mm 2,2 UV-I 207 W/m² 11,2 °C 15,0 °C 14,5 km/h (3 Bft)
25.09.2019 14:59 15,0 °C 76 % 1008,6 hPa 0,0 mm 13,3 km/h (3 Bft) W-SW 248 ° 0 min 0,000 mm 2,2 UV-I 218 W/m² 10,8 °C 15,0 °C 17,7 km/h (3 Bft)
25.09.2019 15:00 14,9 °C 74 % 1008,7 hPa 0,0 mm 9,7 km/h (2 Bft) S-SW 212 ° 0 min 0,203 mm 2,3 UV-I 218 W/m² 10,3 °C 14,9 °C 16,1 km/h (3 Bft)
25.09.2019 15:01 14,9 °C 75 % 1008,7 hPa 0,0 mm 7,5 km/h (2 Bft) W 272 ° 0 min 0,000 mm 2,6 UV-I 258 W/m² 10,5 °C 14,9 °C 14,5 km/h (3 Bft)
25.09.2019 15:02 14,9 °C 74 % 1008,8 hPa 0,0 mm 12,8 km/h (3 Bft) W 279 ° 0 min 0,000 mm 2,7 UV-I 323 W/m² 10,3 °C 14,9 °C 20,9 km/h (4 Bft)
25.09.2019 15:03 15,0 °C 76 % 1008,7 hPa 0,0 mm 10,3 km/h (2 Bft) W 263 ° 0 min 0,000 mm 3,6 UV-I 573 W/m² 10,8 °C 15,0 °C 12,9 km/h (3 Bft)
25.09.2019 15:04 15,1 °C 76 % 1008,8 hPa 0,0 mm 9,4 km/h (2 Bft) W-SW 257 ° 0 min 0,000 mm 3,6 UV-I 573 W/m² 10,9 °C 15,1 °C 14,5 km/h (3 Bft)
25.09.2019 15:05 15,2 °C 74 % 1008,7 hPa 0,0 mm 4,9 km/h (1 Bft) W-NW 293 ° 0 min 0,000 mm 3,7 UV-I 573 W/m² 10,6 °C 15,2 °C 8,0 km/h (2 Bft)
25.09.2019 15:06 15,3 °C 74 % 1008,6 hPa 0,0 mm 15,5 km/h (3 Bft) NW 319 ° 0 min 0,000 mm 3,3 UV-I 573 W/m² 10,7 °C 15,3 °C 20,9 km/h (4 Bft)
25.09.2019 15:07 15,4 °C 74 % 1008,7 hPa 0,0 mm 5,1 km/h (1 Bft) W-NW 299 ° 0 min 0,000 mm 3,6 UV-I 573 W/m² 10,8 °C 15,4 °C 9,7 km/h (2 Bft)
25.09.2019 15:08 15,4 °C 72 % 1008,7 hPa 0,0 mm 6,7 km/h (2 Bft) W 265 ° 0 min 0,000 mm 2,8 UV-I 573 W/m² 10,4 °C 15,4 °C 16,1 km/h (3 Bft)
25.09.2019 15:09 15,3 °C 73 % 1008,7 hPa 0,0 mm 10,2 km/h (2 Bft) W-SW 242 ° 0 min 0,000 mm 2,4 UV-I 171 W/m² 10,5 °C 15,3 °C 17,7 km/h (3 Bft)
25.09.2019 15:10 15,3 °C 73 % 1008,6 hPa 0,0 mm 10,1 km/h (2 Bft) W 264 ° 0 min 0,000 mm 2,0 UV-I 155 W/m² 10,5 °C 15,3 °C 14,5 km/h (3 Bft)
25.09.2019 15:11 15,2 °C 72 % 1008,6 hPa 0,0 mm 12,9 km/h (3 Bft) W-NW 293 ° 0 min 0,000 mm 1,9 UV-I 163 W/m² 10,2 °C 15,2 °C 16,1 km/h (3 Bft)
25.09.2019 15:12 15,1 °C 74 % 1008,7 hPa 0,0 mm 8,0 km/h (2 Bft) SW 235 ° 0 min 0,000 mm 2,1 UV-I 163 W/m² 10,5 °C 15,1 °C 11,3 km/h (2 Bft)
25.09.2019 15:13 15,0 °C 73 % 1008,6 hPa 0,0 mm 8,4 km/h (2 Bft) W 274 ° 0 min 0,000 mm 2,2 UV-I 163 W/m² 10,2 °C 15,0 °C 11,3 km/h (2 Bft)
25.09.2019 15:14 14,9 °C 75 % 1008,6 hPa 0,0 mm 6,8 km/h (2 Bft) W-SW 247 ° 0 min 0,000 mm 2,1 UV-I 195 W/m² 10,5 °C 14,9 °C 12,9 km/h (3 Bft)
25.09.2019 15:15 14,9 °C 76 % 1008,6 hPa 0,0 mm 9,7 km/h (2 Bft) W 270 ° 0 min 0,000 mm 2,0 UV-I 234 W/m² 10,7 °C 14,9 °C 25,7 km/h (4 Bft)
25.09.2019 15:16 14,9 °C 74 % 1008,6 hPa 0,0 mm 11,3 km/h (2 Bft) W 259 ° 0 min 0,000 mm 3,5 UV-I 234 W/m² 10,3 °C 14,9 °C 17,7 km/h (3 Bft)
25.09.2019 15:17 14,9 °C 74 % 1008,5 hPa 0,0 mm 12,5 km/h (3 Bft) SW 232 ° 0 min 0,000 mm 2,3 UV-I 234 W/m² 10,3 °C 14,9 °C 16,1 km/h (3 Bft)
25.09.2019 15:18 14,9 °C 75 % 1008,6 hPa 0,0 mm 4,6 km/h (1 Bft) W-SW 246 ° 0 min 0,000 mm 3,3 UV-I 234 W/m² 10,5 °C 14,9 °C 8,0 km/h (2 Bft)
25.09.2019 15:19 15,1 °C 76 % 1008,5 hPa 0,0 mm 5,6 km/h (1 Bft) W 259 ° 0 min 0,000 mm 3,5 UV-I 355 W/m² 10,9 °C 15,1 °C 16,1 km/h (3 Bft)
25.09.2019 15:20 15,1 °C 73 % 1008,5 hPa 0,0 mm 11,3 km/h (2 Bft) W-SW 258 ° 0 min 0,000 mm 3,2 UV-I 355 W/m² 10,3 °C 15,1 °C 16,1 km/h (3 Bft)
25.09.2019 15:21 15,1 °C 73 % 1008,5 hPa 0,0 mm 13,9 km/h (3 Bft) SW 221 ° 0 min 0,000 mm 3,3 UV-I 355 W/m² 10,3 °C 15,1 °C 22,5 km/h (4 Bft)
25.09.2019 15:22 15,2 °C 74 % 1008,6 hPa 0,0 mm 3,1 km/h (1 Bft) W-SW 247 ° 0 min 0,000 mm 2,8 UV-I 462 W/m² 10,6 °C 15,2 °C 6,4 km/h (2 Bft)
25.09.2019 15:23 15,2 °C 74 % 1008,5 hPa 0,0 mm 7,7 km/h (2 Bft) W-NW 291 ° 0 min 0,000 mm 2,6 UV-I 406 W/m² 10,6 °C 15,2 °C 11,3 km/h (2 Bft)
25.09.2019 15:24 15,3 °C 74 % 1008,5 hPa 0,0 mm 12,3 km/h (3 Bft) W-NW 286 ° 0 min 0,000 mm 2,2 UV-I 309 W/m² 10,7 °C 15,3 °C 16,1 km/h (3 Bft)
25.09.2019 15:25 15,3 °C 73 % 1008,5 hPa 0,0 mm 5,8 km/h (2 Bft) W-NW 284 ° 0 min 0,000 mm 2,5 UV-I 373 W/m² 10,5 °C 15,3 °C 9,7 km/h (2 Bft)
25.09.2019 15:26 15,3 °C 74 % 1008,6 hPa 0,0 mm 7,3 km/h (2 Bft) W 263 ° 0 min 0,000 mm 2,5 UV-I 401 W/m² 10,7 °C 15,3 °C 14,5 km/h (3 Bft)
25.09.2019 15:27 15,3 °C 73 % 1008,5 hPa 0,0 mm 7,7 km/h (2 Bft) W 266 ° 0 min 0,000 mm 2,5 UV-I 364 W/m² 10,5 °C 15,3 °C 14,5 km/h (3 Bft)
25.09.2019 15:28 15,3 °C 74 % 1008,5 hPa 0,0 mm 7,1 km/h (2 Bft) W 259 ° 0 min 0,000 mm 1,9 UV-I 364 W/m² 10,7 °C 15,3 °C 9,7 km/h (2 Bft)
25.09.2019 15:29 15,3 °C 73 % 1008,5 hPa 0,0 mm 9,7 km/h (2 Bft) W-SW 248 ° 0 min 0,000 mm 2,6 UV-I 364 W/m² 10,5 °C 15,3 °C 19,3 km/h (3 Bft)
25.09.2019 15:30 15,3 °C 74 % 1008,5 hPa 0,0 mm 4,3 km/h (1 Bft) W-NW 286 ° 0 min 0,000 mm 2,0 UV-I 343 W/m² 10,7 °C 15,3 °C 8,0 km/h (2 Bft)
25.09.2019 15:31 15,2 °C 73 % 1008,6 hPa 0,0 mm 3,8 km/h (1 Bft) W 263 ° 0 min 0,000 mm 2,3 UV-I 439 W/m² 10,4 °C 15,2 °C 6,4 km/h (2 Bft)
25.09.2019 15:32 15,3 °C 75 % 1008,6 hPa 0,0 mm 6,8 km/h (2 Bft) W 260 ° 0 min 0,000 mm 1,9 UV-I 439 W/m² 10,9 °C 15,3 °C 11,3 km/h (2 Bft)
25.09.2019 15:33 15,2 °C 73 % 1008,5 hPa 0,0 mm 5,8 km/h (2 Bft) N-NW 327 ° 0 min 0,000 mm 2,0 UV-I 439 W/m² 10,4 °C 15,2 °C 14,5 km/h (3 Bft)
25.09.2019 15:34 15,2 °C 73 % 1008,5 hPa 0,0 mm 10,1 km/h (2 Bft) S 175 ° 0 min 0,000 mm 2,7 UV-I 439 W/m² 10,4 °C 15,2 °C 14,5 km/h (3 Bft)
25.09.2019 15:35 15,2 °C 72 % 1008,6 hPa 0,0 mm 7,7 km/h (2 Bft) SW 236 ° 0 min 0,000 mm 2,7 UV-I 413 W/m² 10,2 °C 15,2 °C 12,9 km/h (3 Bft)
25.09.2019 15:36 15,2 °C 73 % 1008,6 hPa 0,0 mm 6,9 km/h (2 Bft) SW 222 ° 0 min 0,000 mm 2,5 UV-I 413 W/m² 10,4 °C 15,2 °C 14,5 km/h (3 Bft)
25.09.2019 15:37 15,2 °C 73 % 1008,6 hPa 0,0 mm 12,0 km/h (2 Bft) W 267 ° 0 min 0,000 mm 2,7 UV-I 489 W/m² 10,4 °C 15,2 °C 17,7 km/h (3 Bft)
25.09.2019 15:38 15,1 °C 73 % 1008,6 hPa 0,0 mm 10,7 km/h (2 Bft) NW 317 ° 0 min 0,000 mm 2,9 UV-I 499 W/m² 10,3 °C 15,1 °C 17,7 km/h (3 Bft)
25.09.2019 15:39 15,2 °C 76 % 1008,6 hPa 0,0 mm 5,4 km/h (1 Bft) W-SW 257 ° 0 min 0,000 mm 2,5 UV-I 499 W/m² 11,0 °C 15,2 °C 8,0 km/h (2 Bft)
25.09.2019 15:40 15,2 °C 75 % 1008,5 hPa 0,0 mm 6,9 km/h (2 Bft) W-NW 292 ° 0 min 0,000 mm 2,9 UV-I 499 W/m² 10,8 °C 15,2 °C 11,3 km/h (2 Bft)
25.09.2019 15:41 15,4 °C 75 % 1008,6 hPa 0,0 mm 4,6 km/h (1 Bft) W 277 ° 0 min 0,000 mm 2,8 UV-I 503 W/m² 11,0 °C 15,4 °C 9,7 km/h (2 Bft)
25.09.2019 15:42 15,4 °C 74 % 1008,6 hPa 0,0 mm 2,0 km/h (1 Bft) W-SW 246 ° 0 min 0,000 mm 2,6 UV-I 466 W/m² 10,8 °C 15,4 °C 4,8 km/h (1 Bft)
25.09.2019 15:43 15,5 °C 73 % 1008,5 hPa 0,0 mm 7,3 km/h (2 Bft) W 281 ° 0 min 0,000 mm 2,5 UV-I 396 W/m² 10,7 °C 15,5 °C 9,7 km/h (2 Bft)
25.09.2019 15:44 15,6 °C 74 % 1008,6 hPa 0,0 mm 12,7 km/h (3 Bft) W 260 ° 0 min 0,000 mm 2,6 UV-I 413 W/m² 11,0 °C 15,6 °C 19,3 km/h (3 Bft)
25.09.2019 15:45 15,5 °C 72 % 1008,6 hPa 0,0 mm 7,3 km/h (2 Bft) SW 219 ° 0 min 0,000 mm 2,4 UV-I 413 W/m² 10,5 °C 15,5 °C 11,3 km/h (2 Bft)
25.09.2019 15:46 15,4 °C 72 % 1008,6 hPa 0,0 mm 3,3 km/h (1 Bft) N 360 ° 0 min 0,000 mm 2,2 UV-I 413 W/m² 10,4 °C 15,4 °C 4,8 km/h (1 Bft)
25.09.2019 15:47 15,4 °C 73 % 1008,6 hPa 0,0 mm 9,4 km/h (2 Bft) W 270 ° 0 min 0,000 mm 2,2 UV-I 475 W/m² 10,6 °C 15,4 °C 14,5 km/h (3 Bft)
25.09.2019 15:48 15,4 °C 73 % 1008,6 hPa 0,0 mm 9,1 km/h (2 Bft) W-SW 240 ° 0 min 0,000 mm 2,6 UV-I 408 W/m² 10,6 °C 15,4 °C 17,7 km/h (3 Bft)
25.09.2019 15:49 15,3 °C 73 % 1008,6 hPa 0,0 mm 8,9 km/h (2 Bft) W-SW 239 ° 0 min 0,000 mm 2,6 UV-I 408 W/m² 10,5 °C 15,3 °C 12,9 km/h (3 Bft)
25.09.2019 15:50 15,3 °C 74 % 1008,6 hPa 0,0 mm 10,1 km/h (2 Bft) W-NW 297 ° 0 min 0,000 mm 2,1 UV-I 408 W/m² 10,7 °C 15,3 °C 14,5 km/h (3 Bft)
25.09.2019 15:51 15,2 °C 73 % 1008,6 hPa 0,0 mm 8,6 km/h (2 Bft) SW 231 ° 0 min 0,000 mm 1,7 UV-I 167 W/m² 10,4 °C 15,2 °C 14,5 km/h (3 Bft)
25.09.2019 15:52 15,2 °C 73 % 1008,7 hPa 0,0 mm 7,7 km/h (2 Bft) W 274 ° 0 min 0,000 mm 2,0 UV-I 176 W/m² 10,4 °C 15,2 °C 19,3 km/h (3 Bft)
25.09.2019 15:53 15,1 °C 74 % 1008,7 hPa 0,0 mm 6,0 km/h (2 Bft) W-SW 241 ° 0 min 0,000 mm 1,8 UV-I 165 W/m² 10,5 °C 15,1 °C 11,3 km/h (2 Bft)
25.09.2019 15:54 15,0 °C 72 % 1008,7 hPa 0,0 mm 6,2 km/h (2 Bft) W 276 ° 0 min 0,000 mm 2,0 UV-I 165 W/m² 10,0 °C 15,0 °C 9,7 km/h (2 Bft)
25.09.2019 15:55 14,9 °C 74 % 1008,7 hPa 0,0 mm 8,9 km/h (2 Bft) W-NW 290 ° 0 min 0,000 mm 2,0 UV-I 165 W/m² 10,3 °C 14,9 °C 11,3 km/h (2 Bft)
25.09.2019 15:56 14,9 °C 73 % 1008,7 hPa 0,0 mm 4,9 km/h (1 Bft) W 267 ° 0 min 0,000 mm 1,7 UV-I 287 W/m² 10,1 °C 14,9 °C 6,4 km/h (2 Bft)
25.09.2019 15:57 14,9 °C 74 % 1008,7 hPa 0,0 mm 8,8 km/h (2 Bft) W 260 ° 0 min 0,000 mm 1,8 UV-I 202 W/m² 10,3 °C 14,9 °C 16,1 km/h (3 Bft)
25.09.2019 15:58 14,8 °C 74 % 1008,7 hPa 0,0 mm 6,6 km/h (2 Bft) W-NW 282 ° 0 min 0,000 mm 1,7 UV-I 199 W/m² 10,2 °C 14,8 °C 12,9 km/h (3 Bft)
25.09.2019 15:59 14,8 °C 75 % 1008,7 hPa 0,0 mm 4,7 km/h (1 Bft) W-NW 294 ° 0 min 0,000 mm 1,6 UV-I 193 W/m² 10,4 °C 14,8 °C 8,0 km/h (2 Bft)
25.09.2019 16:00 14,8 °C 76 % 1008,7 hPa 0,0 mm 9,8 km/h (2 Bft) W 264 ° 0 min 0,203 mm 1,7 UV-I 244 W/m² 10,6 °C 14,8 °C 16,1 km/h (3 Bft)
25.09.2019 16:01 14,7 °C 75 % 1008,7 hPa 0,0 mm 11,5 km/h (2 Bft) W 265 ° 0 min 0,000 mm 1,7 UV-I 318 W/m² 10,3 °C 14,7 °C 16,1 km/h (3 Bft)
25.09.2019 16:02 14,7 °C 76 % 1008,7 hPa 0,0 mm 2,5 km/h (1 Bft) SW 234 ° 0 min 0,000 mm 1,8 UV-I 241 W/m² 10,5 °C 14,7 °C 4,8 km/h (1 Bft)
25.09.2019 16:03 14,7 °C 76 % 1008,7 hPa 0,0 mm 4,6 km/h (1 Bft) NW 309 ° 0 min 0,000 mm 1,7 UV-I 223 W/m² 10,5 °C 14,7 °C 9,7 km/h (2 Bft)
25.09.2019 16:04 14,7 °C 75 % 1008,7 hPa 0,0 mm 8,4 km/h (2 Bft) W 268 ° 0 min 0,000 mm 1,6 UV-I 214 W/m² 10,3 °C 14,7 °C 16,1 km/h (3 Bft)
25.09.2019 16:05 14,8 °C 76 % 1008,7 hPa 0,0 mm 3,8 km/h (1 Bft) W 267 ° 0 min 0,000 mm 1,6 UV-I 207 W/m² 10,6 °C 14,8 °C 6,4 km/h (2 Bft)
25.09.2019 16:06 14,8 °C 77 % 1008,7 hPa 0,0 mm 3,0 km/h (1 Bft) W 271 ° 0 min 0,000 mm 1,6 UV-I 202 W/m² 10,8 °C 14,8 °C 4,8 km/h (1 Bft)
25.09.2019 16:07 14,8 °C 77 % 1008,6 hPa 0,0 mm 3,1 km/h (1 Bft) W 275 ° 0 min 0,000 mm 1,6 UV-I 197 W/m² 10,8 °C 14,8 °C 6,4 km/h (2 Bft)
25.09.2019 16:08 14,8 °C 76 % 1008,7 hPa 0,0 mm 2,6 km/h (1 Bft) W 275 ° 0 min 0,000 mm 1,5 UV-I 192 W/m² 10,6 °C 14,8 °C 4,8 km/h (1 Bft)
25.09.2019 16:09 14,8 °C 76 % 1008,7 hPa 0,0 mm 3,8 km/h (1 Bft) W 273 ° 0 min 0,000 mm 1,5 UV-I 192 W/m² 10,6 °C 14,8 °C 6,4 km/h (2 Bft)
25.09.2019 16:10 14,8 °C 77 % 1008,8 hPa 0,0 mm 1,4 km/h (1 Bft) W 259 ° 0 min 0,000 mm 1,5 UV-I 200 W/m² 10,8 °C 14,8 °C 6,4 km/h (2 Bft)
25.09.2019 16:11 14,8 °C 76 % 1008,8 hPa 0,0 mm 4,8 km/h (1 Bft) W 263 ° 0 min 0,000 mm 1,5 UV-I 206 W/m² 10,6 °C 14,8 °C 6,4 km/h (2 Bft)
25.09.2019 16:12 14,8 °C 77 % 1008,7 hPa 0,0 mm 5,4 km/h (1 Bft) NW 312 ° 0 min 0,000 mm 1,5 UV-I 206 W/m² 10,8 °C 14,8 °C 11,3 km/h (2 Bft)
25.09.2019 16:13 14,8 °C 77 % 1008,7 hPa 0,0 mm 7,3 km/h (2 Bft) W-SW 251 ° 0 min 0,000 mm 1,5 UV-I 213 W/m² 10,8 °C 14,8 °C 12,9 km/h (3 Bft)
25.09.2019 16:14 14,8 °C 76 % 1008,7 hPa 0,0 mm 3,2 km/h (1 Bft) W-NW 288 ° 0 min 0,000 mm 2,0 UV-I 213 W/m² 10,6 °C 14,8 °C 6,4 km/h (2 Bft)
25.09.2019 16:15 14,8 °C 77 % 1008,6 hPa 0,0 mm 12,2 km/h (2 Bft) W-NW 288 ° 0 min 0,000 mm 2,0 UV-I 496 W/m² 10,8 °C 14,8 °C 17,7 km/h (3 Bft)
25.09.2019 16:16 14,9 °C 77 % 1008,6 hPa 0,0 mm 11,3 km/h (2 Bft) W 281 ° 0 min 0,000 mm 2,1 UV-I 496 W/m² 10,9 °C 14,9 °C 19,3 km/h (3 Bft)
25.09.2019 16:17 14,9 °C 77 % 1008,7 hPa 0,0 mm 5,5 km/h (1 Bft) W 279 ° 0 min 0,000 mm 2,1 UV-I 566 W/m² 10,9 °C 14,9 °C 9,7 km/h (2 Bft)
25.09.2019 16:18 15,0 °C 77 % 1008,6 hPa 0,0 mm 2,6 km/h (1 Bft) SW 227 ° 0 min 0,000 mm 2,2 UV-I 561 W/m² 11,0 °C 15,0 °C 6,4 km/h (2 Bft)
25.09.2019 16:19 15,1 °C 76 % 1008,6 hPa 0,0 mm 2,9 km/h (1 Bft) W 275 ° 0 min 0,000 mm 1,8 UV-I 297 W/m² 10,9 °C 15,1 °C 4,8 km/h (1 Bft)
25.09.2019 16:20 15,1 °C 77 % 1008,6 hPa 0,0 mm 12,9 km/h (3 Bft) NW 311 ° 0 min 0,000 mm 1,7 UV-I 246 W/m² 11,1 °C 15,1 °C 19,3 km/h (3 Bft)
25.09.2019 16:21 15,1 °C 75 % 1008,6 hPa 0,0 mm 10,3 km/h (2 Bft) W 261 ° 0 min 0,000 mm 1,9 UV-I 257 W/m² 10,7 °C 15,1 °C 19,3 km/h (3 Bft)
25.09.2019 16:22 15,1 °C 76 % 1008,6 hPa 0,0 mm 11,3 km/h (2 Bft) W 261 ° 0 min 0,000 mm 1,6 UV-I 223 W/m² 10,9 °C 15,1 °C 16,1 km/h (3 Bft)
25.09.2019 16:23 15,1 °C 75 % 1008,6 hPa 0,0 mm 4,8 km/h (1 Bft) SW 219 ° 0 min 0,000 mm 1,6 UV-I 207 W/m² 10,7 °C 15,1 °C 6,4 km/h (2 Bft)
25.09.2019 16:24 15,0 °C 76 % 1008,6 hPa 0,0 mm 4,1 km/h (1 Bft) W 279 ° 0 min 0,000 mm 1,5 UV-I 213 W/m² 10,8 °C 15,0 °C 6,4 km/h (2 Bft)
25.09.2019 16:25 15,0 °C 76 % 1008,6 hPa 0,0 mm 6,5 km/h (2 Bft) NW 305 ° 0 min 0,000 mm 1,9 UV-I 216 W/m² 10,8 °C 15,0 °C 12,9 km/h (3 Bft)
25.09.2019 16:26 15,0 °C 77 % 1008,6 hPa 0,0 mm 7,2 km/h (2 Bft) W-SW 243 ° 0 min 0,000 mm 1,5 UV-I 221 W/m² 11,0 °C 15,0 °C 14,5 km/h (3 Bft)
25.09.2019 16:27 14,9 °C 76 % 1008,7 hPa 0,0 mm 5,1 km/h (1 Bft) NW 309 ° 0 min 0,000 mm 1,5 UV-I 237 W/m² 10,7 °C 14,9 °C 8,0 km/h (2 Bft)
25.09.2019 16:28 15,0 °C 77 % 1008,7 hPa 0,0 mm 8,6 km/h (2 Bft) W-SW 253 ° 0 min 0,000 mm 1,5 UV-I 234 W/m² 11,0 °C 15,0 °C 14,5 km/h (3 Bft)
25.09.2019 16:29 14,9 °C 75 % 1008,7 hPa 0,0 mm 8,9 km/h (2 Bft) W-SW 250 ° 0 min 0,000 mm 1,4 UV-I 223 W/m² 10,5 °C 14,9 °C 12,9 km/h (3 Bft)
25.09.2019 16:30 14,9 °C 76 % 1008,6 hPa 0,0 mm 17,6 km/h (3 Bft) W-NW 284 ° 0 min 0,000 mm 1,4 UV-I 223 W/m² 10,7 °C 14,9 °C 20,9 km/h (4 Bft)
25.09.2019 16:31 14,9 °C 75 % 1008,6 hPa 0,0 mm 11,9 km/h (2 Bft) W 265 ° 0 min 0,000 mm 1,4 UV-I 181 W/m² 10,5 °C 14,9 °C 19,3 km/h (3 Bft)
25.09.2019 16:32 14,8 °C 75 % 1008,6 hPa 0,0 mm 7,6 km/h (2 Bft) W-SW 253 ° 0 min 0,000 mm 1,3 UV-I 163 W/m² 10,4 °C 14,8 °C 14,5 km/h (3 Bft)
25.09.2019 16:33 14,8 °C 75 % 1008,6 hPa 0,0 mm 7,2 km/h (2 Bft) W-SW 242 ° 0 min 0,000 mm 1,3 UV-I 156 W/m² 10,4 °C 14,8 °C 12,9 km/h (3 Bft)
25.09.2019 16:34 14,8 °C 76 % 1008,5 hPa 0,0 mm 9,1 km/h (2 Bft) W-SW 255 ° 0 min 0,000 mm 1,2 UV-I 155 W/m² 10,6 °C 14,8 °C 16,1 km/h (3 Bft)
25.09.2019 16:35 14,7 °C 75 % 1008,6 hPa 0,0 mm 11,1 km/h (2 Bft) W 274 ° 0 min 0,000 mm 1,2 UV-I 153 W/m² 10,3 °C 14,7 °C 16,1 km/h (3 Bft)
25.09.2019 16:36 14,7 °C 75 % 1008,6 hPa 0,0 mm 6,4 km/h (2 Bft) NW 310 ° 0 min 0,000 mm 1,2 UV-I 160 W/m² 10,3 °C 14,7 °C 11,3 km/h (2 Bft)
25.09.2019 16:37 14,7 °C 76 % 1008,6 hPa 0,0 mm 8,2 km/h (2 Bft) W-SW 248 ° 0 min 0,000 mm 1,2 UV-I 158 W/m² 10,5 °C 14,7 °C 11,3 km/h (2 Bft)
25.09.2019 16:38 14,6 °C 75 % 1008,6 hPa 0,0 mm 4,0 km/h (1 Bft) W 279 ° 0 min 0,000 mm 1,2 UV-I 155 W/m² 10,2 °C 14,6 °C 8,0 km/h (2 Bft)
25.09.2019 16:39 14,6 °C 76 % 1008,6 hPa 0,0 mm 4,7 km/h (1 Bft) W 279 ° 0 min 0,000 mm 1,2 UV-I 156 W/m² 10,4 °C 14,6 °C 6,4 km/h (2 Bft)
25.09.2019 16:40 14,6 °C 77 % 1008,6 hPa 0,0 mm 5,8 km/h (2 Bft) W 268 ° 0 min 0,000 mm 1,2 UV-I 162 W/m² 10,6 °C 14,6 °C 9,7 km/h (2 Bft)
25.09.2019 16:41 14,5 °C 77 % 1008,6 hPa 0,0 mm 7,3 km/h (2 Bft) W-NW 291 ° 0 min 0,000 mm 1,2 UV-I 162 W/m² 10,5 °C 14,5 °C 11,3 km/h (2 Bft)
25.09.2019 16:42 14,6 °C 77 % 1008,6 hPa 0,0 mm 5,4 km/h (1 Bft) W-SW 249 ° 0 min 0,000 mm 1,2 UV-I 151 W/m² 10,6 °C 14,6 °C 6,4 km/h (2 Bft)
25.09.2019 16:43 14,5 °C 77 % 1008,6 hPa 0,0 mm 5,0 km/h (1 Bft) W 261 ° 0 min 0,000 mm 1,2 UV-I 144 W/m² 10,5 °C 14,5 °C 12,9 km/h (3 Bft)
25.09.2019 16:44 14,5 °C 76 % 1008,5 hPa 0,0 mm 8,3 km/h (2 Bft) W 267 ° 0 min 0,000 mm 1,1 UV-I 139 W/m² 10,3 °C 14,5 °C 12,9 km/h (3 Bft)
25.09.2019 16:45 14,5 °C 77 % 1008,6 hPa 0,0 mm 5,6 km/h (1 Bft) W 277 ° 0 min 0,000 mm 1,0 UV-I 130 W/m² 10,5 °C 14,5 °C 11,3 km/h (2 Bft)
25.09.2019 16:46 14,4 °C 77 % 1008,6 hPa 0,0 mm 3,4 km/h (1 Bft) W 263 ° 0 min 0,000 mm 1,0 UV-I 127 W/m² 10,4 °C 14,4 °C 4,8 km/h (1 Bft)
25.09.2019 16:47 14,4 °C 77 % 1008,6 hPa 0,0 mm 7,4 km/h (2 Bft) W-NW 300 ° 0 min 0,000 mm 0,9 UV-I 123 W/m² 10,4 °C 14,4 °C 12,9 km/h (3 Bft)
25.09.2019 16:48 14,4 °C 77 % 1008,6 hPa 0,0 mm 7,1 km/h (2 Bft) W-NW 296 ° 0 min 0,000 mm 0,9 UV-I 114 W/m² 10,4 °C 14,4 °C 12,9 km/h (3 Bft)
25.09.2019 16:49 14,4 °C 78 % 1008,6 hPa 0,0 mm 4,4 km/h (1 Bft) W 270 ° 0 min 0,000 mm 0,8 UV-I 105 W/m² 10,6 °C 14,4 °C 11,3 km/h (2 Bft)
25.09.2019 16:50 14,4 °C 78 % 1008,6 hPa 0,0 mm 7,3 km/h (2 Bft) NW 315 ° 0 min 0,000 mm 0,8 UV-I 98 W/m² 10,6 °C 14,4 °C 9,7 km/h (2 Bft)
25.09.2019 16:51 14,4 °C 77 % 1008,6 hPa 0,0 mm 9,0 km/h (2 Bft) W-NW 288 ° 0 min 0,000 mm 0,8 UV-I 98 W/m² 10,4 °C 14,4 °C 16,1 km/h (3 Bft)
25.09.2019 16:52 14,3 °C 76 % 1008,7 hPa 0,0 mm 11,9 km/h (2 Bft) NW 305 ° 0 min 0,000 mm 0,8 UV-I 100 W/m² 10,1 °C 14,3 °C 19,3 km/h (3 Bft)
25.09.2019 16:53 14,3 °C 76 % 1008,6 hPa 0,0 mm 7,0 km/h (2 Bft) W-SW 250 ° 0 min 0,000 mm 0,8 UV-I 102 W/m² 10,1 °C 14,3 °C 12,9 km/h (3 Bft)
25.09.2019 16:54 14,3 °C 76 % 1008,6 hPa 0,0 mm 15,0 km/h (3 Bft) W 259 ° 0 min 0,000 mm 0,8 UV-I 109 W/m² 10,1 °C 14,3 °C 20,9 km/h (4 Bft)
25.09.2019 16:55 14,3 °C 76 % 1008,7 hPa 0,0 mm 12,4 km/h (3 Bft) W 272 ° 0 min 0,000 mm 0,8 UV-I 116 W/m² 10,1 °C 14,3 °C 17,7 km/h (3 Bft)
25.09.2019 16:56 14,3 °C 76 % 1008,6 hPa 0,0 mm 8,8 km/h (2 Bft) W 276 ° 0 min 0,000 mm 0,8 UV-I 116 W/m² 10,1 °C 14,3 °C 14,5 km/h (3 Bft)
25.09.2019 16:57 14,3 °C 76 % 1008,6 hPa 0,0 mm 9,8 km/h (2 Bft) W-NW 284 ° 0 min 0,000 mm 0,8 UV-I 113 W/m² 10,1 °C 14,3 °C 12,9 km/h (3 Bft)
25.09.2019 16:58 14,2 °C 76 % 1008,7 hPa 0,0 mm 6,5 km/h (2 Bft) W-NW 282 ° 0 min 0,000 mm 0,8 UV-I 109 W/m² 10,0 °C 14,2 °C 11,3 km/h (2 Bft)
25.09.2019 16:59 14,2 °C 77 % 1008,6 hPa 0,0 mm 5,7 km/h (1 Bft) W 275 ° 0 min 0,000 mm 0,7 UV-I 104 W/m² 10,2 °C 14,2 °C 12,9 km/h (3 Bft)
25.09.2019 17:00 14,2 °C 77 % 1008,7 hPa 0,0 mm 5,4 km/h (1 Bft) W-NW 290 ° 0 min 0,000 mm 0,7 UV-I 91 W/m² 10,2 °C 14,2 °C 8,0 km/h (2 Bft)
25.09.2019 17:01 14,2 °C 77 % 1008,8 hPa 0,0 mm 6,2 km/h (2 Bft) NW 326 ° 0 min 0,127 mm 0,6 UV-I 90 W/m² 10,2 °C 14,2 °C 11,3 km/h (2 Bft)
25.09.2019 17:02 14,2 °C 78 % 1008,7 hPa 0,0 mm 4,4 km/h (1 Bft) W-NW 292 ° 0 min 0,000 mm 0,6 UV-I 90 W/m² 10,4 °C 14,2 °C 8,0 km/h (2 Bft)
25.09.2019 17:03 14,2 °C 77 % 1008,7 hPa 0,0 mm 5,3 km/h (1 Bft) W-NW 288 ° 0 min 0,000 mm 0,6 UV-I 90 W/m² 10,2 °C 14,2 °C 8,0 km/h (2 Bft)
25.09.2019 17:04 14,2 °C 78 % 1008,8 hPa 0,0 mm 6,2 km/h (2 Bft) W-NW 282 ° 0 min 0,000 mm 0,6 UV-I 90 W/m² 10,4 °C 14,2 °C 12,9 km/h (3 Bft)
25.09.2019 17:05 14,1 °C 77 % 1008,8 hPa 0,0 mm 8,8 km/h (2 Bft) W 261 ° 0 min 0,000 mm 0,6 UV-I 88 W/m² 10,1 °C 14,1 °C 14,5 km/h (3 Bft)
25.09.2019 17:06 14,1 °C 77 % 1008,8 hPa 0,0 mm 6,6 km/h (2 Bft) W 263 ° 0 min 0,000 mm 0,6 UV-I 81 W/m² 10,1 °C 14,1 °C 11,3 km/h (2 Bft)
25.09.2019 17:07 14,1 °C 77 % 1008,8 hPa 0,0 mm 8,0 km/h (2 Bft) NW 309 ° 0 min 0,000 mm 0,5 UV-I 76 W/m² 10,1 °C 14,1 °C 11,3 km/h (2 Bft)
25.09.2019 17:08 14,1 °C 76 % 1008,8 hPa 0,0 mm 3,1 km/h (1 Bft) W 272 ° 0 min 0,000 mm 0,5 UV-I 76 W/m² 9,9 °C 14,1 °C 4,8 km/h (1 Bft)
25.09.2019 17:09 14,1 °C 78 % 1008,8 hPa 0,0 mm 4,2 km/h (1 Bft) W 260 ° 0 min 0,000 mm 0,5 UV-I 74 W/m² 10,3 °C 14,1 °C 11,3 km/h (2 Bft)
25.09.2019 17:10 14,1 °C 78 % 1008,8 hPa 0,0 mm 7,4 km/h (2 Bft) W 277 ° 0 min 0,000 mm 0,5 UV-I 76 W/m² 10,3 °C 14,1 °C 11,3 km/h (2 Bft)
25.09.2019 17:11 14,1 °C 77 % 1008,8 hPa 0,0 mm 4,4 km/h (1 Bft) W 281 ° 0 min 0,000 mm 0,5 UV-I 79 W/m² 10,1 °C 14,1 °C 6,4 km/h (2 Bft)
25.09.2019 17:12 14,0 °C 78 % 1008,7 hPa 0,0 mm 3,1 km/h (1 Bft) W 275 ° 0 min 0,000 mm 0,5 UV-I 86 W/m² 10,2 °C 14,0 °C 4,8 km/h (1 Bft)
25.09.2019 17:13 14,0 °C 79 % 1008,7 hPa 0,0 mm 4,7 km/h (1 Bft) W 275 ° 0 min 0,000 mm 0,5 UV-I 86 W/m² 10,4 °C 14,0 °C 6,4 km/h (2 Bft)
25.09.2019 17:14 14,0 °C 78 % 1008,8 hPa 0,0 mm 3,7 km/h (1 Bft) W 266 ° 0 min 0,000 mm 0,5 UV-I 86 W/m² 10,2 °C 14,0 °C 4,8 km/h (1 Bft)
25.09.2019 17:15 14,0 °C 78 % 1008,8 hPa 0,0 mm 7,9 km/h (2 Bft) S-SW 212 ° 0 min 0,000 mm 0,6 UV-I 100 W/m² 10,2 °C 14,0 °C 12,9 km/h (3 Bft)
25.09.2019 17:16 14,0 °C 77 % 1008,8 hPa 0,0 mm 13,8 km/h (3 Bft) W-NW 282 ° 0 min 0,000 mm 0,7 UV-I 109 W/m² 10,0 °C 14,0 °C 16,1 km/h (3 Bft)
25.09.2019 17:17 14,0 °C 77 % 1008,8 hPa 0,0 mm 7,6 km/h (2 Bft) W-SW 246 ° 0 min 0,000 mm 0,7 UV-I 118 W/m² 10,0 °C 14,0 °C 12,9 km/h (3 Bft)
25.09.2019 17:18 14,0 °C 78 % 1008,8 hPa 0,0 mm 5,4 km/h (1 Bft) W-SW 256 ° 0 min 0,000 mm 0,7 UV-I 118 W/m² 10,2 °C 14,0 °C 11,3 km/h (2 Bft)
25.09.2019 17:19 14,0 °C 78 % 1008,8 hPa 0,0 mm 4,2 km/h (1 Bft) W-NW 290 ° 0 min 0,000 mm 0,8 UV-I 116 W/m² 10,2 °C 14,0 °C 6,4 km/h (2 Bft)
25.09.2019 17:20 14,0 °C 79 % 1008,8 hPa 0,0 mm 7,3 km/h (2 Bft) W-SW 249 ° 0 min 0,000 mm 0,7 UV-I 114 W/m² 10,4 °C 14,0 °C 11,3 km/h (2 Bft)
25.09.2019 17:21 13,9 °C 78 % 1008,8 hPa 0,0 mm 7,7 km/h (2 Bft) W-SW 247 ° 0 min 0,000 mm 0,7 UV-I 113 W/m² 10,1 °C 13,9 °C 12,9 km/h (3 Bft)
25.09.2019 17:22 13,9 °C 79 % 1008,8 hPa 0,0 mm 5,5 km/h (1 Bft) W 269 ° 0 min 0,000 mm 0,7 UV-I 111 W/m² 10,3 °C 13,9 °C 6,4 km/h (2 Bft)
25.09.2019 17:23 13,9 °C 78 % 1008,8 hPa 0,0 mm 11,0 km/h (2 Bft) NW 307 ° 0 min 0,000 mm 0,7 UV-I 107 W/m² 10,1 °C 13,9 °C 14,5 km/h (3 Bft)
25.09.2019 17:24 13,9 °C 78 % 1008,8 hPa 0,0 mm 5,3 km/h (1 Bft) W-NW 282 ° 0 min 0,000 mm 0,7 UV-I 105 W/m² 10,1 °C 13,9 °C 8,0 km/h (2 Bft)
25.09.2019 17:25 13,9 °C 78 % 1008,8 hPa 0,0 mm 1,1 km/h (1 Bft) W 281 ° 0 min 0,000 mm 0,7 UV-I 104 W/m² 10,1 °C 13,9 °C 4,8 km/h (1 Bft)
25.09.2019 17:26 13,9 °C 78 % 1008,8 hPa 0,0 mm 0,5 km/h (0 Bft) W-NW 292 ° 0 min 0,000 mm 0,7 UV-I 102 W/m² 10,1 °C 13,9 °C 3,2 km/h (1 Bft)
25.09.2019 17:27 13,8 °C 78 % 1008,8 hPa 0,0 mm 7,6 km/h (2 Bft) SW 225 ° 0 min 0,000 mm 0,6 UV-I 100 W/m² 10,0 °C 13,8 °C 11,3 km/h (2 Bft)
25.09.2019 17:28 13,9 °C 78 % 1008,8 hPa 0,0 mm 3,6 km/h (1 Bft) W 264 ° 0 min 0,000 mm 0,6 UV-I 98 W/m² 10,1 °C 13,9 °C 6,4 km/h (2 Bft)
25.09.2019 17:29 13,8 °C 78 % 1008,9 hPa 0,0 mm 4,5 km/h (1 Bft) W 259 ° 0 min 0,000 mm 0,6 UV-I 95 W/m² 10,0 °C 13,8 °C 9,7 km/h (2 Bft)
25.09.2019 17:30 13,8 °C 78 % 1008,9 hPa 0,0 mm 5,0 km/h (1 Bft) W-SW 250 ° 0 min 0,000 mm 0,6 UV-I 93 W/m² 10,0 °C 13,8 °C 8,0 km/h (2 Bft)
25.09.2019 17:31 13,8 °C 79 % 1008,9 hPa 0,0 mm 6,0 km/h (2 Bft) W 279 ° 0 min 0,000 mm 0,6 UV-I 91 W/m² 10,2 °C 13,8 °C 11,3 km/h (2 Bft)
25.09.2019 17:32 13,8 °C 79 % 1008,9 hPa 0,0 mm 3,9 km/h (1 Bft) W 279 ° 0 min 0,000 mm 0,6 UV-I 90 W/m² 10,2 °C 13,8 °C 9,7 km/h (2 Bft)
25.09.2019 17:33 13,8 °C 79 % 1008,9 hPa 0,0 mm 5,7 km/h (1 Bft) W-NW 297 ° 0 min 0,000 mm 0,5 UV-I 88 W/m² 10,2 °C 13,8 °C 11,3 km/h (2 Bft)
25.09.2019 17:34 13,8 °C 79 % 1008,9 hPa 0,0 mm 3,9 km/h (1 Bft) W-NW 290 ° 0 min 0,000 mm 0,5 UV-I 86 W/m² 10,2 °C 13,8 °C 4,8 km/h (1 Bft)
25.09.2019 17:35 13,8 °C 79 % 1008,9 hPa 0,0 mm 3,1 km/h (1 Bft) SW 222 ° 0 min 0,000 mm 0,5 UV-I 83 W/m² 10,2 °C 13,8 °C 4,8 km/h (1 Bft)
25.09.2019 17:36 13,7 °C 79 % 1008,9 hPa 0,0 mm 8,7 km/h (2 Bft) W 269 ° 0 min 0,000 mm 0,5 UV-I 83 W/m² 10,1 °C 13,7 °C 11,3 km/h (2 Bft)
25.09.2019 17:37 13,7 °C 79 % 1008,9 hPa 0,0 mm 5,3 km/h (1 Bft) W-NW 283 ° 0 min 0,000 mm 0,5 UV-I 81 W/m² 10,1 °C 13,7 °C 9,7 km/h (2 Bft)
25.09.2019 17:38 13,7 °C 79 % 1008,9 hPa 0,0 mm 6,2 km/h (2 Bft) W-SW 254 ° 0 min 0,000 mm 0,5 UV-I 81 W/m² 10,1 °C 13,7 °C 9,7 km/h (2 Bft)
25.09.2019 17:39 13,7 °C 79 % 1008,9 hPa 0,0 mm 1,7 km/h (1 Bft) W-SW 258 ° 0 min 0,000 mm 0,5 UV-I 81 W/m² 10,1 °C 13,7 °C 4,8 km/h (1 Bft)
25.09.2019 17:40 13,7 °C 79 % 1009,0 hPa 0,0 mm 5,7 km/h (1 Bft) NW 306 ° 0 min 0,000 mm 0,5 UV-I 79 W/m² 10,1 °C 13,7 °C 9,7 km/h (2 Bft)
25.09.2019 17:41 13,7 °C 80 % 1008,9 hPa 0,0 mm 11,3 km/h (2 Bft) W-SW 257 ° 0 min 0,000 mm 0,5 UV-I 74 W/m² 10,3 °C 13,7 °C 17,7 km/h (3 Bft)
25.09.2019 17:42 13,7 °C 79 % 1009,0 hPa 0,0 mm 6,4 km/h (2 Bft) SW 230 ° 0 min 0,000 mm 0,0 UV-I 70 W/m² 10,1 °C 13,7 °C 11,3 km/h (2 Bft)
25.09.2019 17:43 13,6 °C 79 % 1008,9 hPa 0,0 mm 5,4 km/h (1 Bft) W 276 ° 0 min 0,000 mm 0,0 UV-I 63 W/m² 10,0 °C 13,6 °C 11,3 km/h (2 Bft)
25.09.2019 17:44 13,7 °C 79 % 1008,9 hPa 0,0 mm 9,3 km/h (2 Bft) W 270 ° 0 min 0,000 mm 0,0 UV-I 56 W/m² 10,1 °C 13,7 °C 12,9 km/h (3 Bft)
25.09.2019 17:45 13,7 °C 79 % 1009,0 hPa 0,0 mm 7,9 km/h (2 Bft) W-NW 292 ° 0 min 0,000 mm 0,0 UV-I 47 W/m² 10,1 °C 13,7 °C 12,9 km/h (3 Bft)
25.09.2019 17:46 13,6 °C 79 % 1009,0 hPa 0,0 mm 7,0 km/h (2 Bft) W-SW 254 ° 0 min 0,000 mm 0,0 UV-I 35 W/m² 10,0 °C 13,6 °C 11,3 km/h (2 Bft)
25.09.2019 17:47 13,6 °C 79 % 1009,0 hPa 0,0 mm 4,6 km/h (1 Bft) W 259 ° 0 min 0,000 mm 0,0 UV-I 32 W/m² 10,0 °C 13,6 °C 8,0 km/h (2 Bft)
25.09.2019 17:48 13,6 °C 79 % 1008,9 hPa 0,0 mm 3,3 km/h (1 Bft) W-SW 258 ° 0 min 0,000 mm 0,0 UV-I 30 W/m² 10,0 °C 13,6 °C 6,4 km/h (2 Bft)
25.09.2019 17:49 13,6 °C 79 % 1008,9 hPa 0,0 mm 0,0 km/h (0 Bft) W-SW 245 ° 0 min 0,000 mm 0,0 UV-I 28 W/m² 10,0 °C 13,6 °C 0,0 km/h (0 Bft)
25.09.2019 17:50 13,6 °C 79 % 1009,1 hPa 0,0 mm 7,9 km/h (2 Bft) W-NW 296 ° 0 min 0,000 mm 0,0 UV-I 26 W/m² 10,0 °C 13,6 °C 14,5 km/h (3 Bft)
25.09.2019 17:51 13,5 °C 79 % 1009,0 hPa 0,0 mm 4,8 km/h (1 Bft) W-NW 294 ° 0 min 0,000 mm 0,0 UV-I 26 W/m² 9,9 °C 13,5 °C 11,3 km/h (2 Bft)
25.09.2019 17:52 13,5 °C 80 % 1009,0 hPa 0,0 mm 4,3 km/h (1 Bft) W 275 ° 0 min 0,000 mm 0,0 UV-I 26 W/m² 10,1 °C 13,5 °C 8,0 km/h (2 Bft)
25.09.2019 17:53 13,5 °C 80 % 1009,1 hPa 0,0 mm 3,7 km/h (1 Bft) W 259 ° 0 min 0,000 mm 0,0 UV-I 28 W/m² 10,1 °C 13,5 °C 6,4 km/h (2 Bft)
25.09.2019 17:54 13,4 °C 80 % 1009,0 hPa 0,0 mm 0,0 km/h (0 Bft) W-SW 249 ° 0 min 0,000 mm 0,0 UV-I 32 W/m² 10,0 °C 13,4 °C 0,0 km/h (0 Bft)
25.09.2019 17:55 13,4 °C 80 % 1009,0 hPa 0,0 mm 2,3 km/h (1 Bft) W-SW 255 ° 0 min 0,000 mm 0,0 UV-I 35 W/m² 10,0 °C 13,4 °C 9,7 km/h (2 Bft)
25.09.2019 17:56 13,4 °C 80 % 1008,9 hPa 0,0 mm 7,4 km/h (2 Bft) W 259 ° 0 min 0,000 mm 0,0 UV-I 40 W/m² 10,0 °C 13,4 °C 12,9 km/h (3 Bft)
25.09.2019 17:57 13,4 °C 80 % 1009,0 hPa 0,0 mm 3,3 km/h (1 Bft) SW 231 ° 0 min 0,000 mm 0,0 UV-I 47 W/m² 10,0 °C 13,4 °C 8,0 km/h (2 Bft)
25.09.2019 17:58 13,4 °C 80 % 1009,0 hPa 0,0 mm 1,9 km/h (1 Bft) W 259 ° 0 min 0,000 mm 0,0 UV-I 54 W/m² 10,0 °C 13,4 °C 6,4 km/h (2 Bft)
25.09.2019 17:59 13,4 °C 80 % 1009,0 hPa 0,0 mm 1,9 km/h (1 Bft) W-SW 257 ° 0 min 0,000 mm 0,0 UV-I 49 W/m² 10,0 °C 13,4 °C 4,8 km/h (1 Bft)
25.09.2019 18:00 13,4 °C 80 % 1009,0 hPa 0,0 mm 1,9 km/h (1 Bft) W 268 ° 0 min 0,000 mm 0,0 UV-I 42 W/m² 10,0 °C 13,4 °C 9,7 km/h (2 Bft)
25.09.2019 18:01 13,4 °C 80 % 1009,1 hPa 0,0 mm 5,0 km/h (1 Bft) W 266 ° 0 min 0,051 mm 0,0 UV-I 35 W/m² 10,0 °C 13,4 °C 6,4 km/h (2 Bft)
25.09.2019 18:02 13,4 °C 81 % 1009,1 hPa 0,0 mm 3,0 km/h (1 Bft) W 266 ° 0 min 0,000 mm 0,0 UV-I 28 W/m² 10,2 °C 13,4 °C 4,8 km/h (1 Bft)
25.09.2019 18:03 13,3 °C 81 % 1009,0 hPa 0,0 mm 3,2 km/h (1 Bft) W 278 ° 0 min 0,000 mm 0,0 UV-I 23 W/m² 10,1 °C 13,3 °C 4,8 km/h (1 Bft)
25.09.2019 18:04 13,3 °C 81 % 1009,1 hPa 0,0 mm 4,8 km/h (1 Bft) W-SW 256 ° 0 min 0,000 mm 0,0 UV-I 16 W/m² 10,1 °C 13,3 °C 8,0 km/h (2 Bft)
25.09.2019 18:05 13,3 °C 81 % 1009,1 hPa 0,0 mm 3,0 km/h (1 Bft) SW 232 ° 0 min 0,000 mm 0,0 UV-I 14 W/m² 10,1 °C 13,3 °C 4,8 km/h (1 Bft)
25.09.2019 18:06 13,3 °C 81 % 1009,1 hPa 0,0 mm 5,7 km/h (1 Bft) SW 225 ° 0 min 0,000 mm 0,0 UV-I 12 W/m² 10,1 °C 13,3 °C 8,0 km/h (2 Bft)
25.09.2019 18:07 13,3 °C 80 % 1009,1 hPa 0,0 mm 2,9 km/h (1 Bft) W-SW 240 ° 0 min 0,000 mm 0,0 UV-I 12 W/m² 9,9 °C 13,3 °C 4,8 km/h (1 Bft)
25.09.2019 18:08 13,3 °C 81 % 1009,1 hPa 0,0 mm 6,1 km/h (2 Bft) W 260 ° 0 min 0,000 mm 0,0 UV-I 11 W/m² 10,1 °C 13,3 °C 9,7 km/h (2 Bft)
25.09.2019 18:09 13,3 °C 80 % 1009,1 hPa 0,0 mm 8,8 km/h (2 Bft) W 269 ° 0 min 0,000 mm 0,0 UV-I 11 W/m² 9,9 °C 13,3 °C 12,9 km/h (3 Bft)
25.09.2019 18:10 13,3 °C 80 % 1009,1 hPa 0,0 mm 5,4 km/h (1 Bft) W-SW 243 ° 0 min 0,000 mm 0,0 UV-I 9 W/m² 9,9 °C 13,3 °C 11,3 km/h (2 Bft)
25.09.2019 18:11 13,3 °C 80 % 1009,1 hPa 0,0 mm 5,2 km/h (1 Bft) W 281 ° 0 min 0,000 mm 0,0 UV-I 11 W/m² 9,9 °C 13,3 °C 8,0 km/h (2 Bft)
25.09.2019 18:12 13,3 °C 80 % 1009,1 hPa 0,0 mm 3,8 km/h (1 Bft) W-SW 242 ° 0 min 0,000 mm 0,0 UV-I 11 W/m² 9,9 °C 13,3 °C 6,4 km/h (2 Bft)
25.09.2019 18:13 13,2 °C 80 % 1009,2 hPa 0,0 mm 5,7 km/h (1 Bft) W-SW 245 ° 0 min 0,000 mm 0,0 UV-I 12 W/m² 9,8 °C 13,2 °C 12,9 km/h (3 Bft)
25.09.2019 18:14 13,2 °C 80 % 1009,2 hPa 0,0 mm 12,7 km/h (3 Bft) W-NW 292 ° 0 min 0,000 mm 0,0 UV-I 14 W/m² 9,8 °C 13,2 °C 16,1 km/h (3 Bft)
25.09.2019 18:15 13,3 °C 80 % 1009,2 hPa 0,0 mm 9,4 km/h (2 Bft) W 259 ° 0 min 0,000 mm 0,0 UV-I 16 W/m² 9,9 °C 13,3 °C 16,1 km/h (3 Bft)
25.09.2019 18:16 13,2 °C 80 % 1009,2 hPa 0,0 mm 8,2 km/h (2 Bft) W-SW 246 ° 0 min 0,000 mm 0,0 UV-I 19 W/m² 9,8 °C 13,2 °C 12,9 km/h (3 Bft)
25.09.2019 18:17 13,2 °C 80 % 1009,3 hPa 0,0 mm 10,9 km/h (2 Bft) W-SW 258 ° 0 min 0,000 mm 0,0 UV-I 21 W/m² 9,8 °C 13,2 °C 16,1 km/h (3 Bft)
25.09.2019 18:18 13,2 °C 80 % 1009,3 hPa 0,0 mm 8,7 km/h (2 Bft) W-SW 245 ° 0 min 0,000 mm 0,0 UV-I 21 W/m² 9,8 °C 13,2 °C 14,5 km/h (3 Bft)
25.09.2019 18:19 13,2 °C 80 % 1009,3 hPa 0,0 mm 12,9 km/h (3 Bft) W-NW 299 ° 0 min 0,000 mm 0,0 UV-I 19 W/m² 9,8 °C 13,2 °C 19,3 km/h (3 Bft)
25.09.2019 18:20 13,2 °C 80 % 1009,4 hPa 0,0 mm 3,4 km/h (1 Bft) W-NW 293 ° 0 min 0,000 mm 0,0 UV-I 18 W/m² 9,8 °C 13,2 °C 11,3 km/h (2 Bft)
25.09.2019 18:21 13,2 °C 80 % 1009,4 hPa 0,0 mm 6,0 km/h (2 Bft) SW 236 ° 0 min 0,000 mm 0,0 UV-I 16 W/m² 9,8 °C 13,2 °C 11,3 km/h (2 Bft)
25.09.2019 18:22 13,2 °C 81 % 1009,4 hPa 0,0 mm 8,3 km/h (2 Bft) W-SW 257 ° 0 min 0,000 mm 0,0 UV-I 12 W/m² 10,0 °C 13,2 °C 16,1 km/h (3 Bft)
25.09.2019 18:23 13,1 °C 81 % 1009,5 hPa 0,0 mm 13,5 km/h (3 Bft) W 265 ° 0 min 0,000 mm 0,0 UV-I 14 W/m² 9,9 °C 13,1 °C 19,3 km/h (3 Bft)
25.09.2019 18:24 13,0 °C 81 % 1009,7 hPa 0,0 mm 18,0 km/h (3 Bft) W 259 ° 0 min 0,000 mm 0,0 UV-I 16 W/m² 9,8 °C 13,0 °C 33,8 km/h (5 Bft)
25.09.2019 18:25 12,9 °C 81 % 1009,5 hPa 0,0 mm 14,0 km/h (3 Bft) W-NW 286 ° 0 min 0,000 mm 0,0 UV-I 19 W/m² 9,7 °C 12,9 °C 27,4 km/h (4 Bft)
25.09.2019 18:26 12,8 °C 82 % 1009,7 hPa 0,0 mm 12,3 km/h (3 Bft) W 275 ° 0 min 0,000 mm 0,0 UV-I 19 W/m² 9,8 °C 12,8 °C 22,5 km/h (4 Bft)
25.09.2019 18:27 12,7 °C 82 % 1009,9 hPa 0,0 mm 24,6 km/h (4 Bft) W 265 ° 0 min 0,000 mm 0,0 UV-I 19 W/m² 9,7 °C 12,7 °C 35,4 km/h (5 Bft)
25.09.2019 18:28 12,5 °C 82 % 1009,8 hPa 0,0 mm 21,2 km/h (4 Bft) W 274 ° 0 min 0,000 mm 0,0 UV-I 18 W/m² 9,5 °C 12,5 °C 25,7 km/h (4 Bft)
25.09.2019 18:29 12,3 °C 82 % 1009,7 hPa 0,0 mm 15,0 km/h (3 Bft) W 260 ° 0 min 0,000 mm 0,0 UV-I 18 W/m² 9,3 °C 12,3 °C 27,4 km/h (4 Bft)
25.09.2019 18:30 12,1 °C 82 % 1009,8 hPa 0,0 mm 18,3 km/h (3 Bft) W 269 ° 0 min 0,000 mm 0,0 UV-I 19 W/m² 9,1 °C 12,1 °C 22,5 km/h (4 Bft)
25.09.2019 18:31 12,0 °C 83 % 1009,8 hPa 0,0 mm 15,2 km/h (3 Bft) W 277 ° 0 min 0,000 mm 0,0 UV-I 19 W/m² 9,2 °C 12,0 °C 24,1 km/h (4 Bft)
25.09.2019 18:32 11,8 °C 83 % 1009,9 hPa 0,0 mm 14,2 km/h (3 Bft) W 261 ° 0 min 0,000 mm 0,0 UV-I 21 W/m² 9,0 °C 11,8 °C 20,9 km/h (4 Bft)
25.09.2019 18:33 11,7 °C 84 % 1009,9 hPa 0,0 mm 13,5 km/h (3 Bft) W-NW 285 ° 0 min 0,000 mm 0,0 UV-I 21 W/m² 9,1 °C 11,7 °C 19,3 km/h (3 Bft)
25.09.2019 18:34 11,6 °C 84 % 1009,8 hPa 0,0 mm 8,9 km/h (2 Bft) SW 217 ° 0 min 0,000 mm 0,0 UV-I 19 W/m² 9,0 °C 11,6 °C 14,5 km/h (3 Bft)
25.09.2019 18:35 11,5 °C 85 % 1009,8 hPa 0,0 mm 7,5 km/h (2 Bft) SW 224 ° 0 min 0,000 mm 0,0 UV-I 19 W/m² 9,1 °C 11,5 °C 12,9 km/h (3 Bft)
25.09.2019 18:36 11,4 °C 85 % 1009,7 hPa 0,0 mm 6,0 km/h (2 Bft) S 189 ° 0 min 0,000 mm 0,0 UV-I 19 W/m² 9,0 °C 11,4 °C 14,5 km/h (3 Bft)
25.09.2019 18:37 11,4 °C 86 % 1009,6 hPa 0,0 mm 6,8 km/h (2 Bft) W 261 ° 0 min 0,000 mm 0,0 UV-I 19 W/m² 9,1 °C 11,4 °C 12,9 km/h (3 Bft)
25.09.2019 18:38 11,4 °C 87 % 1009,5 hPa 0,0 mm 5,8 km/h (2 Bft) S 187 ° 0 min 0,000 mm 0,0 UV-I 19 W/m² 9,3 °C 11,4 °C 12,9 km/h (3 Bft)
25.09.2019 18:39 11,4 °C 87 % 1009,5 hPa 0,0 mm 5,8 km/h (2 Bft) S-SW 196 ° 0 min 0,000 mm 0,0 UV-I 18 W/m² 9,3 °C 11,4 °C 9,7 km/h (2 Bft)
25.09.2019 18:40 11,4 °C 88 % 1009,4 hPa 0,0 mm 8,2 km/h (2 Bft) W-SW 256 ° 0 min 0,000 mm 0,0 UV-I 18 W/m² 9,5 °C 11,4 °C 14,5 km/h (3 Bft)
25.09.2019 18:41 11,3 °C 88 % 1009,3 hPa 0,0 mm 9,1 km/h (2 Bft) W-NW 295 ° 0 min 0,000 mm 0,0 UV-I 16 W/m² 9,4 °C 11,3 °C 16,1 km/h (3 Bft)
25.09.2019 18:42 11,3 °C 88 % 1009,3 hPa 0,0 mm 5,6 km/h (1 Bft) W-SW 238 ° 0 min 0,000 mm 0,0 UV-I 16 W/m² 9,4 °C 11,3 °C 9,7 km/h (2 Bft)
25.09.2019 18:43 11,3 °C 88 % 1009,4 hPa 0,0 mm 8,7 km/h (2 Bft) SW 223 ° 0 min 0,000 mm 0,0 UV-I 16 W/m² 9,4 °C 11,3 °C 11,3 km/h (2 Bft)
25.09.2019 18:44 11,2 °C 88 % 1009,4 hPa 0,0 mm 3,2 km/h (1 Bft) SW 229 ° 0 min 0,000 mm 0,0 UV-I 16 W/m² 9,3 °C 11,2 °C 4,8 km/h (1 Bft)
25.09.2019 18:45 11,2 °C 88 % 1009,2 hPa 0,0 mm 3,5 km/h (1 Bft) SW 230 ° 0 min 0,000 mm 0,0 UV-I 18 W/m² 9,3 °C 11,2 °C 4,8 km/h (1 Bft)
25.09.2019 18:46 11,2 °C 88 % 1009,2 hPa 0,0 mm 5,4 km/h (1 Bft) SW 236 ° 0 min 0,000 mm 0,0 UV-I 18 W/m² 9,3 °C 11,2 °C 9,7 km/h (2 Bft)
25.09.2019 18:47 11,2 °C 89 % 1009,3 hPa 0,0 mm 5,3 km/h (1 Bft) W-NW 302 ° 0 min 0,000 mm 0,0 UV-I 18 W/m² 9,5 °C 11,2 °C 9,7 km/h (2 Bft)
25.09.2019 18:48 11,2 °C 89 % 1009,3 hPa 0,0 mm 6,4 km/h (2 Bft) W 272 ° 0 min 0,000 mm 0,0 UV-I 18 W/m² 9,5 °C 11,2 °C 11,3 km/h (2 Bft)
25.09.2019 18:49 11,1 °C 89 % 1009,4 hPa 0,0 mm 4,6 km/h (1 Bft) W 267 ° 0 min 0,000 mm 0,0 UV-I 18 W/m² 9,4 °C 11,1 °C 6,4 km/h (2 Bft)
25.09.2019 18:50 11,1 °C 89 % 1009,3 hPa 0,0 mm 3,6 km/h (1 Bft) W 273 ° 0 min 0,000 mm 0,0 UV-I 19 W/m² 9,4 °C 11,1 °C 4,8 km/h (1 Bft)
25.09.2019 18:51 11,1 °C 89 % 1009,3 hPa 0,2 mm 3,0 km/h (1 Bft) W 273 ° 0 min 0,000 mm 0,0 UV-I 21 W/m² 9,4 °C 11,1 °C 4,8 km/h (1 Bft)
25.09.2019 18:52 11,1 °C 89 % 1009,4 hPa 0,0 mm 2,5 km/h (1 Bft) W 273 ° 0 min 0,000 mm 0,0 UV-I 23 W/m² 9,4 °C 11,1 °C 4,8 km/h (1 Bft)
25.09.2019 18:53 11,0 °C 89 % 1009,4 hPa 0,0 mm 1,3 km/h (1 Bft) W 273 ° 0 min 0,000 mm 0,0 UV-I 23 W/m² 9,3 °C 11,0 °C 3,2 km/h (1 Bft)
25.09.2019 18:54 10,9 °C 89 % 1009,4 hPa 0,0 mm 2,7 km/h (1 Bft) W 273 ° 0 min 0,000 mm 0,0 UV-I 25 W/m² 9,2 °C 10,9 °C 4,8 km/h (1 Bft)
25.09.2019 18:55 10,9 °C 90 % 1009,3 hPa 0,0 mm 2,3 km/h (1 Bft) W 273 ° 0 min 0,000 mm 0,0 UV-I 23 W/m² 9,3 °C 10,9 °C 3,2 km/h (1 Bft)
25.09.2019 18:56 10,9 °C 90 % 1009,4 hPa 0,0 mm 0,1 km/h (0 Bft) W 273 ° 0 min 0,000 mm 0,0 UV-I 23 W/m² 9,3 °C 10,9 °C 1,6 km/h (1 Bft)
25.09.2019 18:57 10,8 °C 90 % 1009,3 hPa 0,0 mm 1,0 km/h (0 Bft) W 273 ° 0 min 0,000 mm 0,0 UV-I 19 W/m² 9,2 °C 10,8 °C 3,2 km/h (1 Bft)
25.09.2019 18:58 10,8 °C 90 % 1009,4 hPa 0,0 mm 0,1 km/h (0 Bft) W 273 ° 0 min 0,000 mm 0,0 UV-I 16 W/m² 9,2 °C 10,8 °C 1,6 km/h (1 Bft)
25.09.2019 18:59 10,8 °C 90 % 1009,4 hPa 0,0 mm 0,0 km/h (0 Bft) W 273 ° 0 min 0,000 mm 0,0 UV-I 14 W/m² 9,2 °C 10,8 °C 0,0 km/h (0 Bft)
25.09.2019 19:00 10,8 °C 90 % 1009,4 hPa 0,0 mm 0,0 km/h (0 Bft) W 273 ° 0 min 0,000 mm 0,0 UV-I 12 W/m² 9,2 °C 10,8 °C 0,0 km/h (0 Bft)
25.09.2019 19:01 10,7 °C 90 % 1009,4 hPa 0,0 mm 0,7 km/h (0 Bft) SW 234 ° 0 min 0,025 mm 0,0 UV-I 11 W/m² 9,1 °C 10,7 °C 3,2 km/h (1 Bft)
25.09.2019 19:02 10,7 °C 90 % 1009,4 hPa 0,0 mm 2,4 km/h (1 Bft) SW 234 ° 0 min 0,000 mm 0,0 UV-I 9 W/m² 9,1 °C 10,7 °C 3,2 km/h (1 Bft)
25.09.2019 19:03 10,7 °C 90 % 1009,5 hPa 0,0 mm 3,2 km/h (1 Bft) S-SW 213 ° 0 min 0,000 mm 0,0 UV-I 7 W/m² 9,1 °C 10,7 °C 4,8 km/h (1 Bft)
25.09.2019 19:04 10,7 °C 90 % 1009,4 hPa 0,0 mm 4,1 km/h (1 Bft) S-SW 194 ° 0 min 0,000 mm 0,0 UV-I 7 W/m² 9,1 °C 10,7 °C 6,4 km/h (2 Bft)
25.09.2019 19:05 10,6 °C 90 % 1009,4 hPa 0,0 mm 3,2 km/h (1 Bft) S-SW 194 ° 0 min 0,000 mm 0,0 UV-I 7 W/m² 9,0 °C 10,6 °C 4,8 km/h (1 Bft)
25.09.2019 19:06 10,6 °C 91 % 1009,4 hPa 0,0 mm 2,3 km/h (1 Bft) S-SW 194 ° 0 min 0,000 mm 0,0 UV-I 5 W/m² 9,2 °C 10,6 °C 3,2 km/h (1 Bft)
25.09.2019 19:07 10,5 °C 91 % 1009,4 hPa 0,0 mm 0,2 km/h (0 Bft) S-SW 194 ° 0 min 0,000 mm 0,0 UV-I 5 W/m² 9,1 °C 10,5 °C 1,6 km/h (1 Bft)
25.09.2019 19:08 10,4 °C 91 % 1009,5 hPa 0,0 mm 0,1 km/h (0 Bft) S-SW 194 ° 0 min 0,000 mm 0,0 UV-I 5 W/m² 9,0 °C 10,4 °C 1,6 km/h (1 Bft)
25.09.2019 19:09 10,4 °C 91 % 1009,5 hPa 0,0 mm 3,6 km/h (1 Bft) S-SW 194 ° 0 min 0,000 mm 0,0 UV-I 5 W/m² 9,0 °C 10,4 °C 4,8 km/h (1 Bft)
25.09.2019 19:10 10,3 °C 91 % 1009,5 hPa 0,0 mm 3,0 km/h (1 Bft) S-SW 194 ° 0 min 0,000 mm 0,0 UV-I 5 W/m² 8,9 °C 10,3 °C 4,8 km/h (1 Bft)
25.09.2019 19:11 10,3 °C 91 % 1009,5 hPa 0,0 mm 3,1 km/h (1 Bft) S-SW 194 ° 0 min 0,000 mm 0,0 UV-I 5 W/m² 8,9 °C 10,3 °C 6,4 km/h (2 Bft)
25.09.2019 19:12 10,2 °C 91 % 1009,5 hPa 0,0 mm 2,8 km/h (1 Bft) S-SW 194 ° 0 min 0,000 mm 0,0 UV-I 0 W/m² 8,8 °C 10,2 °C 4,8 km/h (1 Bft)
25.09.2019 19:13 10,2 °C 92 % 1009,5 hPa 0,0 mm 0,7 km/h (0 Bft) S-SW 194 ° 0 min 0,000 mm 0,0 UV-I 0 W/m² 9,0 °C 10,2 °C 3,2 km/h (1 Bft)
25.09.2019 19:14 10,2 °C 92 % 1009,6 hPa 0,0 mm 0,1 km/h (0 Bft) S-SW 194 ° 0 min 0,000 mm 0,0 UV-I 0 W/m² 9,0 °C 10,2 °C 1,6 km/h (1 Bft)
25.09.2019 19:15 10,1 °C 92 % 1009,5 hPa 0,0 mm 0,0 km/h (0 Bft) S-SW 194 ° 0 min 0,000 mm 0,0 UV-I 0 W/m² 8,9 °C 10,1 °C 0,0 km/h (0 Bft)
25.09.2019 19:16 10,1 °C 92 % 1009,5 hPa 0,0 mm 2,4 km/h (1 Bft) S-SW 194 ° 0 min 0,000 mm 0,0 UV-I 0 W/m² 8,9 °C 10,1 °C 4,8 km/h (1 Bft)
25.09.2019 19:17 10,1 °C 92 % 1009,5 hPa 0,0 mm 2,3 km/h (1 Bft) S-SW 194 ° 0 min 0,000 mm 0,0 UV-I 0 W/m² 8,9 °C 10,1 °C 3,2 km/h (1 Bft)
25.09.2019 19:18 10,1 °C 92 % 1009,5 hPa 0,0 mm 2,3 km/h (1 Bft) S-SW 194 ° 0 min 0,000 mm 0,0 UV-I 0 W/m² 8,9 °C 10,1 °C 3,2 km/h (1 Bft)
25.09.2019 19:19 10,0 °C 92 % 1009,6 hPa 0,0 mm 0,6 km/h (0 Bft) S-SW 194 ° 0 min 0,000 mm 0,0 UV-I 0 W/m² 8,8 °C 10,0 °C 3,2 km/h (1 Bft)
25.09.2019 19:20 10,0 °C 92 % 1009,5 hPa 0,0 mm 2,2 km/h (1 Bft) S-SW 194 ° 0 min 0,000 mm 0,0 UV-I 0 W/m² 8,8 °C 10,0 °C 3,2 km/h (1 Bft)
25.09.2019 19:21 9,9 °C 92 % 1009,5 hPa 0,0 mm 2,7 km/h (1 Bft) S-SW 194 ° 0 min 0,000 mm 0,0 UV-I 0 W/m² 8,7 °C 9,9 °C 3,2 km/h (1 Bft)
25.09.2019 19:22 10,0 °C 92 % 1009,6 hPa 0,0 mm 2,0 km/h (1 Bft) S-SW 194 ° 0 min 0,000 mm 0,0 UV-I 0 W/m² 8,8 °C 10,0 °C 4,8 km/h (1 Bft)
25.09.2019 19:23 9,9 °C 92 % 1009,6 hPa 0,0 mm 2,1 km/h (1 Bft) S-SW 194 ° 0 min 0,000 mm 0,0 UV-I 0 W/m² 8,7 °C 9,9 °C 3,2 km/h (1 Bft)
25.09.2019 19:24 9,9 °C 93 % 1009,6 hPa 0,0 mm 1,1 km/h (1 Bft) S-SW 194 ° 0 min 0,000 mm 0,0 UV-I 0 W/m² 8,8 °C 9,9 °C 3,2 km/h (1 Bft)
25.09.2019 19:25 9,9 °C 93 % 1009,6 hPa 0,0 mm 0,5 km/h (0 Bft) S-SW 194 ° 0 min 0,000 mm 0,0 UV-I 0 W/m² 8,8 °C 9,9 °C 1,6 km/h (1 Bft)
25.09.2019 19:26 9,8 °C 93 % 1009,6 hPa 0,0 mm 1,7 km/h (1 Bft) S-SW 194 ° 0 min 0,000 mm 0,0 UV-I 0 W/m² 8,7 °C 9,8 °C 4,8 km/h (1 Bft)
25.09.2019 19:27 9,8 °C 92 % 1009,6 hPa 0,0 mm 2,3 km/h (1 Bft) S-SW 195 ° 0 min 0,000 mm 0,0 UV-I 0 W/m² 8,6 °C 9,8 °C 4,8 km/h (1 Bft)
25.09.2019 19:28 9,8 °C 92 % 1009,6 hPa 0,0 mm 0,6 km/h (0 Bft) S-SW 195 ° 0 min 0,000 mm 0,0 UV-I 0 W/m² 8,6 °C 9,8 °C 1,6 km/h (1 Bft)
25.09.2019 19:29 9,8 °C 93 % 1009,6 hPa 0,0 mm 1,5 km/h (1 Bft) S-SW 195 ° 0 min 0,000 mm 0,0 UV-I 0 W/m² 8,7 °C 9,8 °C 3,2 km/h (1 Bft)
25.09.2019 19:30 9,8 °C 93 % 1009,6 hPa 0,0 mm 1,7 km/h (1 Bft) S-SW 195 ° 0 min 0,000 mm 0,0 UV-I 0 W/m² 8,7 °C 9,8 °C 3,2 km/h (1 Bft)
25.09.2019 19:31 9,8 °C 93 % 1009,6 hPa 0,0 mm 1,9 km/h (1 Bft) S-SW 195 ° 0 min 0,000 mm 0,0 UV-I 0 W/m² 8,7 °C 9,8 °C 3,2 km/h (1 Bft)
25.09.2019 19:32 9,7 °C 93 % 1009,6 hPa 0,0 mm 3,6 km/h (1 Bft) S-SW 194 ° 0 min 0,000 mm 0,0 UV-I 0 W/m² 8,6 °C 9,7 °C 4,8 km/h (1 Bft)
25.09.2019 19:33 9,7 °C 93 % 1009,7 hPa 0,0 mm 2,7 km/h (1 Bft) S-SW 194 ° 0 min 0,000 mm 0,0 UV-I 0 W/m² 8,6 °C 9,7 °C 3,2 km/h (1 Bft)
25.09.2019 19:34 9,6 °C 93 % 1009,7 hPa 0,0 mm 3,0 km/h (1 Bft) S-SW 194 ° 0 min 0,000 mm 0,0 UV-I 0 W/m² 8,5 °C 9,6 °C 4,8 km/h (1 Bft)
25.09.2019 19:35 9,7 °C 93 % 1009,7 hPa 0,0 mm 2,4 km/h (1 Bft) S-SW 194 ° 0 min 0,000 mm 0,0 UV-I 0 W/m² 8,6 °C 9,7 °C 4,8 km/h (1 Bft)
25.09.2019 19:36 9,6 °C 93 % 1009,7 hPa 0,0 mm 2,3 km/h (1 Bft) S-SW 194 ° 0 min 0,000 mm 0,0 UV-I 0 W/m² 8,5 °C 9,6 °C 3,2 km/h (1 Bft)
25.09.2019 19:37 9,6 °C 93 % 1009,8 hPa 0,0 mm 1,1 km/h (1 Bft) S-SW 194 ° 0 min 0,000 mm 0,0 UV-I 0 W/m² 8,5 °C 9,6 °C 3,2 km/h (1 Bft)
25.09.2019 19:38 9,6 °C 93 % 1009,8 hPa 0,0 mm 0,0 km/h (0 Bft) S-SW 194 ° 0 min 0,000 mm 0,0 UV-I 0 W/m² 8,5 °C 9,6 °C 0,0 km/h (0 Bft)
25.09.2019 19:39 9,6 °C 93 % 1009,7 hPa 0,0 mm 0,0 km/h (0 Bft) S-SW 194 ° 0 min 0,000 mm 0,0 UV-I 0 W/m² 8,5 °C 9,6 °C 0,0 km/h (0 Bft)
25.09.2019 19:40 9,5 °C 93 % 1009,7 hPa 0,0 mm 0,0 km/h (0 Bft) S-SW 194 ° 0 min 0,000 mm 0,0 UV-I 0 W/m² 8,4 °C 9,5 °C 0,0 km/h (0 Bft)
25.09.2019 19:41 9,4 °C 93 % 1009,8 hPa 0,0 mm 0,0 km/h (0 Bft) S-SW 194 ° 0 min 0,000 mm 0,0 UV-I 0 W/m² 8,3 °C 9,4 °C 0,0 km/h (0 Bft)
25.09.2019 19:42 9,3 °C 93 % 1009,8 hPa 0,0 mm 0,4 km/h (0 Bft) S-SW 194 ° 0 min 0,000 mm 0,0 UV-I 0 W/m² 8,2 °C 9,3 °C 1,6 km/h (1 Bft)
25.09.2019 19:43 9,3 °C 93 % 1009,8 hPa 0,0 mm 1,1 km/h (1 Bft) S-SW 194 ° 0 min 0,000 mm 0,0 UV-I 0 W/m² 8,2 °C 9,3 °C 3,2 km/h (1 Bft)
25.09.2019 19:44 9,3 °C 93 % 1009,8 hPa 0,0 mm 2,0 km/h (1 Bft) S-SW 194 ° 0 min 0,000 mm 0,0 UV-I 0 W/m² 8,2 °C 9,3 °C 3,2 km/h (1 Bft)
25.09.2019 19:45 9,4 °C 93 % 1009,8 hPa 0,0 mm 1,8 km/h (1 Bft) S-SW 194 ° 0 min 0,000 mm 0,0 UV-I 0 W/m² 8,3 °C 9,4 °C 3,2 km/h (1 Bft)
25.09.2019 19:46 9,4 °C 93 % 1009,8 hPa 0,0 mm 3,0 km/h (1 Bft) S-SW 194 ° 0 min 0,000 mm 0,0 UV-I 0 W/m² 8,3 °C 9,4 °C 4,8 km/h (1 Bft)
25.09.2019 19:47 9,4 °C 93 % 1009,9 hPa 0,0 mm 2,7 km/h (1 Bft) S-SW 194 ° 0 min 0,000 mm 0,0 UV-I 0 W/m² 8,3 °C 9,4 °C 3,2 km/h (1 Bft)
25.09.2019 19:48 9,4 °C 93 % 1009,8 hPa 0,0 mm 2,4 km/h (1 Bft) S-SW 194 ° 0 min 0,000 mm 0,0 UV-I 0 W/m² 8,3 °C 9,4 °C 4,8 km/h (1 Bft)
25.09.2019 19:49 9,3 °C 93 % 1009,9 hPa 0,0 mm 2,6 km/h (1 Bft) S-SW 194 ° 0 min 0,000 mm 0,0 UV-I 0 W/m² 8,2 °C 9,3 °C 4,8 km/h (1 Bft)
25.09.2019 19:50 9,3 °C 93 % 1009,9 hPa 0,0 mm 2,5 km/h (1 Bft) S-SW 194 ° 0 min 0,000 mm 0,0 UV-I 0 W/m² 8,2 °C 9,3 °C 3,2 km/h (1 Bft)
25.09.2019 19:51 9,3 °C 93 % 1009,8 hPa 0,0 mm 1,0 km/h (0 Bft) S-SW 194 ° 0 min 0,000 mm 0,0 UV-I 0 W/m² 8,2 °C 9,3 °C 1,6 km/h (1 Bft)
25.09.2019 19:52 9,2 °C 93 % 1009,9 hPa 0,0 mm 0,6 km/h (0 Bft) S-SW 194 ° 0 min 0,000 mm 0,0 UV-I 0 W/m² 8,1 °C 9,2 °C 3,2 km/h (1 Bft)
25.09.2019 19:53 9,1 °C 93 % 1010,0 hPa 0,0 mm 0,3 km/h (0 Bft) S-SW 194 ° 0 min 0,000 mm 0,0 UV-I 0 W/m² 8,0 °C 9,1 °C 1,6 km/h (1 Bft)
25.09.2019 19:54 9,1 °C 93 % 1009,9 hPa 0,0 mm 0,1 km/h (0 Bft) S-SW 194 ° 0 min 0,000 mm 0,0 UV-I 0 W/m² 8,0 °C 9,1 °C 1,6 km/h (1 Bft)
25.09.2019 19:55 9,0 °C 93 % 1009,9 hPa 0,0 mm 0,0 km/h (0 Bft) S-SW 194 ° 0 min 0,000 mm 0,0 UV-I 0 W/m² 7,9 °C 9,0 °C 0,0 km/h (0 Bft)
25.09.2019 19:56 8,9 °C 93 % 1009,9 hPa 0,0 mm 0,0 km/h (0 Bft) S-SW 194 ° 0 min 0,000 mm 0,0 UV-I 0 W/m² 7,8 °C 8,9 °C 0,0 km/h (0 Bft)
25.09.2019 19:57 8,8 °C 93 % 1010,0 hPa 0,0 mm 0,0 km/h (0 Bft) S-SW 194 ° 0 min 0,000 mm 0,0 UV-I 0 W/m² 7,7 °C 8,8 °C 0,0 km/h (0 Bft)
25.09.2019 19:58 8,8 °C 93 % 1010,0 hPa 0,0 mm 0,0 km/h (0 Bft) S-SW 194 ° 0 min 0,000 mm 0,0 UV-I 0 W/m² 7,7 °C 8,8 °C 0,0 km/h (0 Bft)
25.09.2019 19:59 8,9 °C 93 % 1010,0 hPa 0,0 mm 0,0 km/h (0 Bft) S-SW 194 ° 0 min 0,000 mm 0,0 UV-I 0 W/m² 7,8 °C 8,9 °C 0,0 km/h (0 Bft)
25.09.2019 20:00 8,9 °C 93 % 1010,0 hPa 0,0 mm 0,0 km/h (0 Bft) S-SW 194 ° 0 min 0,000 mm 0,0 UV-I 0 W/m² 7,8 °C 8,9 °C 0,0 km/h (0 Bft)
25.09.2019 20:01 8,9 °C 93 % 1010,0 hPa 0,0 mm 0,0 km/h (0 Bft) S-SW 194 ° 0 min 0,000 mm 0,0 UV-I 0 W/m² 7,8 °C 8,9 °C 0,0 km/h (0 Bft)
25.09.2019 20:02 8,9 °C 93 % 1010,0 hPa 0,0 mm 0,0 km/h (0 Bft) S-SW 194 ° 0 min 0,000 mm 0,0 UV-I 0 W/m² 7,8 °C 8,9 °C 0,0 km/h (0 Bft)
25.09.2019 20:03 9,0 °C 93 % 1010,0 hPa 0,0 mm 0,0 km/h (0 Bft) S-SW 194 ° 0 min 0,000 mm 0,0 UV-I 0 W/m² 7,9 °C 9,0 °C 0,0 km/h (0 Bft)
25.09.2019 20:04 9,0 °C 93 % 1010,0 hPa 0,0 mm 0,0 km/h (0 Bft) S-SW 194 ° 0 min 0,000 mm 0,0 UV-I 0 W/m² 7,9 °C 9,0 °C 0,0 km/h (0 Bft)
25.09.2019 20:05 9,0 °C 94 % 1010,0 hPa 0,0 mm 0,0 km/h (0 Bft) S-SW 194 ° 0 min 0,000 mm 0,0 UV-I 0 W/m² 8,1 °C 9,0 °C 0,0 km/h (0 Bft)
25.09.2019 20:06 9,0 °C 94 % 1010,0 hPa 0,0 mm 0,0 km/h (0 Bft) S-SW 194 ° 0 min 0,000 mm 0,0 UV-I 0 W/m² 8,1 °C 9,0 °C 0,0 km/h (0 Bft)
25.09.2019 20:07 9,1 °C 94 % 1010,0 hPa 0,0 mm 0,0 km/h (0 Bft) S-SW 194 ° 0 min 0,000 mm 0,0 UV-I 0 W/m² 8,2 °C 9,1 °C 0,0 km/h (0 Bft)
25.09.2019 20:08 9,1 °C 94 % 1010,1 hPa 0,0 mm 0,0 km/h (0 Bft) S-SW 194 ° 0 min 0,000 mm 0,0 UV-I 0 W/m² 8,2 °C 9,1 °C 0,0 km/h (0 Bft)
25.09.2019 20:09 9,1 °C 94 % 1010,0 hPa 0,0 mm 0,0 km/h (0 Bft) S-SW 194 ° 0 min 0,000 mm 0,0 UV-I 0 W/m² 8,2 °C 9,1 °C 0,0 km/h (0 Bft)
25.09.2019 20:10 9,1 °C 94 % 1010,0 hPa 0,0 mm 0,0 km/h (0 Bft) S-SW 194 ° 0 min 0,000 mm 0,0 UV-I 0 W/m² 8,2 °C 9,1 °C 0,0 km/h (0 Bft)
25.09.2019 20:11 9,1 °C 94 % 1010,1 hPa 0,2 mm 0,0 km/h (0 Bft) S-SW 194 ° 0 min 0,000 mm 0,0 UV-I 0 W/m² 8,2 °C 9,1 °C 0,0 km/h (0 Bft)
25.09.2019 20:12 9,1 °C 94 % 1010,0 hPa 0,0 mm 0,0 km/h (0 Bft) S-SW 194 ° 0 min 0,000 mm 0,0 UV-I 0 W/m² 8,2 °C 9,1 °C 0,0 km/h (0 Bft)
25.09.2019 20:13 9,1 °C 94 % 1010,1 hPa 0,0 mm 0,0 km/h (0 Bft) S-SW 194 ° 0 min 0,000 mm 0,0 UV-I 0 W/m² 8,2 °C 9,1 °C 0,0 km/h (0 Bft)
25.09.2019 20:14 9,1 °C 94 % 1010,0 hPa 0,0 mm 0,0 km/h (0 Bft) S-SW 194 ° 0 min 0,000 mm 0,0 UV-I 0 W/m² 8,2 °C 9,1 °C 0,0 km/h (0 Bft)
25.09.2019 20:15 9,1 °C 94 % 1010,1 hPa 0,0 mm 0,0 km/h (0 Bft) S-SW 194 ° 0 min 0,000 mm 0,0 UV-I 0 W/m² 8,2 °C 9,1 °C 0,0 km/h (0 Bft)
25.09.2019 20:16 9,1 °C 94 % 1010,0 hPa 0,0 mm 0,0 km/h (0 Bft) S-SW 194 ° 0 min 0,000 mm 0,0 UV-I 0 W/m² 8,2 °C 9,1 °C 0,0 km/h (0 Bft)
25.09.2019 20:17 9,1 °C 94 % 1010,0 hPa 0,0 mm 0,0 km/h (0 Bft) S-SW 194 ° 0 min 0,000 mm 0,0 UV-I 0 W/m² 8,2 °C 9,1 °C 0,0 km/h (0 Bft)
25.09.2019 20:18 9,0 °C 94 % 1010,0 hPa 0,0 mm 0,0 km/h (0 Bft) S-SW 194 ° 0 min 0,000 mm 0,0 UV-I 0 W/m² 8,1 °C 9,0 °C 0,0 km/h (0 Bft)
25.09.2019 20:19 8,9 °C 93 % 1010,0 hPa 0,0 mm 0,0 km/h (0 Bft) S-SW 194 ° 0 min 0,000 mm 0,0 UV-I 0 W/m² 7,8 °C 8,9 °C 0,0 km/h (0 Bft)
25.09.2019 20:20 8,9 °C 93 % 1010,1 hPa 0,0 mm 0,0 km/h (0 Bft) S-SW 194 ° 0 min 0,000 mm 0,0 UV-I 0 W/m² 7,8 °C 8,9 °C 0,0 km/h (0 Bft)
25.09.2019 20:21 8,9 °C 93 % 1010,0 hPa 0,0 mm 0,0 km/h (0 Bft) S-SW 194 ° 0 min 0,000 mm 0,0 UV-I 0 W/m² 7,8 °C 8,9 °C 0,0 km/h (0 Bft)
25.09.2019 20:22 9,0 °C 94 % 1010,0 hPa 0,0 mm 0,0 km/h (0 Bft) S-SW 194 ° 0 min 0,000 mm 0,0 UV-I 0 W/m² 8,1 °C 9,0 °C 0,0 km/h (0 Bft)
25.09.2019 20:23 9,0 °C 94 % 1010,0 hPa 0,0 mm 0,0 km/h (0 Bft) S-SW 194 ° 0 min 0,000 mm 0,0 UV-I 0 W/m² 8,1 °C 9,0 °C 0,0 km/h (0 Bft)
25.09.2019 20:24 9,1 °C 94 % 1010,1 hPa 0,0 mm 0,0 km/h (0 Bft) S-SW 194 ° 0 min 0,000 mm 0,0 UV-I 0 W/m² 8,2 °C 9,1 °C 0,0 km/h (0 Bft)
25.09.2019 20:25 9,0 °C 94 % 1010,1 hPa 0,0 mm 0,0 km/h (0 Bft) S-SW 194 ° 0 min 0,000 mm 0,0 UV-I 0 W/m² 8,1 °C 9,0 °C 0,0 km/h (0 Bft)
25.09.2019 20:26 9,1 °C 94 % 1010,0 hPa 0,0 mm 0,0 km/h (0 Bft) S-SW 194 ° 0 min 0,000 mm 0,0 UV-I 0 W/m² 8,2 °C 9,1 °C 0,0 km/h (0 Bft)
25.09.2019 20:27 9,1 °C 94 % 1010,0 hPa 0,0 mm 0,0 km/h (0 Bft) S-SW 194 ° 0 min 0,000 mm 0,0 UV-I 0 W/m² 8,2 °C 9,1 °C 0,0 km/h (0 Bft)
25.09.2019 20:28 9,1 °C 94 % 1010,1 hPa 0,0 mm 0,0 km/h (0 Bft) S-SW 194 ° 0 min 0,000 mm 0,0 UV-I 0 W/m² 8,2 °C 9,1 °C 0,0 km/h (0 Bft)
25.09.2019 20:29 9,2 °C 94 % 1010,2 hPa 0,0 mm 2,8 km/h (1 Bft) S-SW 208 ° 0 min 0,000 mm 0,0 UV-I 0 W/m² 8,3 °C 9,2 °C 8,0 km/h (2 Bft)
25.09.2019 20:30 9,3 °C 94 % 1010,1 hPa 0,0 mm 4,0 km/h (1 Bft) S-SW 198 ° 0 min 0,000 mm 0,0 UV-I 0 W/m² 8,4 °C 9,3 °C 6,4 km/h (2 Bft)
25.09.2019 20:31 9,3 °C 94 % 1010,2 hPa 0,0 mm 3,6 km/h (1 Bft) S-SW 198 ° 0 min 0,000 mm 0,0 UV-I 0 W/m² 8,4 °C 9,3 °C 8,0 km/h (2 Bft)
25.09.2019 20:32 9,4 °C 94 % 1010,1 hPa 0,0 mm 3,5 km/h (1 Bft) S-SW 201 ° 0 min 0,000 mm 0,0 UV-I 0 W/m² 8,5 °C 9,4 °C 8,0 km/h (2 Bft)
25.09.2019 20:33 9,5 °C 94 % 1010,2 hPa 0,0 mm 0,5 km/h (0 Bft) S-SW 201 ° 0 min 0,000 mm 0,0 UV-I 0 W/m² 8,6 °C 9,5 °C 1,6 km/h (1 Bft)
25.09.2019 20:34 9,6 °C 94 % 1010,2 hPa 0,0 mm 0,1 km/h (0 Bft) S-SW 200 ° 0 min 0,000 mm 0,0 UV-I 0 W/m² 8,7 °C 9,6 °C 1,6 km/h (1 Bft)
25.09.2019 20:35 9,6 °C 94 % 1010,2 hPa 0,0 mm 0,8 km/h (0 Bft) S-SW 200 ° 0 min 0,000 mm 0,0 UV-I 0 W/m² 8,7 °C 9,6 °C 3,2 km/h (1 Bft)
25.09.2019 20:36 9,7 °C 94 % 1010,2 hPa 0,0 mm 1,4 km/h (1 Bft) S-SW 200 ° 0 min 0,000 mm 0,0 UV-I 0 W/m² 8,8 °C 9,7 °C 3,2 km/h (1 Bft)
25.09.2019 20:37 9,7 °C 93 % 1010,2 hPa 0,0 mm 1,2 km/h (1 Bft) S-SW 200 ° 0 min 0,000 mm 0,0 UV-I 0 W/m² 8,6 °C 9,7 °C 3,2 km/h (1 Bft)
25.09.2019 20:38 9,8 °C 94 % 1010,2 hPa 0,0 mm 3,0 km/h (1 Bft) S 181 ° 0 min 0,000 mm 0,0 UV-I 0 W/m² 8,9 °C 9,8 °C 4,8 km/h (1 Bft)
25.09.2019 20:39 9,9 °C 94 % 1010,2 hPa 0,0 mm 1,6 km/h (1 Bft) S 190 ° 0 min 0,000 mm 0,0 UV-I 0 W/m² 9,0 °C 9,9 °C 8,0 km/h (2 Bft)
25.09.2019 20:40 9,9 °C 93 % 1010,2 hPa 0,0 mm 0,2 km/h (0 Bft) S 190 ° 0 min 0,000 mm 0,0 UV-I 0 W/m² 8,8 °C 9,9 °C 1,6 km/h (1 Bft)
25.09.2019 20:41 10,1 °C 93 % 1010,2 hPa 0,0 mm 2,0 km/h (1 Bft) SW 217 ° 0 min 0,000 mm 0,0 UV-I 0 W/m² 9,0 °C 10,1 °C 8,0 km/h (2 Bft)
25.09.2019 20:42 10,1 °C 93 % 1010,2 hPa 0,0 mm 0,4 km/h (0 Bft) SW 217 ° 0 min 0,000 mm 0,0 UV-I 0 W/m² 9,0 °C 10,1 °C 3,2 km/h (1 Bft)
25.09.2019 20:43 10,2 °C 93 % 1010,2 hPa 0,0 mm 1,1 km/h (1 Bft) SW 217 ° 0 min 0,000 mm 0,0 UV-I 0 W/m² 9,1 °C 10,2 °C 3,2 km/h (1 Bft)
25.09.2019 20:44 10,3 °C 93 % 1010,3 hPa 0,0 mm 0,2 km/h (0 Bft) SW 217 ° 0 min 0,000 mm 0,0 UV-I 0 W/m² 9,2 °C 10,3 °C 1,6 km/h (1 Bft)
25.09.2019 20:45 10,3 °C 93 % 1010,3 hPa 0,0 mm 0,6 km/h (0 Bft) SW 217 ° 0 min 0,000 mm 0,0 UV-I 0 W/m² 9,2 °C 10,3 °C 3,2 km/h (1 Bft)
25.09.2019 20:46 10,4 °C 92 % 1010,3 hPa 0,0 mm 2,6 km/h (1 Bft) W 271 ° 0 min 0,000 mm 0,0 UV-I 0 W/m² 9,2 °C 10,4 °C 4,8 km/h (1 Bft)
25.09.2019 20:47 10,6 °C 92 % 1010,3 hPa 0,0 mm 8,8 km/h (2 Bft) W-SW 251 ° 0 min 0,000 mm 0,0 UV-I 0 W/m² 9,4 °C 10,6 °C 14,5 km/h (3 Bft)
25.09.2019 20:48 10,7 °C 91 % 1010,3 hPa 0,0 mm 7,2 km/h (2 Bft) W 273 ° 0 min 0,000 mm 0,0 UV-I 0 W/m² 9,3 °C 10,7 °C 9,7 km/h (2 Bft)
25.09.2019 20:49 10,8 °C 91 % 1010,3 hPa 0,0 mm 5,2 km/h (1 Bft) W-SW 255 ° 0 min 0,000 mm 0,0 UV-I 0 W/m² 9,4 °C 10,8 °C 12,9 km/h (3 Bft)
25.09.2019 20:50 10,9 °C 90 % 1010,3 hPa 0,0 mm 5,8 km/h (2 Bft) SW 236 ° 0 min 0,000 mm 0,0 UV-I 0 W/m² 9,3 °C 10,9 °C 8,0 km/h (2 Bft)
25.09.2019 20:51 11,0 °C 90 % 1010,3 hPa 0,0 mm 4,1 km/h (1 Bft) SW 227 ° 0 min 0,000 mm 0,0 UV-I 0 W/m² 9,4 °C 11,0 °C 6,4 km/h (2 Bft)
25.09.2019 20:52 11,1 °C 89 % 1010,3 hPa 0,0 mm 5,7 km/h (1 Bft) W-SW 254 ° 0 min 0,000 mm 0,0 UV-I 0 W/m² 9,4 °C 11,1 °C 11,3 km/h (2 Bft)
25.09.2019 20:53 11,2 °C 88 % 1010,3 hPa 0,0 mm 3,6 km/h (1 Bft) SW 234 ° 0 min 0,000 mm 0,0 UV-I 0 W/m² 9,3 °C 11,2 °C 6,4 km/h (2 Bft)
25.09.2019 20:54 11,2 °C 88 % 1010,2 hPa 0,0 mm 4,4 km/h (1 Bft) SW 235 ° 0 min 0,000 mm 0,0 UV-I 0 W/m² 9,3 °C 11,2 °C 9,7 km/h (2 Bft)
25.09.2019 20:55 11,2 °C 88 % 1010,3 hPa 0,0 mm 3,0 km/h (1 Bft) SW 232 ° 0 min 0,000 mm 0,0 UV-I 0 W/m² 9,3 °C 11,2 °C 4,8 km/h (1 Bft)
25.09.2019 20:56 11,2 °C 87 % 1010,2 hPa 0,0 mm 2,9 km/h (1 Bft) SW 235 ° 0 min 0,000 mm 0,0 UV-I 0 W/m² 9,1 °C 11,2 °C 4,8 km/h (1 Bft)
25.09.2019 20:57 11,2 °C 87 % 1010,2 hPa 0,0 mm 4,3 km/h (1 Bft) W 264 ° 0 min 0,000 mm 0,0 UV-I 0 W/m² 9,1 °C 11,2 °C 11,3 km/h (2 Bft)
25.09.2019 20:58 11,2 °C 87 % 1010,2 hPa 0,0 mm 2,9 km/h (1 Bft) W 259 ° 0 min 0,000 mm 0,0 UV-I 0 W/m² 9,1 °C 11,2 °C 4,8 km/h (1 Bft)
25.09.2019 20:59 11,2 °C 87 % 1010,2 hPa 0,0 mm 2,5 km/h (1 Bft) W-SW 254 ° 0 min 0,000 mm 0,0 UV-I 0 W/m² 9,1 °C 11,2 °C 4,8 km/h (1 Bft)
25.09.2019 21:00 11,1 °C 87 % 1010,2 hPa 0,0 mm 0,8 km/h (0 Bft) W-SW 244 ° 0 min 0,000 mm 0,0 UV-I 0 W/m² 9,0 °C 11,1 °C 3,2 km/h (1 Bft)
25.09.2019 21:01 11,1 °C 87 % 1010,2 hPa 0,0 mm 4,0 km/h (1 Bft) W 267 ° 0 min 0,000 mm 0,0 UV-I 0 W/m² 9,0 °C 11,1 °C 4,8 km/h (1 Bft)
25.09.2019 21:02 11,2 °C 87 % 1010,3 hPa 0,0 mm 3,9 km/h (1 Bft) W 267 ° 0 min 0,000 mm 0,0 UV-I 0 W/m² 9,1 °C 11,2 °C 6,4 km/h (2 Bft)
25.09.2019 21:03 11,1 °C 87 % 1010,3 hPa 0,0 mm 3,3 km/h (1 Bft) W 267 ° 0 min 0,000 mm 0,0 UV-I 0 W/m² 9,0 °C 11,1 °C 4,8 km/h (1 Bft)
25.09.2019 21:04 11,1 °C 87 % 1010,2 hPa 0,0 mm 1,9 km/h (1 Bft) W 267 ° 0 min 0,000 mm 0,0 UV-I 0 W/m² 9,0 °C 11,1 °C 3,2 km/h (1 Bft)
25.09.2019 21:05 11,1 °C 87 % 1010,3 hPa 0,0 mm 2,4 km/h (1 Bft) W 267 ° 0 min 0,000 mm 0,0 UV-I 0 W/m² 9,0 °C 11,1 °C 3,2 km/h (1 Bft)
25.09.2019 21:06 11,1 °C 87 % 1010,3 hPa 0,0 mm 0,8 km/h (0 Bft) W 267 ° 0 min 0,000 mm 0,0 UV-I 0 W/m² 9,0 °C 11,1 °C 1,6 km/h (1 Bft)
25.09.2019 21:07 11,0 °C 87 % 1010,3 hPa 0,0 mm 1,3 km/h (1 Bft) W 267 ° 0 min 0,000 mm 0,0 UV-I 0 W/m² 8,9 °C 11,0 °C 3,2 km/h (1 Bft)
25.09.2019 21:08 11,0 °C 87 % 1010,3 hPa 0,0 mm 2,3 km/h (1 Bft) W 267 ° 0 min 0,000 mm 0,0 UV-I 0 W/m² 8,9 °C 11,0 °C 3,2 km/h (1 Bft)
25.09.2019 21:09 11,0 °C 87 % 1010,3 hPa 0,0 mm 1,0 km/h (0 Bft) W 267 ° 0 min 0,000 mm 0,0 UV-I 0 W/m² 8,9 °C 11,0 °C 3,2 km/h (1 Bft)
25.09.2019 21:10 11,0 °C 87 % 1010,3 hPa 0,0 mm 3,5 km/h (1 Bft) W 267 ° 0 min 0,000 mm 0,0 UV-I 0 W/m² 8,9 °C 11,0 °C 6,4 km/h (2 Bft)
25.09.2019 21:11 10,9 °C 87 % 1010,3 hPa 0,0 mm 2,2 km/h (1 Bft) W 267 ° 0 min 0,000 mm 0,0 UV-I 0 W/m² 8,8 °C 10,9 °C 3,2 km/h (1 Bft)
25.09.2019 21:12 10,9 °C 87 % 1010,4 hPa 0,0 mm 0,1 km/h (0 Bft) W 267 ° 0 min 0,000 mm 0,0 UV-I 0 W/m² 8,8 °C 10,9 °C 1,6 km/h (1 Bft)
25.09.2019 21:13 10,9 °C 88 % 1010,4 hPa 0,0 mm 0,1 km/h (0 Bft) W 267 ° 0 min 0,000 mm 0,0 UV-I 0 W/m² 9,0 °C 10,9 °C 1,6 km/h (1 Bft)
25.09.2019 21:14 10,9 °C 88 % 1010,4 hPa 0,0 mm 0,5 km/h (0 Bft) W 267 ° 0 min 0,000 mm 0,0 UV-I 0 W/m² 9,0 °C 10,9 °C 3,2 km/h (1 Bft)
25.09.2019 21:15 10,9 °C 88 % 1010,4 hPa 0,0 mm 4,6 km/h (1 Bft) S 191 ° 0 min 0,000 mm 0,0 UV-I 0 W/m² 9,0 °C 10,9 °C 6,4 km/h (2 Bft)
25.09.2019 21:16 10,9 °C 87 % 1010,4 hPa 0,0 mm 3,3 km/h (1 Bft) S 189 ° 0 min 0,000 mm 0,0 UV-I 0 W/m² 8,8 °C 10,9 °C 4,8 km/h (1 Bft)
25.09.2019 21:17 11,0 °C 87 % 1010,4 hPa 0,0 mm 1,9 km/h (1 Bft) S 188 ° 0 min 0,000 mm 0,0 UV-I 0 W/m² 8,9 °C 11,0 °C 4,8 km/h (1 Bft)
25.09.2019 21:18 11,1 °C 87 % 1010,4 hPa 0,0 mm 1,2 km/h (1 Bft) S 188 ° 0 min 0,000 mm 0,0 UV-I 0 W/m² 9,0 °C 11,1 °C 3,2 km/h (1 Bft)
25.09.2019 21:19 11,1 °C 87 % 1010,4 hPa 0,0 mm 0,9 km/h (0 Bft) S 188 ° 0 min 0,000 mm 0,0 UV-I 0 W/m² 9,0 °C 11,1 °C 3,2 km/h (1 Bft)
25.09.2019 21:20 11,2 °C 87 % 1010,4 hPa 0,0 mm 2,2 km/h (1 Bft) S 189 ° 0 min 0,000 mm 0,0 UV-I 0 W/m² 9,1 °C 11,2 °C 3,2 km/h (1 Bft)
25.09.2019 21:21 11,2 °C 87 % 1010,5 hPa 0,0 mm 0,0 km/h (0 Bft) S 189 ° 0 min 0,000 mm 0,0 UV-I 0 W/m² 9,1 °C 11,2 °C 0,0 km/h (0 Bft)
25.09.2019 21:22 11,3 °C 87 % 1010,5 hPa 0,0 mm 0,1 km/h (0 Bft) S 189 ° 0 min 0,000 mm 0,0 UV-I 0 W/m² 9,2 °C 11,3 °C 1,6 km/h (1 Bft)
25.09.2019 21:23 11,3 °C 86 % 1010,5 hPa 0,0 mm 0,5 km/h (0 Bft) S 189 ° 0 min 0,000 mm 0,0 UV-I 0 W/m² 9,0 °C 11,3 °C 1,6 km/h (1 Bft)
25.09.2019 21:24 11,3 °C 86 % 1010,5 hPa 0,0 mm 3,2 km/h (1 Bft) S 189 ° 0 min 0,000 mm 0,0 UV-I 0 W/m² 9,0 °C 11,3 °C 4,8 km/h (1 Bft)
25.09.2019 21:25 11,3 °C 86 % 1010,5 hPa 0,0 mm 2,7 km/h (1 Bft) S-SW 205 ° 0 min 0,000 mm 0,0 UV-I 0 W/m² 9,0 °C 11,3 °C 4,8 km/h (1 Bft)
25.09.2019 21:26 11,3 °C 86 % 1010,6 hPa 0,0 mm 0,6 km/h (0 Bft) S-SW 205 ° 0 min 0,000 mm 0,0 UV-I 0 W/m² 9,0 °C 11,3 °C 1,6 km/h (1 Bft)
25.09.2019 21:27 11,3 °C 87 % 1010,6 hPa 0,0 mm 2,3 km/h (1 Bft) S-SW 205 ° 0 min 0,000 mm 0,0 UV-I 0 W/m² 9,2 °C 11,3 °C 6,4 km/h (2 Bft)
25.09.2019 21:28 11,3 °C 87 % 1010,6 hPa 0,0 mm 2,7 km/h (1 Bft) S-SW 203 ° 0 min 0,000 mm 0,0 UV-I 0 W/m² 9,2 °C 11,3 °C 8,0 km/h (2 Bft)
25.09.2019 21:29 11,3 °C 87 % 1010,7 hPa 0,0 mm 1,5 km/h (1 Bft) S-SW 203 ° 0 min 0,000 mm 0,0 UV-I 0 W/m² 9,2 °C 11,3 °C 4,8 km/h (1 Bft)
25.09.2019 21:30 11,3 °C 87 % 1010,7 hPa 0,0 mm 7,3 km/h (2 Bft) W-SW 237 ° 0 min 0,000 mm 0,0 UV-I 0 W/m² 9,2 °C 11,3 °C 9,7 km/h (2 Bft)
25.09.2019 21:31 11,3 °C 87 % 1010,6 hPa 0,0 mm 2,1 km/h (1 Bft) S-SW 205 ° 0 min 0,000 mm 0,0 UV-I 0 W/m² 9,2 °C 11,3 °C 6,4 km/h (2 Bft)
25.09.2019 21:32 11,2 °C 87 % 1010,6 hPa 0,0 mm 0,2 km/h (0 Bft) S-SW 205 ° 0 min 0,000 mm 0,0 UV-I 0 W/m² 9,1 °C 11,2 °C 1,6 km/h (1 Bft)
25.09.2019 21:33 11,2 °C 88 % 1010,7 hPa 0,0 mm 4,2 km/h (1 Bft) W 276 ° 0 min 0,000 mm 0,0 UV-I 0 W/m² 9,3 °C 11,2 °C 9,7 km/h (2 Bft)
25.09.2019 21:34 11,2 °C 88 % 1010,7 hPa 0,0 mm 3,5 km/h (1 Bft) S-SW 207 ° 0 min 0,000 mm 0,0 UV-I 0 W/m² 9,3 °C 11,2 °C 4,8 km/h (1 Bft)
25.09.2019 21:35 11,1 °C 88 % 1010,7 hPa 0,0 mm 1,7 km/h (1 Bft) S-SW 197 ° 0 min 0,000 mm 0,0 UV-I 0 W/m² 9,2 °C 11,1 °C 4,8 km/h (1 Bft)
25.09.2019 21:36 11,1 °C 88 % 1010,7 hPa 0,0 mm 6,0 km/h (2 Bft) SW 220 ° 0 min 0,000 mm 0,0 UV-I 0 W/m² 9,2 °C 11,1 °C 9,7 km/h (2 Bft)
25.09.2019 21:37 11,1 °C 88 % 1010,7 hPa 0,0 mm 5,5 km/h (1 Bft) S-SW 203 ° 0 min 0,000 mm 0,0 UV-I 0 W/m² 9,2 °C 11,1 °C 11,3 km/h (2 Bft)
25.09.2019 21:38 11,1 °C 89 % 1010,7 hPa 0,0 mm 2,0 km/h (1 Bft) W-SW 257 ° 0 min 0,000 mm 0,0 UV-I 0 W/m² 9,4 °C 11,1 °C 4,8 km/h (1 Bft)
25.09.2019 21:39 11,0 °C 89 % 1010,6 hPa 0,2 mm 3,2 km/h (1 Bft) S-SW 194 ° 0 min 0,000 mm 0,0 UV-I 0 W/m² 9,3 °C 11,0 °C 8,0 km/h (2 Bft)
25.09.2019 21:40 11,0 °C 89 % 1010,6 hPa 0,0 mm 4,2 km/h (1 Bft) W 278 ° 0 min 0,000 mm 0,0 UV-I 0 W/m² 9,3 °C 11,0 °C 9,7 km/h (2 Bft)
25.09.2019 21:41 11,0 °C 89 % 1010,7 hPa 0,0 mm 5,2 km/h (1 Bft) SW 234 ° 0 min 0,000 mm 0,0 UV-I 0 W/m² 9,3 °C 11,0 °C 9,7 km/h (2 Bft)
25.09.2019 21:42 11,0 °C 89 % 1010,7 hPa 0,0 mm 3,2 km/h (1 Bft) SW 225 ° 0 min 0,000 mm 0,0 UV-I 0 W/m² 9,3 °C 11,0 °C 4,8 km/h (1 Bft)
25.09.2019 21:43 10,9 °C 89 % 1010,7 hPa 0,0 mm 4,4 km/h (1 Bft) W 265 ° 0 min 0,000 mm 0,0 UV-I 0 W/m² 9,2 °C 10,9 °C 6,4 km/h (2 Bft)
25.09.2019 21:44 10,9 °C 89 % 1010,7 hPa 0,0 mm 4,6 km/h (1 Bft) S-SW 202 ° 0 min 0,000 mm 0,0 UV-I 0 W/m² 9,2 °C 10,9 °C 9,7 km/h (2 Bft)
25.09.2019 21:45 10,9 °C 90 % 1010,7 hPa 0,0 mm 2,8 km/h (1 Bft) W 264 ° 0 min 0,000 mm 0,0 UV-I 0 W/m² 9,3 °C 10,9 °C 4,8 km/h (1 Bft)
25.09.2019 21:46 10,9 °C 90 % 1010,7 hPa 0,0 mm 2,3 km/h (1 Bft) W-SW 252 ° 0 min 0,000 mm 0,0 UV-I 0 W/m² 9,3 °C 10,9 °C 4,8 km/h (1 Bft)
25.09.2019 21:47 10,9 °C 90 % 1010,7 hPa 0,0 mm 2,5 km/h (1 Bft) W 268 ° 0 min 0,000 mm 0,0 UV-I 0 W/m² 9,3 °C 10,9 °C 9,7 km/h (2 Bft)
25.09.2019 21:48 10,9 °C 90 % 1010,8 hPa 0,0 mm 4,8 km/h (1 Bft) W 276 ° 0 min 0,000 mm 0,0 UV-I 0 W/m² 9,3 °C 10,9 °C 9,7 km/h (2 Bft)
25.09.2019 21:49 10,9 °C 90 % 1010,8 hPa 0,0 mm 2,1 km/h (1 Bft) W-NW 302 ° 0 min 0,000 mm 0,0 UV-I 0 W/m² 9,3 °C 10,9 °C 4,8 km/h (1 Bft)
25.09.2019 21:50 10,8 °C 90 % 1010,7 hPa 0,0 mm 2,1 km/h (1 Bft) W-NW 290 ° 0 min 0,000 mm 0,0 UV-I 0 W/m² 9,2 °C 10,8 °C 4,8 km/h (1 Bft)
25.09.2019 21:51 10,8 °C 90 % 1010,7 hPa 0,0 mm 3,2 km/h (1 Bft) W-NW 290 ° 0 min 0,000 mm 0,0 UV-I 0 W/m² 9,2 °C 10,8 °C 4,8 km/h (1 Bft)
25.09.2019 21:52 10,8 °C 90 % 1010,8 hPa 0,0 mm 3,0 km/h (1 Bft) W 263 ° 0 min 0,000 mm 0,0 UV-I 0 W/m² 9,2 °C 10,8 °C 6,4 km/h (2 Bft)
25.09.2019 21:53 10,7 °C 91 % 1010,8 hPa 0,0 mm 4,2 km/h (1 Bft) W-SW 256 ° 0 min 0,000 mm 0,0 UV-I 0 W/m² 9,3 °C 10,7 °C 6,4 km/h (2 Bft)
25.09.2019 21:54 10,7 °C 91 % 1010,8 hPa 0,0 mm 1,1 km/h (1 Bft) W-SW 255 ° 0 min 0,000 mm 0,0 UV-I 0 W/m² 9,3 °C 10,7 °C 3,2 km/h (1 Bft)
25.09.2019 21:55 10,6 °C 91 % 1010,8 hPa 0,0 mm 0,1 km/h (0 Bft) W-SW 256 ° 0 min 0,000 mm 0,0 UV-I 0 W/m² 9,2 °C 10,6 °C 1,6 km/h (1 Bft)
25.09.2019 21:56 10,6 °C 91 % 1010,7 hPa 0,0 mm 0,3 km/h (0 Bft) W-SW 255 ° 0 min 0,000 mm 0,0 UV-I 0 W/m² 9,2 °C 10,6 °C 1,6 km/h (1 Bft)
25.09.2019 21:57 10,6 °C 91 % 1010,7 hPa 0,0 mm 0,2 km/h (0 Bft) W-SW 256 ° 0 min 0,000 mm 0,0 UV-I 0 W/m² 9,2 °C 10,6 °C 1,6 km/h (1 Bft)
25.09.2019 21:58 10,6 °C 91 % 1010,7 hPa 0,0 mm 1,4 km/h (1 Bft) W-SW 241 ° 0 min 0,000 mm 0,0 UV-I 0 W/m² 9,2 °C 10,6 °C 4,8 km/h (1 Bft)
25.09.2019 21:59 10,6 °C 91 % 1010,8 hPa 0,0 mm 1,7 km/h (1 Bft) W-SW 240 ° 0 min 0,000 mm 0,0 UV-I 0 W/m² 9,2 °C 10,6 °C 4,8 km/h (1 Bft)
25.09.2019 22:00 10,5 °C 92 % 1010,7 hPa 0,0 mm 2,0 km/h (1 Bft) SW 214 ° 0 min 0,000 mm 0,0 UV-I 0 W/m² 9,3 °C 10,5 °C 4,8 km/h (1 Bft)
25.09.2019 22:01 10,6 °C 92 % 1010,7 hPa 0,0 mm 0,9 km/h (0 Bft) SW 215 ° 0 min 0,000 mm 0,0 UV-I 0 W/m² 9,4 °C 10,6 °C 3,2 km/h (1 Bft)
25.09.2019 22:02 10,6 °C 92 % 1010,8 hPa 0,0 mm 0,1 km/h (0 Bft) SW 215 ° 0 min 0,000 mm 0,0 UV-I 0 W/m² 9,4 °C 10,6 °C 1,6 km/h (1 Bft)
25.09.2019 22:03 10,6 °C 92 % 1010,8 hPa 0,0 mm 3,6 km/h (1 Bft) SW 217 ° 0 min 0,000 mm 0,0 UV-I 0 W/m² 9,4 °C 10,6 °C 8,0 km/h (2 Bft)
25.09.2019 22:04 10,6 °C 92 % 1010,8 hPa 0,0 mm 2,5 km/h (1 Bft) S-SW 205 ° 0 min 0,000 mm 0,0 UV-I 0 W/m² 9,4 °C 10,6 °C 3,2 km/h (1 Bft)
25.09.2019 22:05 10,6 °C 91 % 1010,8 hPa 0,0 mm 0,3 km/h (0 Bft) S-SW 205 ° 0 min 0,000 mm 0,0 UV-I 0 W/m² 9,2 °C 10,6 °C 1,6 km/h (1 Bft)
25.09.2019 22:06 10,6 °C 91 % 1010,8 hPa 0,0 mm 1,5 km/h (1 Bft) SW 214 ° 0 min 0,000 mm 0,0 UV-I 0 W/m² 9,2 °C 10,6 °C 4,8 km/h (1 Bft)
25.09.2019 22:07 10,6 °C 91 % 1010,7 hPa 0,0 mm 4,4 km/h (1 Bft) S-SW 209 ° 0 min 0,000 mm 0,0 UV-I 0 W/m² 9,2 °C 10,6 °C 9,7 km/h (2 Bft)
25.09.2019 22:08 10,7 °C 91 % 1010,7 hPa 0,0 mm 2,2 km/h (1 Bft) W-SW 251 ° 0 min 0,000 mm 0,0 UV-I 0 W/m² 9,3 °C 10,7 °C 3,2 km/h (1 Bft)
25.09.2019 22:09 10,7 °C 91 % 1010,8 hPa 0,0 mm 3,8 km/h (1 Bft) S 191 ° 0 min 0,000 mm 0,0 UV-I 0 W/m² 9,3 °C 10,7 °C 8,0 km/h (2 Bft)
25.09.2019 22:10 10,7 °C 91 % 1010,8 hPa 0,0 mm 3,7 km/h (1 Bft) S 188 ° 0 min 0,000 mm 0,0 UV-I 0 W/m² 9,3 °C 10,7 °C 6,4 km/h (2 Bft)
25.09.2019 22:11 10,8 °C 91 % 1010,7 hPa 0,0 mm 1,6 km/h (1 Bft) SW 230 ° 0 min 0,000 mm 0,0 UV-I 0 W/m² 9,4 °C 10,8 °C 3,2 km/h (1 Bft)
25.09.2019 22:12 10,8 °C 91 % 1010,8 hPa 0,0 mm 3,0 km/h (1 Bft) S-SW 213 ° 0 min 0,000 mm 0,0 UV-I 0 W/m² 9,4 °C 10,8 °C 4,8 km/h (1 Bft)
25.09.2019 22:13 10,8 °C 91 % 1010,7 hPa 0,0 mm 5,3 km/h (1 Bft) W-SW 242 ° 0 min 0,000 mm 0,0 UV-I 0 W/m² 9,4 °C 10,8 °C 8,0 km/h (2 Bft)
25.09.2019 22:14 10,9 °C 90 % 1010,8 hPa 0,0 mm 6,1 km/h (2 Bft) W 261 ° 0 min 0,000 mm 0,0 UV-I 0 W/m² 9,3 °C 10,9 °C 9,7 km/h (2 Bft)
25.09.2019 22:15 10,9 °C 90 % 1010,8 hPa 0,0 mm 2,5 km/h (1 Bft) SW 232 ° 0 min 0,000 mm 0,0 UV-I 0 W/m² 9,3 °C 10,9 °C 4,8 km/h (1 Bft)
25.09.2019 22:16 10,9 °C 90 % 1010,8 hPa 0,0 mm 5,7 km/h (1 Bft) W-SW 240 ° 0 min 0,000 mm 0,0 UV-I 0 W/m² 9,3 °C 10,9 °C 16,1 km/h (3 Bft)
25.09.2019 22:17 10,9 °C 90 % 1010,8 hPa 0,0 mm 6,0 km/h (2 Bft) SW 221 ° 0 min 0,000 mm 0,0 UV-I 0 W/m² 9,3 °C 10,9 °C 12,9 km/h (3 Bft)
25.09.2019 22:18 10,9 °C 90 % 1010,8 hPa 0,0 mm 6,6 km/h (2 Bft) SW 236 ° 0 min 0,000 mm 0,0 UV-I 0 W/m² 9,3 °C 10,9 °C 8,0 km/h (2 Bft)
25.09.2019 22:19 10,9 °C 90 % 1010,9 hPa 0,0 mm 3,2 km/h (1 Bft) S 175 ° 0 min 0,000 mm 0,0 UV-I 0 W/m² 9,3 °C 10,9 °C 4,8 km/h (1 Bft)
25.09.2019 22:20 10,9 °C 90 % 1010,8 hPa 0,0 mm 1,3 km/h (1 Bft) S 187 ° 0 min 0,000 mm 0,0 UV-I 0 W/m² 9,3 °C 10,9 °C 4,8 km/h (1 Bft)
25.09.2019 22:21 11,0 °C 90 % 1010,8 hPa 0,0 mm 2,7 km/h (1 Bft) S-SW 196 ° 0 min 0,000 mm 0,0 UV-I 0 W/m² 9,4 °C 11,0 °C 4,8 km/h (1 Bft)
25.09.2019 22:22 11,0 °C 90 % 1010,8 hPa 0,0 mm 4,5 km/h (1 Bft) W-SW 254 ° 0 min 0,000 mm 0,0 UV-I 0 W/m² 9,4 °C 11,0 °C 6,4 km/h (2 Bft)
25.09.2019 22:23 11,0 °C 90 % 1010,8 hPa 0,0 mm 3,4 km/h (1 Bft) W-SW 241 ° 0 min 0,000 mm 0,0 UV-I 0 W/m² 9,4 °C 11,0 °C 4,8 km/h (1 Bft)
25.09.2019 22:24 10,9 °C 89 % 1010,9 hPa 0,0 mm 3,9 km/h (1 Bft) W-SW 238 ° 0 min 0,000 mm 0,0 UV-I 0 W/m² 9,2 °C 10,9 °C 8,0 km/h (2 Bft)
25.09.2019 22:25 10,9 °C 90 % 1010,9 hPa 0,0 mm 2,3 km/h (1 Bft) W-SW 244 ° 0 min 0,000 mm 0,0 UV-I 0 W/m² 9,3 °C 10,9 °C 4,8 km/h (1 Bft)
25.09.2019 22:26 10,9 °C 89 % 1010,9 hPa 0,0 mm 0,8 km/h (0 Bft) W-SW 239 ° 0 min 0,000 mm 0,0 UV-I 0 W/m² 9,2 °C 10,9 °C 1,6 km/h (1 Bft)
25.09.2019 22:27 10,9 °C 89 % 1010,8 hPa 0,0 mm 0,7 km/h (0 Bft) W-SW 239 ° 0 min 0,000 mm 0,0 UV-I 0 W/m² 9,2 °C 10,9 °C 3,2 km/h (1 Bft)
25.09.2019 22:28 10,9 °C 90 % 1010,8 hPa 0,0 mm 0,5 km/h (0 Bft) S 182 ° 0 min 0,000 mm 0,0 UV-I 0 W/m² 9,3 °C 10,9 °C 4,8 km/h (1 Bft)
25.09.2019 22:29 10,9 °C 90 % 1010,8 hPa 0,0 mm 4,9 km/h (1 Bft) W 265 ° 0 min 0,000 mm 0,0 UV-I 0 W/m² 9,3 °C 10,9 °C 9,7 km/h (2 Bft)
25.09.2019 22:30 10,9 °C 90 % 1010,9 hPa 0,0 mm 5,8 km/h (2 Bft) SW 236 ° 0 min 0,000 mm 0,0 UV-I 0 W/m² 9,3 °C 10,9 °C 12,9 km/h (3 Bft)
25.09.2019 22:31 10,9 °C 90 % 1010,8 hPa 0,0 mm 2,5 km/h (1 Bft) SW 235 ° 0 min 0,000 mm 0,0 UV-I 0 W/m² 9,3 °C 10,9 °C 4,8 km/h (1 Bft)
25.09.2019 22:32 10,9 °C 90 % 1010,9 hPa 0,0 mm 7,2 km/h (2 Bft) S 190 ° 0 min 0,000 mm 0,0 UV-I 0 W/m² 9,3 °C 10,9 °C 11,3 km/h (2 Bft)
25.09.2019 22:33 10,9 °C 90 % 1010,8 hPa 0,0 mm 1,5 km/h (1 Bft) S-SW 198 ° 0 min 0,000 mm 0,0 UV-I 0 W/m² 9,3 °C 10,9 °C 8,0 km/h (2 Bft)
25.09.2019 22:34 10,8 °C 90 % 1010,8 hPa 0,0 mm 2,7 km/h (1 Bft) S 191 ° 0 min 0,000 mm 0,0 UV-I 0 W/m² 9,2 °C 10,8 °C 4,8 km/h (1 Bft)
25.09.2019 22:35 10,9 °C 90 % 1010,8 hPa 0,0 mm 1,9 km/h (1 Bft) S 191 ° 0 min 0,000 mm 0,0 UV-I 0 W/m² 9,3 °C 10,9 °C 4,8 km/h (1 Bft)
25.09.2019 22:36 10,9 °C 90 % 1010,9 hPa 0,0 mm 4,0 km/h (1 Bft) S-SW 192 ° 0 min 0,000 mm 0,0 UV-I 0 W/m² 9,3 °C 10,9 °C 6,4 km/h (2 Bft)
25.09.2019 22:37 10,9 °C 90 % 1010,8 hPa 0,0 mm 3,2 km/h (1 Bft) S-SW 211 ° 0 min 0,000 mm 0,0 UV-I 0 W/m² 9,3 °C 10,9 °C 6,4 km/h (2 Bft)
25.09.2019 22:38 10,8 °C 90 % 1010,8 hPa 0,0 mm 0,3 km/h (0 Bft) W 275 ° 0 min 0,000 mm 0,0 UV-I 0 W/m² 9,2 °C 10,8 °C 3,2 km/h (1 Bft)
25.09.2019 22:39 10,8 °C 90 % 1010,8 hPa 0,0 mm 1,1 km/h (1 Bft) W-NW 285 ° 0 min 0,000 mm 0,0 UV-I 0 W/m² 9,2 °C 10,8 °C 3,2 km/h (1 Bft)
25.09.2019 22:40 10,8 °C 90 % 1010,8 hPa 0,0 mm 2,7 km/h (1 Bft) W 275 ° 0 min 0,000 mm 0,0 UV-I 0 W/m² 9,2 °C 10,8 °C 4,8 km/h (1 Bft)
25.09.2019 22:41 10,8 °C 90 % 1010,8 hPa 0,0 mm 2,5 km/h (1 Bft) SW 234 ° 0 min 0,000 mm 0,0 UV-I 0 W/m² 9,2 °C 10,8 °C 4,8 km/h (1 Bft)
25.09.2019 22:42 10,8 °C 90 % 1010,8 hPa 0,0 mm 0,5 km/h (0 Bft) S 187 ° 0 min 0,000 mm 0,0 UV-I 0 W/m² 9,2 °C 10,8 °C 3,2 km/h (1 Bft)
25.09.2019 22:43 10,8 °C 90 % 1010,8 hPa 0,0 mm 2,9 km/h (1 Bft) W 265 ° 0 min 0,000 mm 0,0 UV-I 0 W/m² 9,2 °C 10,8 °C 4,8 km/h (1 Bft)
25.09.2019 22:44 10,8 °C 90 % 1010,8 hPa 0,0 mm 3,4 km/h (1 Bft) W-SW 257 ° 0 min 0,000 mm 0,0 UV-I 0 W/m² 9,2 °C 10,8 °C 4,8 km/h (1 Bft)
25.09.2019 22:45 10,8 °C 90 % 1010,8 hPa 0,0 mm 2,1 km/h (1 Bft) S-SW 196 ° 0 min 0,000 mm 0,0 UV-I 0 W/m² 9,2 °C 10,8 °C 4,8 km/h (1 Bft)
25.09.2019 22:46 10,8 °C 90 % 1010,8 hPa 0,0 mm 1,7 km/h (1 Bft) W-SW 249 ° 0 min 0,000 mm 0,0 UV-I 0 W/m² 9,2 °C 10,8 °C 3,2 km/h (1 Bft)
25.09.2019 22:47 10,8 °C 90 % 1010,8 hPa 0,0 mm 3,4 km/h (1 Bft) S-SW 203 ° 0 min 0,000 mm 0,0 UV-I 0 W/m² 9,2 °C 10,8 °C 6,4 km/h (2 Bft)
25.09.2019 22:48 10,8 °C 90 % 1010,8 hPa 0,0 mm 3,6 km/h (1 Bft) S-SW 205 ° 0 min 0,000 mm 0,0 UV-I 0 W/m² 9,2 °C 10,8 °C 8,0 km/h (2 Bft)
25.09.2019 22:49 10,9 °C 90 % 1010,8 hPa 0,0 mm 1,1 km/h (1 Bft) S-SW 205 ° 0 min 0,000 mm 0,0 UV-I 0 W/m² 9,3 °C 10,9 °C 3,2 km/h (1 Bft)
25.09.2019 22:50 10,9 °C 90 % 1010,8 hPa 0,0 mm 0,0 km/h (0 Bft) S-SW 205 ° 0 min 0,000 mm 0,0 UV-I 0 W/m² 9,3 °C 10,9 °C 0,0 km/h (0 Bft)
25.09.2019 22:51 10,9 °C 90 % 1010,8 hPa 0,0 mm 0,0 km/h (0 Bft) S-SW 205 ° 0 min 0,000 mm 0,0 UV-I 0 W/m² 9,3 °C 10,9 °C 0,0 km/h (0 Bft)
25.09.2019 22:52 10,9 °C 90 % 1010,8 hPa 0,0 mm 0,0 km/h (0 Bft) S-SW 205 ° 0 min 0,000 mm 0,0 UV-I 0 W/m² 9,3 °C 10,9 °C 0,0 km/h (0 Bft)
25.09.2019 22:53 10,9 °C 90 % 1010,8 hPa 0,0 mm 2,1 km/h (1 Bft) SW 234 ° 0 min 0,000 mm 0,0 UV-I 0 W/m² 9,3 °C 10,9 °C 8,0 km/h (2 Bft)
25.09.2019 22:54 10,9 °C 90 % 1010,8 hPa 0,0 mm 2,6 km/h (1 Bft) SW 234 ° 0 min 0,000 mm 0,0 UV-I 0 W/m² 9,3 °C 10,9 °C 4,8 km/h (1 Bft)
25.09.2019 22:55 10,9 °C 90 % 1010,8 hPa 0,0 mm 0,7 km/h (0 Bft) SW 234 ° 0 min 0,000 mm 0,0 UV-I 0 W/m² 9,3 °C 10,9 °C 3,2 km/h (1 Bft)
25.09.2019 22:56 10,9 °C 90 % 1010,8 hPa 0,0 mm 0,1 km/h (0 Bft) SW 234 ° 0 min 0,000 mm 0,0 UV-I 0 W/m² 9,3 °C 10,9 °C 1,6 km/h (1 Bft)
25.09.2019 22:57 10,9 °C 90 % 1010,8 hPa 0,0 mm 2,5 km/h (1 Bft) S-SW 196 ° 0 min 0,000 mm 0,0 UV-I 0 W/m² 9,3 °C 10,9 °C 6,4 km/h (2 Bft)
25.09.2019 22:58 10,9 °C 89 % 1010,8 hPa 0,0 mm 1,3 km/h (1 Bft) SW 214 ° 0 min 0,000 mm 0,0 UV-I 0 W/m² 9,2 °C 10,9 °C 3,2 km/h (1 Bft)
25.09.2019 22:59 10,9 °C 89 % 1010,8 hPa 0,0 mm 0,5 km/h (0 Bft) SW 214 ° 0 min 0,000 mm 0,0 UV-I 0 W/m² 9,2 °C 10,9 °C 3,2 km/h (1 Bft)
25.09.2019 23:00 11,0 °C 89 % 1010,8 hPa 0,2 mm 2,0 km/h (1 Bft) SW 217 ° 0 min 0,000 mm 0,0 UV-I 0 W/m² 9,3 °C 11,0 °C 4,8 km/h (1 Bft)
25.09.2019 23:01 11,0 °C 89 % 1010,8 hPa 0,0 mm 3,2 km/h (1 Bft) W-SW 238 ° 0 min 0,000 mm 0,0 UV-I 0 W/m² 9,3 °C 11,0 °C 4,8 km/h (1 Bft)
25.09.2019 23:02 11,0 °C 89 % 1010,8 hPa 0,0 mm 1,8 km/h (1 Bft) W-SW 237 ° 0 min 0,000 mm 0,0 UV-I 0 W/m² 9,3 °C 11,0 °C 3,2 km/h (1 Bft)
25.09.2019 23:03 11,1 °C 89 % 1010,9 hPa 0,0 mm 0,5 km/h (0 Bft) W-SW 237 ° 0 min 0,000 mm 0,0 UV-I 0 W/m² 9,4 °C 11,1 °C 1,6 km/h (1 Bft)
25.09.2019 23:04 11,1 °C 89 % 1010,9 hPa 0,0 mm 3,2 km/h (1 Bft) W 260 ° 0 min 0,000 mm 0,0 UV-I 0 W/m² 9,4 °C 11,1 °C 6,4 km/h (2 Bft)
25.09.2019 23:05 11,1 °C 89 % 1010,8 hPa 0,0 mm 6,4 km/h (2 Bft) W-SW 237 ° 0 min 0,000 mm 0,0 UV-I 0 W/m² 9,4 °C 11,1 °C 9,7 km/h (2 Bft)
25.09.2019 23:06 11,1 °C 89 % 1010,8 hPa 0,0 mm 2,8 km/h (1 Bft) W-SW 242 ° 0 min 0,000 mm 0,0 UV-I 0 W/m² 9,4 °C 11,1 °C 4,8 km/h (1 Bft)
25.09.2019 23:07 11,1 °C 89 % 1010,9 hPa 0,0 mm 3,1 km/h (1 Bft) W-SW 244 ° 0 min 0,000 mm 0,0 UV-I 0 W/m² 9,4 °C 11,1 °C 8,0 km/h (2 Bft)
25.09.2019 23:08 11,1 °C 89 % 1010,9 hPa 0,0 mm 3,0 km/h (1 Bft) W-SW 254 ° 0 min 0,000 mm 0,0 UV-I 0 W/m² 9,4 °C 11,1 °C 8,0 km/h (2 Bft)
25.09.2019 23:09 11,2 °C 89 % 1010,9 hPa 0,0 mm 6,9 km/h (2 Bft) W 270 ° 0 min 0,000 mm 0,0 UV-I 0 W/m² 9,5 °C 11,2 °C 11,3 km/h (2 Bft)
25.09.2019 23:10 11,2 °C 89 % 1010,9 hPa 0,0 mm 6,1 km/h (2 Bft) S-SW 194 ° 0 min 0,000 mm 0,0 UV-I 0 W/m² 9,5 °C 11,2 °C 9,7 km/h (2 Bft)
25.09.2019 23:11 11,2 °C 89 % 1010,9 hPa 0,0 mm 6,7 km/h (2 Bft) W-SW 248 ° 0 min 0,000 mm 0,0 UV-I 0 W/m² 9,5 °C 11,2 °C 11,3 km/h (2 Bft)
25.09.2019 23:12 11,2 °C 89 % 1010,9 hPa 0,0 mm 4,1 km/h (1 Bft) SW 236 ° 0 min 0,000 mm 0,0 UV-I 0 W/m² 9,5 °C 11,2 °C 9,7 km/h (2 Bft)
25.09.2019 23:13 11,2 °C 89 % 1010,9 hPa 0,0 mm 0,9 km/h (0 Bft) SW 235 ° 0 min 0,000 mm 0,0 UV-I 0 W/m² 9,5 °C 11,2 °C 3,2 km/h (1 Bft)
25.09.2019 23:14 11,1 °C 89 % 1010,9 hPa 0,0 mm 1,3 km/h (1 Bft) S 188 ° 0 min 0,000 mm 0,0 UV-I 0 W/m² 9,4 °C 11,1 °C 4,8 km/h (1 Bft)
25.09.2019 23:15 11,1 °C 89 % 1010,9 hPa 0,0 mm 5,1 km/h (1 Bft) S-SW 211 ° 0 min 0,000 mm 0,0 UV-I 0 W/m² 9,4 °C 11,1 °C 11,3 km/h (2 Bft)
25.09.2019 23:16 11,1 °C 89 % 1010,9 hPa 0,0 mm 4,2 km/h (1 Bft) W-SW 240 ° 0 min 0,000 mm 0,0 UV-I 0 W/m² 9,4 °C 11,1 °C 8,0 km/h (2 Bft)
25.09.2019 23:17 11,1 °C 89 % 1010,9 hPa 0,0 mm 4,6 km/h (1 Bft) SW 220 ° 0 min 0,000 mm 0,0 UV-I 0 W/m² 9,4 °C 11,1 °C 8,0 km/h (2 Bft)
25.09.2019 23:18 11,1 °C 90 % 1010,9 hPa 0,0 mm 3,7 km/h (1 Bft) S-SW 207 ° 0 min 0,000 mm 0,0 UV-I 0 W/m² 9,5 °C 11,1 °C 8,0 km/h (2 Bft)
25.09.2019 23:19 11,0 °C 90 % 1010,9 hPa 0,0 mm 5,7 km/h (1 Bft) W 259 ° 0 min 0,000 mm 0,0 UV-I 0 W/m² 9,4 °C 11,0 °C 11,3 km/h (2 Bft)
25.09.2019 23:20 11,0 °C 90 % 1010,9 hPa 0,0 mm 3,3 km/h (1 Bft) W-SW 240 ° 0 min 0,000 mm 0,0 UV-I 0 W/m² 9,4 °C 11,0 °C 4,8 km/h (1 Bft)
25.09.2019 23:21 11,0 °C 90 % 1010,9 hPa 0,0 mm 1,9 km/h (1 Bft) SW 236 ° 0 min 0,000 mm 0,0 UV-I 0 W/m² 9,4 °C 11,0 °C 3,2 km/h (1 Bft)
25.09.2019 23:22 11,0 °C 90 % 1010,8 hPa 0,0 mm 2,4 km/h (1 Bft) W 264 ° 0 min 0,000 mm 0,0 UV-I 0 W/m² 9,4 °C 11,0 °C 9,7 km/h (2 Bft)
25.09.2019 23:23 11,0 °C 90 % 1010,8 hPa 0,0 mm 4,2 km/h (1 Bft) W-SW 253 ° 0 min 0,000 mm 0,0 UV-I 0 W/m² 9,4 °C 11,0 °C 9,7 km/h (2 Bft)
25.09.2019 23:24 11,0 °C 90 % 1010,8 hPa 0,0 mm 6,2 km/h (2 Bft) W-SW 252 ° 0 min 0,000 mm 0,0 UV-I 0 W/m² 9,4 °C 11,0 °C 9,7 km/h (2 Bft)
25.09.2019 23:25 11,0 °C 90 % 1010,8 hPa 0,0 mm 6,5 km/h (2 Bft) W-SW 250 ° 0 min 0,000 mm 0,0 UV-I 0 W/m² 9,4 °C 11,0 °C 9,7 km/h (2 Bft)
25.09.2019 23:26 11,0 °C 90 % 1010,8 hPa 0,0 mm 4,8 km/h (1 Bft) W-SW 250 ° 0 min 0,000 mm 0,0 UV-I 0 W/m² 9,4 °C 11,0 °C 6,4 km/h (2 Bft)
25.09.2019 23:27 11,0 °C 90 % 1010,8 hPa 0,0 mm 5,5 km/h (1 Bft) W-SW 250 ° 0 min 0,000 mm 0,0 UV-I 0 W/m² 9,4 °C 11,0 °C 6,4 km/h (2 Bft)
25.09.2019 23:28 11,0 °C 90 % 1010,8 hPa 0,0 mm 4,3 km/h (1 Bft) W 264 ° 0 min 0,000 mm 0,0 UV-I 0 W/m² 9,4 °C 11,0 °C 9,7 km/h (2 Bft)
25.09.2019 23:29 11,0 °C 90 % 1010,9 hPa 0,0 mm 1,6 km/h (1 Bft) W-SW 257 ° 0 min 0,000 mm 0,0 UV-I 0 W/m² 9,4 °C 11,0 °C 4,8 km/h (1 Bft)
25.09.2019 23:30 11,0 °C 90 % 1010,8 hPa 0,0 mm 0,0 km/h (0 Bft) W-SW 257 ° 0 min 0,000 mm 0,0 UV-I 0 W/m² 9,4 °C 11,0 °C 0,0 km/h (0 Bft)
25.09.2019 23:31 11,0 °C 90 % 1010,8 hPa 0,0 mm 2,1 km/h (1 Bft) W-SW 251 ° 0 min 0,000 mm 0,0 UV-I 0 W/m² 9,4 °C 11,0 °C 4,8 km/h (1 Bft)
25.09.2019 23:32 10,9 °C 90 % 1010,8 hPa 0,0 mm 2,0 km/h (1 Bft) SW 227 ° 0 min 0,000 mm 0,0 UV-I 0 W/m² 9,3 °C 10,9 °C 4,8 km/h (1 Bft)
25.09.2019 23:33 10,9 °C 91 % 1010,8 hPa 0,0 mm 1,2 km/h (1 Bft) SW 225 ° 0 min 0,000 mm 0,0 UV-I 0 W/m² 9,5 °C 10,9 °C 4,8 km/h (1 Bft)
25.09.2019 23:34 10,9 °C 90 % 1010,8 hPa 0,0 mm 3,2 km/h (1 Bft) S-SO 167 ° 0 min 0,000 mm 0,0 UV-I 0 W/m² 9,3 °C 10,9 °C 8,0 km/h (2 Bft)
25.09.2019 23:35 10,9 °C 90 % 1010,8 hPa 0,0 mm 3,0 km/h (1 Bft) W 261 ° 0 min 0,000 mm 0,0 UV-I 0 W/m² 9,3 °C 10,9 °C 6,4 km/h (2 Bft)
25.09.2019 23:36 10,9 °C 90 % 1010,8 hPa 0,0 mm 3,8 km/h (1 Bft) W-SW 253 ° 0 min 0,000 mm 0,0 UV-I 0 W/m² 9,3 °C 10,9 °C 6,4 km/h (2 Bft)
25.09.2019 23:37 10,9 °C 90 % 1010,8 hPa 0,0 mm 2,8 km/h (1 Bft) W-SW 246 ° 0 min 0,000 mm 0,0 UV-I 0 W/m² 9,3 °C 10,9 °C 4,8 km/h (1 Bft)
25.09.2019 23:38 10,9 °C 91 % 1010,8 hPa 0,0 mm 3,6 km/h (1 Bft) W-SW 242 ° 0 min 0,000 mm 0,0 UV-I 0 W/m² 9,5 °C 10,9 °C 6,4 km/h (2 Bft)
25.09.2019 23:39 10,9 °C 90 % 1010,8 hPa 0,0 mm 0,1 km/h (0 Bft) W-SW 243 ° 0 min 0,000 mm 0,0 UV-I 0 W/m² 9,3 °C 10,9 °C 1,6 km/h (1 Bft)
25.09.2019 23:40 10,9 °C 90 % 1010,8 hPa 0,0 mm 1,6 km/h (1 Bft) W-SW 240 ° 0 min 0,000 mm 0,0 UV-I 0 W/m² 9,3 °C 10,9 °C 4,8 km/h (1 Bft)
25.09.2019 23:41 10,9 °C 91 % 1010,8 hPa 0,0 mm 0,7 km/h (0 Bft) SW 234 ° 0 min 0,000 mm 0,0 UV-I 0 W/m² 9,5 °C 10,9 °C 3,2 km/h (1 Bft)
25.09.2019 23:42 10,8 °C 90 % 1010,7 hPa 0,0 mm 1,4 km/h (1 Bft) SW 234 ° 0 min 0,000 mm 0,0 UV-I 0 W/m² 9,2 °C 10,8 °C 3,2 km/h (1 Bft)
25.09.2019 23:43 10,8 °C 90 % 1010,8 hPa 0,0 mm 2,5 km/h (1 Bft) S-SW 198 ° 0 min 0,000 mm 0,0 UV-I 0 W/m² 9,2 °C 10,8 °C 6,4 km/h (2 Bft)
25.09.2019 23:44 10,8 °C 90 % 1010,7 hPa 0,0 mm 1,7 km/h (1 Bft) SW 229 ° 0 min 0,000 mm 0,0 UV-I 0 W/m² 9,2 °C 10,8 °C 6,4 km/h (2 Bft)
25.09.2019 23:45 10,8 °C 91 % 1010,7 hPa 0,0 mm 3,6 km/h (1 Bft) SW 216 ° 0 min 0,000 mm 0,0 UV-I 0 W/m² 9,4 °C 10,8 °C 4,8 km/h (1 Bft)
25.09.2019 23:46 10,7 °C 91 % 1010,6 hPa 0,0 mm 0,9 km/h (0 Bft) SW 216 ° 0 min 0,000 mm 0,0 UV-I 0 W/m² 9,3 °C 10,7 °C 4,8 km/h (1 Bft)
25.09.2019 23:47 10,7 °C 91 % 1010,6 hPa 0,0 mm 1,3 km/h (1 Bft) W 263 ° 0 min 0,000 mm 0,0 UV-I 0 W/m² 9,3 °C 10,7 °C 4,8 km/h (1 Bft)
25.09.2019 23:48 10,7 °C 91 % 1010,6 hPa 0,0 mm 0,4 km/h (0 Bft) W 263 ° 0 min 0,000 mm 0,0 UV-I 0 W/m² 9,3 °C 10,7 °C 3,2 km/h (1 Bft)
25.09.2019 23:49 10,7 °C 91 % 1010,6 hPa 0,0 mm 2,4 km/h (1 Bft) W 263 ° 0 min 0,000 mm 0,0 UV-I 0 W/m² 9,3 °C 10,7 °C 4,8 km/h (1 Bft)
25.09.2019 23:50 10,7 °C 91 % 1010,6 hPa 0,0 mm 1,9 km/h (1 Bft) W 263 ° 0 min 0,000 mm 0,0 UV-I 0 W/m² 9,3 °C 10,7 °C 3,2 km/h (1 Bft)
25.09.2019 23:51 10,7 °C 91 % 1010,6 hPa 0,2 mm 0,6 km/h (0 Bft) W 263 ° 0 min 0,000 mm 0,0 UV-I 0 W/m² 9,3 °C 10,7 °C 1,6 km/h (1 Bft)
25.09.2019 23:52 10,7 °C 91 % 1010,6 hPa 0,0 mm 3,4 km/h (1 Bft) S-SW 196 ° 0 min 0,000 mm 0,0 UV-I 0 W/m² 9,3 °C 10,7 °C 6,4 km/h (2 Bft)
25.09.2019 23:53 10,7 °C 91 % 1010,6 hPa 0,0 mm 1,9 km/h (1 Bft) S-SW 195 ° 0 min 0,000 mm 0,0 UV-I 0 W/m² 9,3 °C 10,7 °C 4,8 km/h (1 Bft)
25.09.2019 23:54 10,7 °C 91 % 1010,6 hPa 0,0 mm 3,1 km/h (1 Bft) S 187 ° 0 min 0,000 mm 0,0 UV-I 0 W/m² 9,3 °C 10,7 °C 4,8 km/h (1 Bft)
25.09.2019 23:55 10,7 °C 91 % 1010,6 hPa 0,0 mm 1,5 km/h (1 Bft) S-SW 204 ° 0 min 0,000 mm 0,0 UV-I 0 W/m² 9,3 °C 10,7 °C 3,2 km/h (1 Bft)
25.09.2019 23:56 10,7 °C 91 % 1010,6 hPa 0,0 mm 0,6 km/h (0 Bft) S-SW 203 ° 0 min 0,000 mm 0,0 UV-I 0 W/m² 9,3 °C 10,7 °C 3,2 km/h (1 Bft)
25.09.2019 23:57 10,7 °C 91 % 1010,6 hPa 0,0 mm 1,4 km/h (1 Bft) S-SW 204 ° 0 min 0,000 mm 0,0 UV-I 0 W/m² 9,3 °C 10,7 °C 3,2 km/h (1 Bft)
25.09.2019 23:58 10,7 °C 91 % 1010,6 hPa 0,0 mm 0,0 km/h (0 Bft) S-SW 204 ° 0 min 0,000 mm 0,0 UV-I 0 W/m² 9,3 °C 10,7 °C 0,0 km/h (0 Bft)
25.09.2019 23:59 10,7 °C 91 % 1010,6 hPa 0,0 mm 1,9 km/h (1 Bft) S-SW 192 ° 0 min 0,000 mm 0,0 UV-I 0 W/m² 9,3 °C 10,7 °C 6,4 km/h (2 Bft)
_ Min-Zeit 19:58 15:54 16:44 - 23:58 - - - - - - 19:58 19:58 23:58
Minimum _ 8,8 °C 72 % 1008,5 hPa - 0,0 km/h (0 Bft) - - - - - - 7,7 °C 8,8 °C 0,0 km/h (0 Bft)
_ Max-Zeit 15:44 03:36 23:29 23:51 18:27 - - 14:08 14:00 14:05 14:06 12:09 15:44 18:27
Maximum _ 15,6 °C 95 % 1010,9 hPa 0,2 mm 24,6 km/h
W (4 Bft)
- - 1 min 0,330 mm 4,6 UV-I 810 W/m² 12,2 °C 15,6 °C 35,4 km/h
W-SW (5 Bft)
Durchschnitt _ 12,2 °C 87 % 1009,5 hPa #4,6 mm 4,7 km/h (1 Bft) W - #53 min. #1,549 mm 2,0 UV-I 102 W/m² 10,1 °C 12,2 °C 8,1 km/h (2 Bft)